| time (UTC) | temp F | wind direction | speed MPH | gust MPH | rain 1hr in | rain 24hr in | rain mn in | humidity % | barometer mb |
| 20260903182704 | 95 | 343 | 3.0 | 7.0 | 0.00 | 0.00 | 0.00 | 32 | 1013.2 |
| 20260903182603 | 95 | 352 | 3.0 | 7.0 | 0.00 | 0.00 | 0.00 | 32 | 1013.3 |
| 20260903182503 | 95 | 3 | 4.0 | 7.0 | 0.00 | 0.00 | 0.00 | 33 | 1013.3 |
| 20260903182403 | 94 | 10 | 4.0 | 7.0 | 0.00 | 0.00 | 0.00 | 32 | 1013.3 |
| 20260903182306 | 94 | 9 | 3.0 | 7.0 | 0.00 | 0.00 | 0.00 | 32 | 1013.3 |
| 20260903182203 | 94 | 18 | 3.0 | 7.0 | 0.00 | 0.00 | 0.00 | 32 | 1013.3 |
| 20260903182103 | 94 | 20 | 3.0 | 7.0 | 0.00 | 0.00 | 0.00 | 32 | 1013.3 |
| 20260903182003 | 94 | 16 | 3.0 | 7.0 | 0.00 | 0.00 | 0.00 | 32 | 1013.4 |
| 20260903181903 | 94 | 21 | 3.0 | 7.0 | 0.00 | 0.00 | 0.00 | 32 | 1013.3 |
| 20260903181803 | 94 | 2 | 3.0 | 7.0 | 0.00 | 0.00 | 0.00 | 32 | 1013.3 |
| 20260903181703 | 94 | 318 | 2.0 | 7.0 | 0.00 | 0.00 | 0.00 | 32 | 1013.4 |
| 20260903181603 | 94 | 311 | 2.0 | 6.0 | 0.00 | 0.00 | 0.00 | 32 | 1013.4 |
| 20260903181524 | 94 | 316 | 2.0 | 6.0 | 0.00 | 0.00 | 0.00 | 32 | 1013.4 |
| 20260903181403 | 94 | 296 | 2.0 | 9.0 | 0.00 | 0.00 | 0.00 | 32 | 1013.4 |
| 20260903181303 | 94 | 302 | 2.0 | 9.0 | 0.00 | 0.00 | 0.00 | 32 | 1013.4 |
| 20260903181203 | 94 | 302 | 3.0 | 9.0 | 0.00 | 0.00 | 0.00 | 32 | 1013.5 |
| 20260903181103 | 94 | 312 | 3.0 | 9.0 | 0.00 | 0.00 | 0.00 | 32 | 1013.5 |
| 20260903181003 | 94 | 320 | 3.0 | 9.0 | 0.00 | 0.00 | 0.00 | 32 | 1013.5 |
| 20260903180903 | 94 | 324 | 3.0 | 9.0 | 0.00 | 0.00 | 0.00 | 32 | 1013.5 |
| 20260903180803 | 94 | 326 | 3.0 | 9.0 | 0.00 | 0.00 | 0.00 | 31 | 1013.5 |
| 20260903180724 | 94 | 326 | 3.0 | 9.0 | 0.00 | 0.00 | 0.00 | 31 | 1013.5 |
| 20260903180603 | 94 | 318 | 3.0 | 9.0 | 0.00 | 0.00 | 0.00 | 31 | 1013.5 |
| 20260903180504 | 94 | 315 | 3.0 | 9.0 | 0.00 | 0.00 | 0.00 | 31 | 1013.5 |
| 20260903180403 | 94 | 314 | 4.0 | 7.0 | 0.00 | 0.00 | 0.00 | 31 | 1013.6 |
| 20260903180303 | 94 | 326 | 4.0 | 7.0 | 0.00 | 0.00 | 0.00 | 31 | 1013.6 |
| 20260903180203 | 94 | 340 | 4.0 | 7.0 | 0.00 | 0.00 | 0.00 | 31 | 1013.6 |
| 20260903180003 | 94 | 352 | 4.0 | 7.0 | 0.00 | 0.00 | 0.00 | 31 | 1013.6 |
| 20260903175903 | 94 | 358 | 4.0 | 7.0 | 0.00 | 0.00 | 0.00 | 31 | 1013.6 |
| 20260903175803 | 94 | 8 | 4.0 | 7.0 | 0.00 | 0.00 | 0.00 | 31 | 1013.7 |
| 20260903175703 | 94 | 15 | 4.0 | 7.0 | 0.00 | 0.00 | 0.00 | 31 | 1013.7 |
| 20260903175603 | 94 | 22 | 4.0 | 7.0 | 0.00 | 0.00 | 0.00 | 31 | 1013.7 |
| 20260903175524 | 94 | 23 | 4.0 | 7.0 | 0.00 | 0.00 | 0.00 | 31 | 1013.7 |
| 20260903175403 | 94 | 32 | 4.0 | 7.0 | 0.00 | 0.00 | 0.00 | 31 | 1013.7 |
| 20260903175306 | 94 | 33 | 3.0 | 7.0 | 0.00 | 0.00 | 0.00 | 30 | 1013.8 |
| 20260903175203 | 94 | 33 | 3.0 | 7.0 | 0.00 | 0.00 | 0.00 | 30 | 1013.8 |
| 20260903175103 | 94 | 27 | 3.0 | 7.0 | 0.00 | 0.00 | 0.00 | 30 | 1013.8 |
| 20260903175003 | 94 | 27 | 3.0 | 7.0 | 0.00 | 0.00 | 0.00 | 30 | 1013.9 |
| 20260903174903 | 94 | 28 | 3.0 | 7.0 | 0.00 | 0.00 | 0.00 | 30 | 1013.9 |
| 20260903174803 | 94 | 29 | 3.0 | 7.0 | 0.00 | 0.00 | 0.00 | 29 | 1013.9 |
| 20260903174703 | 95 | 31 | 3.0 | 6.0 | 0.00 | 0.00 | 0.00 | 29 | 1013.9 |
| 20260903174603 | 94 | 33 | 3.0 | 7.0 | 0.00 | 0.00 | 0.00 | 29 | 1014.0 |
| 20260903174524 | 94 | 37 | 4.0 | 9.0 | 0.00 | 0.00 | 0.00 | 29 | 1014.0 |
| 20260903174424 | 94 | 35 | 4.0 | 9.0 | 0.00 | 0.00 | 0.00 | 29 | 1014.0 |
| 20260903174324 | 94 | 28 | 4.0 | 9.0 | 0.00 | 0.00 | 0.00 | 29 | 1014.0 |
| 20260903174203 | 94 | 21 | 4.0 | 9.0 | 0.00 | 0.00 | 0.00 | 29 | 1014.0 |
| 20260903174103 | 94 | 21 | 4.0 | 9.0 | 0.00 | 0.00 | 0.00 | 29 | 1014.0 |
| 20260903174003 | 94 | 8 | 4.0 | 9.0 | 0.00 | 0.00 | 0.00 | 28 | 1014.0 |
| 20260903173903 | 94 | 4 | 4.0 | 9.0 | 0.00 | 0.00 | 0.00 | 29 | 1014.0 |
| 20260903173803 | 94 | 358 | 4.0 | 9.0 | 0.00 | 0.00 | 0.00 | 28 | 1014.0 |
| 20260903173724 | 94 | 350 | 5.0 | 9.0 | 0.00 | 0.00 | 0.00 | 28 | 1014.0 |
| 20260903173624 | 94 | 340 | 5.0 | 10.0 | 0.00 | 0.00 | 0.00 | 28 | 1014.0 |
| 20260903173503 | 94 | 327 | 4.0 | 10.0 | 0.00 | 0.00 | 0.00 | 27 | 1014.0 |
| 20260903173403 | 94 | 328 | 4.0 | 10.0 | 0.00 | 0.00 | 0.00 | 27 | 1014.1 |
| 20260903173303 | 94 | 337 | 4.0 | 10.0 | 0.00 | 0.00 | 0.00 | 27 | 1014.0 |
| 20260903173203 | 93 | 345 | 4.0 | 10.0 | 0.00 | 0.00 | 0.00 | 27 | 1014.0 |
| 20260903173124 | 93 | 350 | 4.0 | 10.0 | 0.00 | 0.00 | 0.00 | 27 | 1014.0 |
| 20260903173003 | 93 | 6 | 4.0 | 10.0 | 0.00 | 0.00 | 0.00 | 27 | 1014.1 |
| 20260903172903 | 93 | 14 | 4.0 | 10.0 | 0.00 | 0.00 | 0.00 | 27 | 1014.1 |
| 20260903172824 | 93 | 20 | 5.0 | 10.0 | 0.00 | 0.00 | 0.00 | 27 | 1014.0 |
| 20260903172703 | 93 | 29 | 5.0 | 11.0 | 0.00 | 0.00 | 0.00 | 27 | 1014.1 |
| 20260903172603 | 93 | 38 | 4.0 | 11.0 | 0.00 | 0.00 | 0.00 | 26 | 1014.1 |
| 20260903172503 | 93 | 41 | 5.0 | 11.0 | 0.00 | 0.00 | 0.00 | 26 | 1014.0 |
| 20260903172424 | 93 | 42 | 5.0 | 11.0 | 0.00 | 0.00 | 0.00 | 26 | 1014.0 |
| 20260903172306 | 93 | 45 | 5.0 | 11.0 | 0.00 | 0.00 | 0.00 | 26 | 1014.0 |
| 20260903172203 | 92 | 43 | 5.0 | 11.0 | 0.00 | 0.00 | 0.00 | 26 | 1014.0 |
| 20260903172124 | 92 | 44 | 5.0 | 11.0 | 0.00 | 0.00 | 0.00 | 26 | 1014.0 |
| 20260903172003 | 92 | 42 | 5.0 | 11.0 | 0.00 | 0.00 | 0.00 | 25 | 1014.0 |
| 20260903171924 | 92 | 41 | 5.0 | 11.0 | 0.00 | 0.00 | 0.00 | 25 | 1014.0 |
| 20260903171803 | 92 | 38 | 5.0 | 11.0 | 0.00 | 0.00 | 0.00 | 25 | 1014.0 |
| 20260903171703 | 92 | 37 | 4.0 | 11.0 | 0.00 | 0.00 | 0.00 | 25 | 1014.0 |
| 20260903171603 | 92 | 36 | 4.0 | 11.0 | 0.00 | 0.00 | 0.00 | 25 | 1014.0 |
| 20260903171524 | 92 | 36 | 4.0 | 11.0 | 0.00 | 0.00 | 0.00 | 24 | 1014.0 |
| 20260903171403 | 92 | 36 | 4.0 | 11.0 | 0.00 | 0.00 | 0.00 | 24 | 1014.0 |
| 20260903171303 | 92 | 41 | 4.0 | 11.0 | 0.00 | 0.00 | 0.00 | 24 | 1014.0 |
| 20260903171203 | 92 | 46 | 4.0 | 11.0 | 0.00 | 0.00 | 0.00 | 24 | 1014.0 |
| 20260903171103 | 92 | 48 | 4.0 | 10.0 | 0.00 | 0.00 | 0.00 | 23 | 1014.0 |
| 20260903171024 | 92 | 48 | 5.0 | 12.0 | 0.00 | 0.00 | 0.00 | 23 | 1014.0 |
| 20260903170903 | 91 | 51 | 5.0 | 13.0 | 0.00 | 0.00 | 0.00 | 23 | 1014.0 |
| 20260903170803 | 91 | 47 | 5.0 | 13.0 | 0.00 | 0.00 | 0.00 | 23 | 1014.0 |
| 20260903170703 | 91 | 50 | 5.0 | 13.0 | 0.00 | 0.00 | 0.00 | 23 | 1014.0 |
| 20260903170603 | 91 | 49 | 6.0 | 13.0 | 0.00 | 0.00 | 0.00 | 23 | 1014.0 |
| 20260903170503 | 91 | 48 | 6.0 | 13.0 | 0.00 | 0.00 | 0.00 | 23 | 1014.0 |
| 20260903170424 | 91 | 47 | 6.0 | 13.0 | 0.00 | 0.00 | 0.00 | 23 | 1014.0 |
| 20260903170303 | 91 | 44 | 6.0 | 13.0 | 0.00 | 0.00 | 0.00 | 23 | 1014.0 |
| 20260903170203 | 91 | 42 | 6.0 | 13.0 | 0.00 | 0.00 | 0.00 | 23 | 1014.0 |
| 20260903170103 | 92 | 39 | 6.0 | 13.0 | 0.00 | 0.00 | 0.00 | 23 | 1014.0 |
| 20260903170003 | 92 | 39 | 6.0 | 12.0 | 0.00 | 0.00 | 0.00 | 22 | 1014.0 |
| 20260903165903 | 91 | 37 | 6.0 | 12.0 | 0.00 | 0.00 | 0.00 | 22 | 1014.0 |
| 20260903165803 | 91 | 41 | 6.0 | 12.0 | 0.00 | 0.00 | 0.00 | 21 | 1014.0 |
| 20260903165703 | 91 | 38 | 6.0 | 12.0 | 0.00 | 0.00 | 0.00 | 21 | 1014.0 |
| 20260903165603 | 91 | 38 | 7.0 | 12.0 | 0.00 | 0.00 | 0.00 | 21 | 1014.0 |
| 20260903165503 | 91 | 38 | 7.0 | 14.0 | 0.00 | 0.00 | 0.00 | 21 | 1014.0 |
| 20260903165403 | 91 | 36 | 7.0 | 14.0 | 0.00 | 0.00 | 0.00 | 20 | 1014.0 |
| 20260903165305 | 91 | 35 | 8.0 | 14.0 | 0.00 | 0.00 | 0.00 | 21 | 1014.0 |
| 20260903165203 | 91 | 34 | 8.0 | 14.0 | 0.00 | 0.00 | 0.00 | 21 | 1014.0 |
| 20260903165103 | 91 | 33 | 8.0 | 14.0 | 0.00 | 0.00 | 0.00 | 21 | 1013.9 |
| 20260903165003 | 91 | 32 | 8.0 | 14.0 | 0.00 | 0.00 | 0.00 | 21 | 1014.0 |
| 20260903164924 | 91 | 30 | 8.0 | 14.0 | 0.00 | 0.00 | 0.00 | 21 | 1014.0 |
| 20260903164803 | 91 | 30 | 7.0 | 14.0 | 0.00 | 0.00 | 0.00 | 20 | 1013.9 |
| 20260903164703 | 91 | 30 | 7.0 | 14.0 | 0.00 | 0.00 | 0.00 | 21 | 1013.9 |
| 20260903164624 | 91 | 27 | 7.0 | 14.0 | 0.00 | 0.00 | 0.00 | 21 | 1014.0 |
| 20260903164503 | 91 | 28 | 7.0 | 14.0 | 0.00 | 0.00 | 0.00 | 20 | 1014.0 |
| 20260903164403 | 91 | 31 | 7.0 | 14.0 | 0.00 | 0.00 | 0.00 | 20 | 1013.9 |
| 20260903164303 | 91 | 33 | 6.0 | 13.0 | 0.00 | 0.00 | 0.00 | 19 | 1013.9 |
| 20260903164203 | 91 | 33 | 6.0 | 12.0 | 0.00 | 0.00 | 0.00 | 19 | 1013.9 |
| 20260903164103 | 91 | 35 | 6.0 | 12.0 | 0.00 | 0.00 | 0.00 | 18 | 1013.9 |
| 20260903164003 | 91 | 35 | 6.0 | 12.0 | 0.00 | 0.00 | 0.00 | 18 | 1014.0 |
| 20260903163903 | 91 | 37 | 6.0 | 12.0 | 0.00 | 0.00 | 0.00 | 17 | 1014.0 |
| 20260903163803 | 91 | 34 | 6.0 | 12.0 | 0.00 | 0.00 | 0.00 | 17 | 1014.0 |
| 20260903163703 | 91 | 36 | 6.0 | 12.0 | 0.00 | 0.00 | 0.00 | 16 | 1014.0 |
| 20260903163603 | 91 | 40 | 6.0 | 12.0 | 0.00 | 0.00 | 0.00 | 16 | 1014.0 |
| 20260903163503 | 91 | 40 | 6.0 | 15.0 | 0.00 | 0.00 | 0.00 | 15 | 1014.1 |
| 20260903163403 | 91 | 40 | 6.0 | 15.0 | 0.00 | 0.00 | 0.00 | 15 | 1014.1 |
| 20260903163303 | 91 | 40 | 6.0 | 15.0 | 0.00 | 0.00 | 0.00 | 14 | 1014.1 |
| 20260903163203 | 91 | 41 | 6.0 | 15.0 | 0.00 | 0.00 | 0.00 | 15 | 1014.1 |
| 20260903163124 | 91 | 39 | 6.0 | 15.0 | 0.00 | 0.00 | 0.00 | 14 | 1014.1 |
| 20260903163003 | 90 | 39 | 6.0 | 15.0 | 0.00 | 0.00 | 0.00 | 14 | 1014.1 |
| 20260903162905 | 90 | 43 | 7.0 | 15.0 | 0.00 | 0.00 | 0.00 | 14 | 1014.1 |
| 20260903162803 | 90 | 43 | 7.0 | 15.0 | 0.00 | 0.00 | 0.00 | 14 | 1014.1 |
| 20260903162703 | 90 | 43 | 8.0 | 15.0 | 0.00 | 0.00 | 0.00 | 14 | 1014.1 |
| 20260903162603 | 90 | 41 | 8.0 | 15.0 | 0.00 | 0.00 | 0.00 | 13 | 1014.1 |
| 20260903162503 | 90 | 41 | 8.0 | 14.0 | 0.00 | 0.00 | 0.00 | 12 | 1014.1 |
| 20260903162424 | 90 | 40 | 8.0 | 14.0 | 0.00 | 0.00 | 0.00 | 12 | 1014.1 |
| 20260903162306 | 90 | 37 | 8.0 | 14.0 | 0.00 | 0.00 | 0.00 | 12 | 1014.1 |
| 20260903162203 | 90 | 37 | 8.0 | 14.0 | 0.00 | 0.00 | 0.00 | 12 | 1014.0 |
| 20260903162103 | 90 | 37 | 8.0 | 14.0 | 0.00 | 0.00 | 0.00 | 13 | 1014.0 |
| 20260903162003 | 90 | 37 | 8.0 | 14.0 | 0.00 | 0.00 | 0.00 | 13 | 1014.0 |
| 20260903161903 | 90 | 36 | 8.0 | 14.0 | 0.00 | 0.00 | 0.00 | 13 | 1014.0 |
| 20260903161824 | 90 | 37 | 8.0 | 14.0 | 0.00 | 0.00 | 0.00 | 13 | 1014.1 |
| 20260903161703 | 90 | 37 | 8.0 | 14.0 | 0.00 | 0.00 | 0.00 | 13 | 1014.0 |
| 20260903161603 | 90 | 37 | 7.0 | 14.0 | 0.00 | 0.00 | 0.00 | 12 | 1014.0 |
| 20260903161503 | 90 | 35 | 7.0 | 14.0 | 0.00 | 0.00 | 0.00 | 10 | 1014.1 |
| 20260903161403 | 90 | 37 | 7.0 | 14.0 | 0.00 | 0.00 | 0.00 | 10 | 1014.0 |
| 20260903161324 | 90 | 38 | 7.0 | 14.0 | 0.00 | 0.00 | 0.00 | 10 | 1014.0 |
| 20260903161203 | 90 | 40 | 8.0 | 14.0 | 0.00 | 0.00 | 0.00 | 10 | 1014.0 |
| 20260903161103 | 90 | 41 | 7.0 | 14.0 | 0.00 | 0.00 | 0.00 | 10 | 1013.9 |
| 20260903161003 | 90 | 42 | 8.0 | 14.0 | 0.00 | 0.00 | 0.00 | 9 | 1014.0 |
| 20260903160903 | 90 | 45 | 8.0 | 14.0 | 0.00 | 0.00 | 0.00 | 8 | 1014.0 |
| 20260903160803 | 90 | 45 | 7.0 | 14.0 | 0.00 | 0.00 | 0.00 | 8 | 1013.9 |
| 20260903160703 | 90 | 47 | 8.0 | 14.0 | 0.00 | 0.00 | 0.00 | 8 | 1013.9 |
| 20260903160603 | 89 | 47 | 8.0 | 14.0 | 0.00 | 0.00 | 0.00 | 8 | 1013.9 |
| 20260903160524 | 89 | 48 | 8.0 | 14.0 | 0.00 | 0.00 | 0.00 | 6 | 1013.9 |
| 20260903160403 | 89 | 49 | 8.0 | 13.0 | 0.00 | 0.00 | 0.00 | 7 | 1013.9 |
| 20260903160303 | 89 | 47 | 7.0 | 18.0 | 0.00 | 0.00 | 0.00 | 7 | 1013.9 |
| 20260903160203 | 89 | 49 | 7.0 | 18.0 | 0.00 | 0.00 | 0.00 | 7 | 1014.0 |
| 20260903160003 | 89 | 47 | 8.0 | 18.0 | 0.00 | 0.00 | 0.00 | 8 | 1013.9 |
| 20260903155903 | 89 | 45 | 8.0 | 18.0 | 0.00 | 0.00 | 0.00 | 7 | 1013.9 |
| 20260903155803 | 89 | 42 | 9.0 | 21.0 | 0.00 | 0.00 | 0.00 | 6 | 1014.0 |
| 20260903155703 | 89 | 39 | 9.0 | 21.0 | 0.00 | 0.00 | 0.00 | 5 | 1014.0 |
| 20260903155603 | 89 | 39 | 9.0 | 21.0 | 0.00 | 0.00 | 0.00 | 4 | 1013.9 |
| 20260903155503 | 89 | 37 | 9.0 | 21.0 | 0.00 | 0.00 | 0.00 | 5 | 1013.9 |
| 20260903155403 | 89 | 35 | 9.0 | 21.0 | 0.00 | 0.00 | 0.00 | 5 | 1013.9 |
| 20260903155306 | 89 | 35 | 9.0 | 21.0 | 0.00 | 0.00 | 0.00 | 5 | 1013.9 |
| 20260903155203 | 89 | 33 | 9.0 | 21.0 | 0.00 | 0.00 | 0.00 | 5 | 1013.9 |
| 20260903155103 | 89 | 33 | 9.0 | 21.0 | 0.00 | 0.00 | 0.00 | 6 | 1013.9 |
| 20260903155024 | 89 | 31 | 9.0 | 21.0 | 0.00 | 0.00 | 0.00 | 5 | 1013.9 |
| 20260903154903 | 89 | 30 | 9.0 | 21.0 | 0.00 | 0.00 | 0.00 | 4 | 1013.8 |
| 20260903154824 | 89 | 33 | 8.0 | 19.0 | 0.00 | 0.00 | 0.00 | 2 | 1013.8 |
| 20260903154724 | 89 | 34 | 8.0 | 18.0 | 0.00 | 0.00 | 0.00 | 1 | 1013.8 |
| 20260903154603 | 89 | 33 | 8.0 | 18.0 | 0.00 | 0.00 | 0.00 | 1 | 1013.8 |
| 20260903154503 | 89 | 35 | 8.0 | 18.0 | 0.00 | 0.00 | 0.00 | 1 | 1013.9 |
| 20260903154403 | 89 | 37 | 8.0 | 18.0 | 0.00 | 0.00 | 0.00 | 1 | 1013.9 |
| 20260903154303 | 89 | 38 | 8.0 | 16.0 | 0.00 | 0.00 | 0.00 | 1 | 1013.9 |
| 20260903154224 | 88 | 38 | 8.0 | 16.0 | 0.00 | 0.00 | 0.00 | 1 | 1013.8 |
| 20260903154103 | 88 | 38 | 8.0 | 16.0 | 0.00 | 0.00 | 0.00 | 1 | 1013.8 |
| 20260903154003 | 88 | 37 | 8.0 | 15.0 | 0.00 | 0.00 | 0.00 | 1 | 1013.8 |
| 20260903153924 | 88 | 37 | 8.0 | 15.0 | 0.00 | 0.00 | 0.00 | 1 | 1013.8 |
| 20260903153803 | 88 | 37 | 8.0 | 15.0 | 0.00 | 0.00 | 0.00 | 1 | 1013.9 |
| 20260903153703 | 88 | 38 | 8.0 | 16.0 | 0.00 | 0.00 | 0.00 | 1 | 1013.8 |
| 20260903153603 | 88 | 39 | 8.0 | 16.0 | 0.00 | 0.00 | 0.00 | 1 | 1013.9 |
| 20260903153503 | 88 | 38 | 8.0 | 16.0 | 0.00 | 0.00 | 0.00 | 1 | 1013.9 |
| 20260903153403 | 87 | 38 | 9.0 | 16.0 | 0.00 | 0.00 | 0.00 | 1 | 1013.9 |
| 20260903153303 | 87 | 39 | 9.0 | 16.0 | 0.00 | 0.00 | 0.00 | 1 | 1013.9 |
| 20260903153224 | 87 | 39 | 9.0 | 16.0 | 0.00 | 0.00 | 0.00 | 1 | 1014.0 |
| 20260903153103 | 87 | 40 | 9.0 | 19.0 | 0.00 | 0.00 | 0.00 | 1 | 1014.0 |
| 20260903153003 | 87 | 42 | 9.0 | 19.0 | 0.00 | 0.00 | 0.00 | 1 | 1014.0 |
| 20260903152903 | 87 | 41 | 10.0 | 19.0 | 0.00 | 0.00 | 0.00 | 1 | 1014.0 |
| 20260903152803 | 87 | 41 | 9.0 | 19.0 | 0.00 | 0.00 | 0.00 | 1 | 1014.0 |
| 20260903152703 | 87 | 40 | 9.0 | 19.0 | 0.00 | 0.00 | 0.00 | 1 | 1014.0 |
| 20260903152603 | 87 | 40 | 9.0 | 19.0 | 0.00 | 0.00 | 0.00 | 1 | 1014.0 |
| 20260903152503 | 87 | 39 | 8.0 | 19.0 | 0.00 | 0.00 | 0.00 | 1 | 1014.0 |
| 20260903152403 | 87 | 36 | 8.0 | 19.0 | 0.00 | 0.00 | 0.00 | 1 | 1013.9 |
| 20260903152306 | 87 | 37 | 8.0 | 19.0 | 0.00 | 0.00 | 0.00 | 1 | 1014.0 |
| 20260903152203 | 87 | 39 | 8.0 | 19.0 | 0.00 | 0.00 | 0.00 | 1 | 1014.0 |
| 20260903152103 | 87 | 37 | 8.0 | 17.0 | 0.00 | 0.00 | 0.00 | 1 | 1014.0 |
| 20260903152003 | 87 | 37 | 8.0 | 17.0 | 0.00 | 0.00 | 0.00 | 1 | 1014.0 |
| 20260903151903 | 87 | 36 | 8.0 | 17.0 | 0.00 | 0.00 | 0.00 | 1 | 1014.0 |
| 20260903151803 | 87 | 35 | 8.0 | 17.0 | 0.00 | 0.00 | 0.00 | 1 | 1013.9 |
| 20260903151703 | 87 | 35 | 8.0 | 17.0 | 0.00 | 0.00 | 0.00 | 1 | 1013.9 |
| 20260903151603 | 87 | 35 | 8.0 | 17.0 | 0.00 | 0.00 | 0.00 | 1 | 1014.0 |
| 20260903151503 | 87 | 37 | 9.0 | 17.0 | 0.00 | 0.00 | 0.00 | 1 | 1014.0 |
| 20260903151403 | 87 | 37 | 9.0 | 17.0 | 0.00 | 0.00 | 0.00 | 1 | 1014.0 |
| 20260903151303 | 87 | 36 | 9.0 | 17.0 | 0.00 | 0.00 | 0.00 | 1 | 1013.9 |
| 20260903151203 | 87 | 35 | 9.0 | 15.0 | 0.00 | 0.00 | 0.00 | 1 | 1014.0 |
| 20260903151103 | 87 | 37 | 9.0 | 18.0 | 0.00 | 0.00 | 0.00 | 1 | 1014.0 |
| 20260903151003 | 87 | 36 | 9.0 | 18.0 | 0.00 | 0.00 | 0.00 | 1 | 1014.0 |
| 20260903150903 | 87 | 38 | 10.0 | 18.0 | 0.00 | 0.00 | 0.00 | 1 | 1014.0 |
| 20260903150803 | 87 | 40 | 10.0 | 18.0 | 0.00 | 0.00 | 0.00 | 1 | 1014.0 |
| 20260903150703 | 87 | 40 | 10.0 | 18.0 | 0.00 | 0.00 | 0.00 | 1 | 1014.0 |
| 20260903150603 | 87 | 40 | 9.0 | 18.0 | 0.00 | 0.00 | 0.00 | 1 | 1014.0 |
| 20260903150503 | 87 | 40 | 10.0 | 18.0 | 0.00 | 0.00 | 0.00 | 1 | 1014.1 |
| 20260903150403 | 87 | 43 | 9.0 | 18.0 | 0.00 | 0.00 | 0.00 | 1 | 1014.0 |
| 20260903150303 | 87 | 42 | 10.0 | 18.0 | 0.00 | 0.00 | 0.00 | 1 | 1014.0 |
| 20260903150203 | 87 | 42 | 9.0 | 18.0 | 0.00 | 0.00 | 0.00 | 1 | 1014.0 |
| 20260903150024 | 87 | 45 | 9.0 | 17.0 | 0.00 | 0.00 | 0.00 | 1 | 1014.0 |
| 20260903145903 | 87 | 45 | 9.0 | 16.0 | 0.00 | 0.00 | 0.00 | 1 | 1014.0 |
| 20260903145803 | 87 | 45 | 9.0 | 16.0 | 0.00 | 0.00 | 0.00 | 1 | 1014.0 |
| 20260903145703 | 87 | 47 | 9.0 | 16.0 | 0.00 | 0.00 | 0.00 | 1 | 1014.0 |
| 20260903145603 | 87 | 49 | 9.0 | 16.0 | 0.00 | 0.00 | 0.00 | 1 | 1014.1 |
| 20260903145503 | 87 | 49 | 9.0 | 16.0 | 0.00 | 0.00 | 0.00 | 1 | 1014.0 |
| 20260903145424 | 87 | 50 | 10.0 | 16.0 | 0.00 | 0.00 | 0.00 | 1 | 1014.0 |
| 20260903145305 | 87 | 52 | 10.0 | 16.0 | 0.00 | 0.00 | 0.00 | 1 | 1014.1 |
| 20260903145203 | 87 | 50 | 10.0 | 17.0 | 0.00 | 0.00 | 0.00 | 1 | 1014.0 |
| 20260903145103 | 87 | 49 | 10.0 | 17.0 | 0.00 | 0.00 | 0.00 | 1 | 1014.0 |
| 20260903145003 | 87 | 48 | 10.0 | 19.0 | 0.00 | 0.00 | 0.00 | 1 | 1014.1 |
| 20260903144903 | 86 | 48 | 10.0 | 19.0 | 0.00 | 0.00 | 0.00 | 1 | 1014.1 |
| 20260903144805 | 86 | 46 | 10.0 | 19.0 | 0.00 | 0.00 | 0.00 | 1 | 1014.0 |
| 20260903144703 | 86 | 44 | 10.0 | 19.0 | 0.00 | 0.00 | 0.00 | 1 | 1014.0 |
| 20260903144624 | 86 | 43 | 11.0 | 19.0 | 0.00 | 0.00 | 0.00 | 1 | 1014.0 |
| 20260903144503 | 86 | 42 | 10.0 | 19.0 | 0.00 | 0.00 | 0.00 | 1 | 1014.0 |
| 20260903144424 | 86 | 41 | 10.0 | 19.0 | 0.00 | 0.00 | 0.00 | 1 | 1014.0 |
| 20260903144303 | 86 | 41 | 10.0 | 19.0 | 0.00 | 0.00 | 0.00 | 1 | 1014.0 |
| 20260903144203 | 86 | 42 | 10.0 | 19.0 | 0.00 | 0.00 | 0.00 | 1 | 1014.0 |
| 20260903144103 | 86 | 42 | 10.0 | 19.0 | 0.00 | 0.00 | 0.00 | 1 | 1014.0 |
| 20260903144003 | 86 | 43 | 9.0 | 18.0 | 0.00 | 0.00 | 0.00 | 1 | 1014.0 |
| 20260903143903 | 86 | 44 | 10.0 | 18.0 | 0.00 | 0.00 | 0.00 | 1 | 1014.0 |
| 20260903143803 | 86 | 44 | 9.0 | 18.0 | 0.00 | 0.00 | 0.00 | 1 | 1014.0 |
| 20260903143703 | 86 | 44 | 9.0 | 18.0 | 0.00 | 0.00 | 0.00 | 1 | 1014.0 |
| 20260903143603 | 86 | 45 | 9.0 | 18.0 | 0.00 | 0.00 | 0.00 | 1 | 1014.0 |
| 20260903143503 | 86 | 43 | 10.0 | 21.0 | 0.00 | 0.00 | 0.00 | 1 | 1013.9 |
| 20260903143403 | 86 | 40 | 10.0 | 21.0 | 0.00 | 0.00 | 0.00 | 1 | 1013.9 |
| 20260903143303 | 86 | 41 | 10.0 | 21.0 | 0.00 | 0.00 | 0.00 | 1 | 1013.9 |
| 20260903143203 | 85 | 40 | 10.0 | 21.0 | 0.00 | 0.00 | 0.00 | 1 | 1013.9 |
| 20260903143103 | 85 | 40 | 10.0 | 21.0 | 0.00 | 0.00 | 0.00 | 1 | 1013.9 |
| 20260903143003 | 85 | 40 | 9.0 | 21.0 | 0.00 | 0.00 | 0.00 | 1 | 1013.8 |
| 20260903142903 | 85 | 40 | 9.0 | 21.0 | 0.00 | 0.00 | 0.00 | 1 | 1013.8 |
| 20260903142803 | 85 | 41 | 9.0 | 21.0 | 0.00 | 0.00 | 0.00 | 1 | 1013.9 |
| 20260903142703 | 85 | 41 | 8.0 | 21.0 | 0.00 | 0.00 | 0.00 | 1 | 1013.9 |
| 20260903142603 | 85 | 41 | 8.0 | 21.0 | 0.00 | 0.00 | 0.00 | 1 | 1013.9 |
| 20260903142503 | 85 | 43 | 8.0 | 18.0 | 0.00 | 0.00 | 0.00 | 1 | 1013.8 |
| 20260903142403 | 85 | 46 | 8.0 | 15.0 | 0.00 | 0.00 | 0.00 | 1 | 1013.9 |
| 20260903142306 | 85 | 43 | 8.0 | 17.0 | 0.00 | 0.00 | 0.00 | 1 | 1013.9 |
| 20260903142203 | 85 | 44 | 8.0 | 17.0 | 0.00 | 0.00 | 0.00 | 1 | 1013.9 |
| 20260903142103 | 85 | 44 | 8.0 | 17.0 | 0.00 | 0.00 | 0.00 | 1 | 1013.8 |
| 20260903142003 | 85 | 44 | 8.0 | 17.0 | 0.00 | 0.00 | 0.00 | 1 | 1013.8 |
| 20260903141903 | 85 | 44 | 8.0 | 17.0 | 0.00 | 0.00 | 0.00 | 1 | 1013.8 |
| 20260903141803 | 84 | 42 | 9.0 | 17.0 | 0.00 | 0.00 | 0.00 | 1 | 1013.8 |
| 20260903141703 | 84 | 44 | 9.0 | 17.0 | 0.00 | 0.00 | 0.00 | 1 | 1013.8 |
| 20260903141603 | 84 | 45 | 8.0 | 17.0 | 0.00 | 0.00 | 0.00 | 1 | 1013.8 |
| 20260903141503 | 84 | 45 | 9.0 | 17.0 | 0.00 | 0.00 | 0.00 | 1 | 1013.8 |
| 20260903141403 | 84 | 46 | 8.0 | 17.0 | 0.00 | 0.00 | 0.00 | 1 | 1013.8 |
| 20260903141303 | 84 | 47 | 8.0 | 17.0 | 0.00 | 0.00 | 0.00 | 1 | 1013.8 |
| 20260903141203 | 84 | 46 | 8.0 | 15.0 | 0.00 | 0.00 | 0.00 | 1 | 1013.8 |
| 20260903141124 | 84 | 46 | 8.0 | 15.0 | 0.00 | 0.00 | 0.00 | 1 | 1013.8 |
| 20260903141024 | 84 | 45 | 8.0 | 15.0 | 0.00 | 0.00 | 0.00 | 1 | 1013.8 |
| 20260903140903 | 84 | 45 | 8.0 | 15.0 | 0.00 | 0.00 | 0.00 | 1 | 1013.8 |
| 20260903140803 | 84 | 47 | 8.0 | 15.0 | 0.00 | 0.00 | 0.00 | 1 | 1013.9 |
| 20260903140703 | 84 | 46 | 9.0 | 15.0 | 0.00 | 0.00 | 0.00 | 1 | 1013.8 |
| 20260903140603 | 84 | 45 | 9.0 | 16.0 | 0.00 | 0.00 | 0.00 | 1 | 1013.8 |
| 20260903140503 | 84 | 44 | 10.0 | 18.0 | 0.00 | 0.00 | 0.00 | 1 | 1013.9 |
| 20260903140403 | 83 | 46 | 10.0 | 19.0 | 0.00 | 0.00 | 0.00 | 1 | 1013.9 |
| 20260903140303 | 83 | 47 | 10.0 | 19.0 | 0.00 | 0.00 | 0.00 | 1 | 1013.9 |
| 20260903140203 | 83 | 47 | 10.0 | 19.0 | 0.00 | 0.00 | 0.00 | 1 | 1013.9 |
| 20260903140003 | 83 | 46 | 10.0 | 19.0 | 0.00 | 0.00 | 0.00 | 1 | 1013.9 |
| 20260903135903 | 83 | 46 | 10.0 | 19.0 | 0.00 | 0.00 | 0.00 | 1 | 1013.8 |
| 20260903135803 | 83 | 45 | 10.0 | 19.0 | 0.00 | 0.00 | 0.00 | 1 | 1013.9 |
| 20260903135703 | 83 | 45 | 10.0 | 19.0 | 0.00 | 0.00 | 0.00 | 1 | 1013.8 |
| 20260903135603 | 83 | 46 | 11.0 | 19.0 | 0.00 | 0.00 | 0.00 | 1 | 1013.8 |
| 20260903135524 | 83 | 46 | 10.0 | 19.0 | 0.00 | 0.00 | 0.00 | 1 | 1013.8 |
| 20260903135424 | 83 | 45 | 10.0 | 19.0 | 0.00 | 0.00 | 0.00 | 1 | 1013.8 |
| 20260903135306 | 83 | 43 | 10.0 | 19.0 | 0.00 | 0.00 | 0.00 | 1 | 1013.9 |
| 20260903135203 | 83 | 44 | 10.0 | 19.0 | 0.00 | 0.00 | 0.00 | 1 | 1013.9 |
| 20260903135103 | 83 | 44 | 11.0 | 19.0 | 0.00 | 0.00 | 0.00 | 1 | 1013.9 |
| 20260903135003 | 83 | 44 | 10.0 | 19.0 | 0.00 | 0.00 | 0.00 | 1 | 1013.9 |
| 20260903134903 | 83 | 44 | 11.0 | 19.0 | 0.00 | 0.00 | 0.00 | 1 | 1013.9 |
| 20260903134724 | 83 | 43 | 11.0 | 19.0 | 0.00 | 0.00 | 0.00 | 1 | 1014.0 |
| 20260903134624 | 83 | 42 | 10.0 | 19.0 | 0.00 | 0.00 | 0.00 | 1 | 1013.9 |
| 20260903134503 | 83 | 43 | 10.0 | 18.0 | 0.00 | 0.00 | 0.00 | 1 | 1013.8 |
| 20260903134403 | 83 | 42 | 10.0 | 18.0 | 0.00 | 0.00 | 0.00 | 1 | 1013.9 |
| 20260903134303 | 83 | 39 | 10.0 | 18.0 | 0.00 | 0.00 | 0.00 | 1 | 1013.9 |
| 20260903134203 | 83 | 39 | 10.0 | 18.0 | 0.00 | 0.00 | 0.00 | 1 | 1013.9 |
| 20260903134124 | 83 | 39 | 10.0 | 18.0 | 0.00 | 0.00 | 0.00 | 1 | 1013.8 |
| 20260903134003 | 83 | 40 | 9.0 | 18.0 | 0.00 | 0.00 | 0.00 | 1 | 1013.8 |
| 20260903133903 | 83 | 39 | 9.0 | 18.0 | 0.00 | 0.00 | 0.00 | 1 | 1013.8 |
| 20260903133824 | 83 | 39 | 9.0 | 16.0 | 0.00 | 0.00 | 0.00 | 1 | 1013.8 |
| 20260903133726 | 83 | 38 | 8.0 | 16.0 | 0.00 | 0.00 | 0.00 | 1 | 1013.9 |
| 20260903133603 | 83 | 38 | 8.0 | 16.0 | 0.00 | 0.00 | 0.00 | 1 | 1013.9 |
| 20260903133503 | 83 | 38 | 7.0 | 16.0 | 0.00 | 0.00 | 0.00 | 1 | 1013.9 |
| 20260903133403 | 83 | 41 | 7.0 | 16.0 | 0.00 | 0.00 | 0.00 | 1 | 1013.9 |
| 20260903133303 | 82 | 44 | 7.0 | 16.0 | 0.00 | 0.00 | 0.00 | 1 | 1013.8 |
| 20260903133203 | 82 | 45 | 6.0 | 15.0 | 0.00 | 0.00 | 0.00 | 1 | 1013.9 |
| 20260903133103 | 82 | 44 | 6.0 | 15.0 | 0.00 | 0.00 | 0.00 | 1 | 1013.9 |
| 20260903133003 | 82 | 44 | 6.0 | 15.0 | 0.00 | 0.00 | 0.00 | 1 | 1013.9 |
| 20260903132903 | 82 | 45 | 6.0 | 15.0 | 0.00 | 0.00 | 0.00 | 1 | 1013.9 |
| 20260903132803 | 82 | 45 | 5.0 | 13.0 | 0.00 | 0.00 | 0.00 | 1 | 1013.9 |
| 20260903132703 | 82 | 46 | 6.0 | 13.0 | 0.00 | 0.00 | 0.00 | 1 | 1013.9 |
| 20260903132603 | 82 | 47 | 6.0 | 13.0 | 0.00 | 0.00 | 0.00 | 1 | 1013.9 |
| 20260903132503 | 82 | 48 | 6.0 | 13.0 | 0.00 | 0.00 | 0.00 | 1 | 1014.0 |
| 20260903132403 | 82 | 46 | 6.0 | 14.0 | 0.00 | 0.00 | 0.00 | 1 | 1014.0 |
| 20260903132324 | 82 | 46 | 6.0 | 14.0 | 0.00 | 0.00 | 0.00 | 1 | 1014.0 |
| 20260903132203 | 82 | 45 | 6.0 | 14.0 | 0.00 | 0.00 | 0.00 | 1 | 1013.9 |
| 20260903132124 | 82 | 46 | 6.0 | 14.0 | 0.00 | 0.00 | 0.00 | 1 | 1013.9 |
| 20260903132003 | 82 | 45 | 6.0 | 14.0 | 0.00 | 0.00 | 0.00 | 1 | 1014.0 |
| 20260903131903 | 81 | 44 | 7.0 | 14.0 | 0.00 | 0.00 | 0.00 | 1 | 1014.0 |
| 20260903131803 | 81 | 43 | 7.0 | 14.0 | 0.00 | 0.00 | 0.00 | 1 | 1013.9 |
| 20260903131703 | 81 | 43 | 7.0 | 14.0 | 0.00 | 0.00 | 0.00 | 1 | 1014.0 |
| 20260903131603 | 81 | 41 | 7.0 | 14.0 | 0.00 | 0.00 | 0.00 | 1 | 1014.0 |
| 20260903131503 | 81 | 40 | 7.0 | 14.0 | 0.00 | 0.00 | 0.00 | 1 | 1014.0 |
| 20260903131403 | 81 | 38 | 7.0 | 14.0 | 0.00 | 0.00 | 0.00 | 1 | 1014.0 |
| 20260903131303 | 81 | 38 | 6.0 | 14.0 | 0.00 | 0.00 | 0.00 | 1 | 1014.0 |
| 20260903131203 | 81 | 37 | 7.0 | 14.0 | 0.00 | 0.00 | 0.00 | 1 | 1014.0 |
| 20260903131103 | 81 | 39 | 7.0 | 14.0 | 0.00 | 0.00 | 0.00 | 1 | 1014.0 |
| 20260903131003 | 81 | 39 | 7.0 | 15.0 | 0.00 | 0.00 | 0.00 | 1 | 1014.0 |
| 20260903130903 | 81 | 38 | 7.0 | 15.0 | 0.00 | 0.00 | 0.00 | 1 | 1014.0 |
| 20260903130803 | 81 | 40 | 7.0 | 15.0 | 0.00 | 0.00 | 0.00 | 1 | 1014.0 |
| 20260903130724 | 81 | 39 | 7.0 | 15.0 | 0.00 | 0.00 | 0.00 | 1 | 1014.0 |
| 20260903130603 | 81 | 39 | 7.0 | 15.0 | 0.00 | 0.00 | 0.00 | 1 | 1014.0 |
| 20260903130503 | 81 | 38 | 7.0 | 15.0 | 0.00 | 0.00 | 0.00 | 1 | 1014.0 |
| 20260903130403 | 81 | 39 | 7.0 | 15.0 | 0.00 | 0.00 | 0.00 | 1 | 1014.0 |
| 20260903130303 | 81 | 39 | 7.0 | 15.0 | 0.00 | 0.00 | 0.00 | 1 | 1013.9 |
| 20260903130203 | 81 | 40 | 7.0 | 15.0 | 0.00 | 0.00 | 0.00 | 1 | 1014.0 |
| 20260903130003 | 81 | 39 | 7.0 | 14.0 | 0.00 | 0.00 | 0.00 | 1 | 1014.0 |
| 20260903125903 | 81 | 38 | 7.0 | 14.0 | 0.00 | 0.00 | 0.00 | 1 | 1014.0 |
| 20260903125824 | 81 | 39 | 7.0 | 14.0 | 0.00 | 0.00 | 0.00 | 1 | 1013.9 |
| 20260903125724 | 81 | 39 | 7.0 | 13.0 | 0.00 | 0.00 | 0.00 | 1 | 1014.0 |
| 20260903125603 | 81 | 40 | 7.0 | 13.0 | 0.00 | 0.00 | 0.00 | 1 | 1014.0 |
| 20260903125503 | 81 | 42 | 7.0 | 13.0 | 0.00 | 0.00 | 0.00 | 1 | 1013.9 |
| 20260903125403 | 81 | 42 | 7.0 | 13.0 | 0.00 | 0.00 | 0.00 | 1 | 1013.9 |
| 20260903125324 | 81 | 42 | 7.0 | 13.0 | 0.00 | 0.00 | 0.00 | 1 | 1013.9 |
| 20260903125203 | 81 | 40 | 7.0 | 13.0 | 0.00 | 0.00 | 0.00 | 1 | 1013.9 |
| 20260903125103 | 81 | 40 | 7.0 | 13.0 | 0.00 | 0.00 | 0.00 | 1 | 1013.9 |
| 20260903125003 | 81 | 39 | 7.0 | 13.0 | 0.00 | 0.00 | 0.00 | 1 | 1013.9 |
| 20260903124903 | 81 | 40 | 7.0 | 13.0 | 0.00 | 0.00 | 0.00 | 1 | 1013.8 |
| 20260903124803 | 81 | 41 | 6.0 | 13.0 | 0.00 | 0.00 | 0.00 | 1 | 1013.8 |
| 20260903124703 | 81 | 43 | 7.0 | 13.0 | 0.00 | 0.00 | 0.00 | 1 | 1013.8 |
| 20260903124624 | 81 | 42 | 7.0 | 13.0 | 0.00 | 0.00 | 0.00 | 1 | 1013.8 |
| 20260903124503 | 81 | 41 | 6.0 | 13.0 | 0.00 | 0.00 | 0.00 | 1 | 1013.8 |
| 20260903124403 | 81 | 42 | 6.0 | 13.0 | 0.00 | 0.00 | 0.00 | 1 | 1013.8 |
| 20260903124303 | 81 | 44 | 7.0 | 13.0 | 0.00 | 0.00 | 0.00 | 1 | 1013.8 |
| 20260903124203 | 81 | 43 | 7.0 | 13.0 | 0.00 | 0.00 | 0.00 | 1 | 1013.8 |
| 20260903124124 | 81 | 44 | 7.0 | 13.0 | 0.00 | 0.00 | 0.00 | 1 | 1013.8 |
| 20260903124003 | 81 | 45 | 7.0 | 13.0 | 0.00 | 0.00 | 0.00 | 1 | 1013.8 |
| 20260903123903 | 81 | 43 | 7.0 | 13.0 | 0.00 | 0.00 | 0.00 | 1 | 1013.8 |
| 20260903123803 | 81 | 42 | 7.0 | 13.0 | 0.00 | 0.00 | 0.00 | 1 | 1013.8 |
| 20260903123703 | 81 | 41 | 7.0 | 13.0 | 0.00 | 0.00 | 0.00 | 1 | 1013.8 |
| 20260903123624 | 81 | 42 | 7.0 | 13.0 | 0.00 | 0.00 | 0.00 | 1 | 1013.8 |
| 20260903123503 | 81 | 42 | 7.0 | 13.0 | 0.00 | 0.00 | 0.00 | 1 | 1013.8 |
| 20260903123403 | 81 | 42 | 7.0 | 13.0 | 0.00 | 0.00 | 0.00 | 1 | 1013.7 |
| 20260903123324 | 81 | 41 | 7.0 | 14.0 | 0.00 | 0.00 | 0.00 | 1 | 1013.7 |
| 20260903123203 | 81 | 40 | 7.0 | 14.0 | 0.00 | 0.00 | 0.00 | 1 | 1013.7 |
| 20260903123124 | 81 | 41 | 7.0 | 14.0 | 0.00 | 0.00 | 0.00 | 1 | 1013.7 |
| 20260903123003 | 81 | 40 | 7.0 | 14.0 | 0.00 | 0.00 | 0.00 | 1 | 1013.7 |
| 20260903122903 | 81 | 41 | 7.0 | 14.0 | 0.00 | 0.00 | 0.00 | 1 | 1013.7 |
| 20260903122824 | 81 | 41 | 7.0 | 14.0 | 0.00 | 0.00 | 0.00 | 1 | 1013.8 |
| 20260903122703 | 81 | 40 | 7.0 | 14.0 | 0.00 | 0.00 | 0.00 | 1 | 1013.6 |
| 20260903122603 | 81 | 40 | 7.0 | 14.0 | 0.00 | 0.00 | 0.00 | 1 | 1013.7 |
| 20260903122524 | 81 | 39 | 7.0 | 14.0 | 0.00 | 0.00 | 0.00 | 1 | 1013.6 |
| 20260903122403 | 81 | 39 | 7.0 | 14.0 | 0.00 | 0.00 | 0.00 | 1 | 1013.7 |
| 20260903122305 | 81 | 40 | 7.0 | 13.0 | 0.00 | 0.00 | 0.00 | 1 | 1013.6 |
| 20260903122203 | 81 | 40 | 7.0 | 13.0 | 0.00 | 0.00 | 0.00 | 1 | 1013.6 |
| 20260903122103 | 81 | 40 | 7.0 | 13.0 | 0.00 | 0.00 | 0.00 | 1 | 1013.6 |
| 20260903122003 | 81 | 42 | 7.0 | 13.0 | 0.00 | 0.00 | 0.00 | 1 | 1013.6 |
| 20260903121903 | 81 | 44 | 7.0 | 13.0 | 0.00 | 0.00 | 0.00 | 1 | 1013.6 |
| 20260903121803 | 81 | 44 | 7.0 | 14.0 | 0.00 | 0.00 | 0.00 | 1 | 1013.6 |
| 20260903121703 | 81 | 44 | 7.0 | 14.0 | 0.00 | 0.00 | 0.00 | 1 | 1013.6 |
| 20260903121624 | 81 | 43 | 7.0 | 14.0 | 0.00 | 0.00 | 0.00 | 1 | 1013.6 |
| 20260903121524 | 81 | 44 | 6.0 | 14.0 | 0.00 | 0.00 | 0.00 | 1 | 1013.6 |
| 20260903121403 | 81 | 44 | 6.0 | 14.0 | 0.00 | 0.00 | 0.00 | 1 | 1013.7 |
| 20260903121324 | 80 | 45 | 6.0 | 14.0 | 0.00 | 0.00 | 0.00 | 1 | 1013.6 |
| 20260903121203 | 80 | 44 | 6.0 | 14.0 | 0.00 | 0.00 | 0.00 | 1 | 1013.6 |
| 20260903121103 | 80 | 43 | 6.0 | 14.0 | 0.00 | 0.00 | 0.00 | 1 | 1013.6 |
| 20260903121003 | 80 | 42 | 5.0 | 14.0 | 0.00 | 0.00 | 0.00 | 1 | 1013.6 |
| 20260903120903 | 80 | 41 | 5.0 | 14.0 | 0.00 | 0.00 | 0.00 | 1 | 1013.6 |
| 20260903120803 | 80 | 40 | 5.0 | 11.0 | 0.00 | 0.00 | 0.00 | 1 | 1013.6 |
| 20260903120703 | 80 | 40 | 5.0 | 11.0 | 0.00 | 0.00 | 0.00 | 1 | 1013.6 |
| 20260903120603 | 80 | 39 | 5.0 | 10.0 | 0.00 | 0.00 | 0.00 | 1 | 1013.6 |
| 20260903120503 | 80 | 37 | 6.0 | 12.0 | 0.00 | 0.00 | 0.00 | 1 | 1013.7 |
| 20260903120403 | 80 | 39 | 6.0 | 12.0 | 0.00 | 0.00 | 0.00 | 1 | 1013.7 |
| 20260903120303 | 80 | 39 | 5.0 | 12.0 | 0.00 | 0.00 | 0.00 | 1 | 1013.6 |
| 20260903120224 | 80 | 38 | 5.0 | 12.0 | 0.00 | 0.00 | 0.00 | 1 | 1013.6 |
| 20260903120003 | 80 | 39 | 6.0 | 12.0 | 0.00 | 0.00 | 0.00 | 1 | 1013.6 |
| 20260903115903 | 80 | 39 | 6.0 | 12.0 | 0.00 | 0.00 | 0.00 | 1 | 1013.5 |
| 20260903115803 | 80 | 40 | 6.0 | 12.0 | 0.00 | 0.00 | 0.00 | 1 | 1013.5 |
| 20260903115703 | 80 | 40 | 6.0 | 12.0 | 0.00 | 0.00 | 0.00 | 1 | 1013.5 |
| 20260903115603 | 80 | 42 | 5.0 | 12.0 | 0.00 | 0.00 | 0.00 | 1 | 1013.5 |
| 20260903115524 | 80 | 43 | 5.0 | 12.0 | 0.00 | 0.00 | 0.00 | 1 | 1013.5 |
| 20260903115403 | 80 | 43 | 5.0 | 10.0 | 0.00 | 0.00 | 0.00 | 1 | 1013.5 |
| 20260903115324 | 80 | 44 | 5.0 | 10.0 | 0.00 | 0.00 | 0.00 | 1 | 1013.5 |
| 20260903115203 | 80 | 44 | 5.0 | 10.0 | 0.00 | 0.00 | 0.00 | 1 | 1013.6 |
| 20260903115103 | 80 | 46 | 4.0 | 10.0 | 0.00 | 0.00 | 0.00 | 1 | 1013.5 |
| 20260903115003 | 80 | 47 | 4.0 | 10.0 | 0.00 | 0.00 | 0.00 | 1 | 1013.5 |
| 20260903114903 | 80 | 48 | 4.0 | 8.0 | 0.00 | 0.00 | 0.00 | 1 | 1013.5 |
| 20260903114803 | 80 | 50 | 4.0 | 8.0 | 0.00 | 0.00 | 0.00 | 1 | 1013.5 |
| 20260903114703 | 80 | 51 | 4.0 | 8.0 | 0.00 | 0.00 | 0.00 | 1 | 1013.6 |
| 20260903114603 | 80 | 52 | 4.0 | 8.0 | 0.00 | 0.00 | 0.00 | 1 | 1013.5 |
| 20260903114503 | 80 | 53 | 4.0 | 8.0 | 0.00 | 0.00 | 0.00 | 1 | 1013.5 |
| 20260903114403 | 80 | 52 | 4.0 | 8.0 | 0.00 | 0.00 | 0.00 | 1 | 1013.5 |
| 20260903114303 | 80 | 50 | 4.0 | 8.0 | 0.00 | 0.00 | 0.00 | 1 | 1013.5 |
| 20260903114203 | 80 | 50 | 3.0 | 7.0 | 0.00 | 0.00 | 0.00 | 1 | 1013.5 |
| 20260903114104 | 80 | 47 | 4.0 | 8.0 | 0.00 | 0.00 | 0.00 | 1 | 1013.5 |
| 20260903114004 | 80 | 46 | 4.0 | 8.0 | 0.00 | 0.00 | 0.00 | 1 | 1013.5 |
| 20260903113904 | 80 | 42 | 4.0 | 10.0 | 0.00 | 0.00 | 0.00 | 1 | 1013.5 |
| 20260903113804 | 80 | 40 | 4.0 | 12.0 | 0.00 | 0.00 | 0.00 | 1 | 1013.5 |
| 20260903113704 | 80 | 39 | 5.0 | 12.0 | 0.00 | 0.00 | 0.00 | 1 | 1013.5 |
| 20260903113625 | 80 | 36 | 5.0 | 12.0 | 0.00 | 0.00 | 0.00 | 1 | 1013.5 |
| 20260903113504 | 80 | 31 | 5.0 | 12.0 | 0.00 | 0.00 | 0.00 | 1 | 1013.5 |
| 20260903113405 | 81 | 30 | 5.0 | 12.0 | 0.00 | 0.00 | 0.00 | 1 | 1013.5 |
| 20260903113325 | 81 | 30 | 5.0 | 12.0 | 0.00 | 0.00 | 0.00 | 1 | 1013.5 |
| 20260903113225 | 81 | 30 | 5.0 | 12.0 | 0.00 | 0.00 | 0.00 | 1 | 1013.4 |
| 20260903113104 | 81 | 29 | 5.0 | 12.0 | 0.00 | 0.00 | 0.00 | 1 | 1013.5 |
| 20260903113025 | 81 | 30 | 5.0 | 12.0 | 0.00 | 0.00 | 0.00 | 1 | 1013.5 |
| 20260903112925 | 81 | 32 | 5.0 | 12.0 | 0.00 | 0.00 | 0.00 | 1 | 1013.5 |
| 20260903112804 | 81 | 32 | 6.0 | 13.0 | 0.00 | 0.00 | 0.00 | 1 | 1013.5 |
| 20260903112704 | 81 | 34 | 5.0 | 13.0 | 0.00 | 0.00 | 0.00 | 1 | 1013.5 |
| 20260903112604 | 81 | 35 | 5.0 | 13.0 | 0.00 | 0.00 | 0.00 | 1 | 1013.5 |
| 20260903112505 | 81 | 38 | 5.0 | 13.0 | 0.00 | 0.00 | 0.00 | 1 | 1013.5 |
| 20260903112425 | 81 | 40 | 5.0 | 13.0 | 0.00 | 0.00 | 0.00 | 1 | 1013.5 |
| 20260903112305 | 81 | 40 | 5.0 | 13.0 | 0.00 | 0.00 | 0.00 | 1 | 1013.5 |
| 20260903112205 | 81 | 41 | 5.0 | 13.0 | 0.00 | 0.00 | 0.00 | 1 | 1013.5 |
| 20260903112104 | 81 | 43 | 5.0 | 13.0 | 0.00 | 0.00 | 0.00 | 1 | 1013.5 |
| 20260903112025 | 81 | 41 | 5.0 | 13.0 | 0.00 | 0.00 | 0.00 | 1 | 1013.5 |
| 20260903111904 | 81 | 40 | 5.0 | 13.0 | 0.00 | 0.00 | 0.00 | 1 | 1013.5 |
| 20260903111804 | 81 | 38 | 5.0 | 11.0 | 0.00 | 0.00 | 0.00 | 1 | 1013.5 |
| 20260903111725 | 81 | 36 | 5.0 | 11.0 | 0.00 | 0.00 | 0.00 | 1 | 1013.4 |
| 20260903111604 | 81 | 36 | 5.0 | 11.0 | 0.00 | 0.00 | 0.00 | 1 | 1013.4 |
| 20260903111504 | 81 | 35 | 5.0 | 11.0 | 0.00 | 0.00 | 0.00 | 1 | 1013.4 |
| 20260903111404 | 81 | 35 | 6.0 | 14.0 | 0.00 | 0.00 | 0.00 | 1 | 1013.4 |
| 20260903111306 | 81 | 35 | 6.0 | 14.0 | 0.00 | 0.00 | 0.00 | 1 | 1013.4 |
| 20260903111204 | 81 | 35 | 6.0 | 14.0 | 0.00 | 0.00 | 0.00 | 1 | 1013.4 |
| 20260903111104 | 81 | 35 | 6.0 | 14.0 | 0.00 | 0.00 | 0.00 | 1 | 1013.4 |
| 20260903111004 | 81 | 36 | 6.0 | 14.0 | 0.00 | 0.00 | 0.00 | 1 | 1013.5 |
| 20260903110904 | 81 | 38 | 6.0 | 14.0 | 0.00 | 0.00 | 0.00 | 1 | 1013.4 |
| 20260903110827 | 81 | 38 | 6.0 | 14.0 | 0.00 | 0.00 | 0.00 | 1 | 1013.4 |
| 20260903110704 | 81 | 38 | 6.0 | 14.0 | 0.00 | 0.00 | 0.00 | 1 | 1013.4 |
| 20260903110604 | 81 | 39 | 6.0 | 14.0 | 0.00 | 0.00 | 0.00 | 1 | 1013.4 |
| 20260903110504 | 81 | 40 | 6.0 | 14.0 | 0.00 | 0.00 | 0.00 | 1 | 1013.4 |
| 20260903110404 | 81 | 42 | 6.0 | 14.0 | 0.00 | 0.00 | 0.00 | 1 | 1013.4 |
| 20260903110325 | 81 | 41 | 6.0 | 14.0 | 0.00 | 0.00 | 0.00 | 1 | 1013.3 |
| 20260903110204 | 81 | 40 | 6.0 | 14.0 | 0.00 | 0.00 | 0.00 | 1 | 1013.4 |
| 20260903110104 | 81 | 41 | 6.0 | 14.0 | 0.00 | 0.00 | 0.00 | 1 | 1013.4 |
| 20260903110004 | 81 | 40 | 6.0 | 14.0 | 0.00 | 0.00 | 0.00 | 1 | 1013.4 |
| 20260903105904 | 81 | 38 | 6.0 | 14.0 | 0.00 | 0.00 | 0.00 | 1 | 1013.4 |
| 20260903105804 | 81 | 38 | 6.0 | 14.0 | 0.00 | 0.00 | 0.00 | 1 | 1013.4 |
| 20260903105705 | 81 | 38 | 6.0 | 14.0 | 0.00 | 0.00 | 0.00 | 1 | 1013.4 |
| 20260903105604 | 81 | 37 | 6.0 | 13.0 | 0.00 | 0.00 | 0.00 | 1 | 1013.4 |
| 20260903105504 | 81 | 35 | 6.0 | 13.0 | 0.00 | 0.00 | 0.00 | 1 | 1013.4 |
| 20260903105404 | 81 | 33 | 6.0 | 13.0 | 0.00 | 0.00 | 0.00 | 1 | 1013.3 |
| 20260903105325 | 81 | 35 | 6.0 | 13.0 | 0.00 | 0.00 | 0.00 | 1 | 1013.4 |
| 20260903105204 | 81 | 38 | 5.0 | 11.0 | 0.00 | 0.00 | 0.00 | 1 | 1013.3 |
| 20260903105104 | 81 | 38 | 5.0 | 11.0 | 0.00 | 0.00 | 0.00 | 1 | 1013.3 |
| 20260903105025 | 81 | 40 | 5.0 | 11.0 | 0.00 | 0.00 | 0.00 | 1 | 1013.3 |
| 20260903104904 | 81 | 41 | 5.0 | 11.0 | 0.00 | 0.00 | 0.00 | 1 | 1013.3 |
| 20260903104825 | 81 | 42 | 5.0 | 11.0 | 0.00 | 0.00 | 0.00 | 1 | 1013.3 |
| 20260903104704 | 81 | 40 | 5.0 | 12.0 | 0.00 | 0.00 | 0.00 | 1 | 1013.3 |
| 20260903104604 | 81 | 41 | 5.0 | 12.0 | 0.00 | 0.00 | 0.00 | 1 | 1013.3 |
| 20260903104504 | 81 | 42 | 5.0 | 12.0 | 0.00 | 0.00 | 0.00 | 1 | 1013.3 |
| 20260903104404 | 81 | 42 | 5.0 | 12.0 | 0.00 | 0.00 | 0.00 | 1 | 1013.2 |
| 20260903104304 | 81 | 41 | 5.0 | 12.0 | 0.00 | 0.00 | 0.00 | 1 | 1013.3 |
| 20260903104204 | 81 | 38 | 5.0 | 12.0 | 0.00 | 0.00 | 0.00 | 1 | 1013.3 |
| 20260903104104 | 81 | 36 | 5.0 | 12.0 | 0.00 | 0.00 | 0.00 | 1 | 1013.2 |
| 20260903104025 | 81 | 35 | 5.0 | 12.0 | 0.00 | 0.00 | 0.00 | 1 | 1013.2 |
| 20260903103904 | 80 | 35 | 5.0 | 12.0 | 0.00 | 0.00 | 0.00 | 1 | 1013.2 |
| 20260903103804 | 80 | 37 | 4.0 | 12.0 | 0.00 | 0.00 | 0.00 | 1 | 1013.2 |
| 20260903103704 | 80 | 37 | 4.0 | 11.0 | 0.00 | 0.00 | 0.00 | 1 | 1013.2 |
| 20260903103604 | 80 | 37 | 4.0 | 11.0 | 0.00 | 0.00 | 0.00 | 1 | 1013.2 |
| 20260903103504 | 80 | 38 | 4.0 | 9.0 | 0.00 | 0.00 | 0.00 | 1 | 1013.1 |
| 20260903103425 | 80 | 38 | 4.0 | 9.0 | 0.00 | 0.00 | 0.00 | 1 | 1013.2 |
| 20260903103325 | 80 | 38 | 5.0 | 14.0 | 0.00 | 0.00 | 0.00 | 1 | 1013.2 |
| 20260903103204 | 80 | 42 | 5.0 | 14.0 | 0.00 | 0.00 | 0.00 | 1 | 1013.1 |
| 20260903103104 | 80 | 42 | 5.0 | 14.0 | 0.00 | 0.00 | 0.00 | 1 | 1013.2 |
| 20260903103004 | 80 | 43 | 5.0 | 14.0 | 0.00 | 0.00 | 0.00 | 1 | 1013.1 |
| 20260903102904 | 80 | 44 | 5.0 | 14.0 | 0.00 | 0.00 | 0.00 | 1 | 1013.1 |
| 20260903102804 | 80 | 44 | 5.0 | 14.0 | 0.00 | 0.00 | 0.00 | 1 | 1013.1 |
| 20260903102704 | 80 | 46 | 5.0 | 14.0 | 0.00 | 0.00 | 0.00 | 1 | 1013.1 |
| 20260903102625 | 80 | 46 | 5.0 | 14.0 | 0.00 | 0.00 | 0.00 | 1 | 1013.1 |
| 20260903102504 | 80 | 46 | 5.0 | 14.0 | 0.00 | 0.00 | 0.00 | 1 | 1013.1 |
| 20260903102404 | 80 | 46 | 5.0 | 14.0 | 0.00 | 0.00 | 0.00 | 1 | 1013.1 |
| 20260903102306 | 80 | 45 | 5.0 | 12.0 | 0.00 | 0.00 | 0.00 | 1 | 1013.1 |
| 20260903102204 | 80 | 42 | 6.0 | 12.0 | 0.00 | 0.00 | 0.00 | 1 | 1013.1 |
| 20260903102104 | 80 | 41 | 6.0 | 14.0 | 0.00 | 0.00 | 0.00 | 1 | 1013.1 |
| 20260903102004 | 80 | 40 | 6.0 | 14.0 | 0.00 | 0.00 | 0.00 | 1 | 1013.1 |
| 20260903101906 | 80 | 36 | 6.0 | 14.0 | 0.00 | 0.00 | 0.00 | 1 | 1013.2 |
| 20260903101804 | 80 | 34 | 6.0 | 14.0 | 0.00 | 0.00 | 0.00 | 1 | 1013.1 |
| 20260903101704 | 80 | 33 | 6.0 | 14.0 | 0.00 | 0.00 | 0.00 | 1 | 1013.1 |
| 20260903101604 | 80 | 34 | 6.0 | 14.0 | 0.00 | 0.00 | 0.00 | 1 | 1013.1 |
| 20260903101504 | 80 | 34 | 6.0 | 14.0 | 0.00 | 0.00 | 0.00 | 1 | 1013.1 |
| 20260903101404 | 80 | 33 | 6.0 | 14.0 | 0.00 | 0.00 | 0.00 | 1 | 1013.1 |
| 20260903101304 | 80 | 33 | 5.0 | 14.0 | 0.00 | 0.00 | 0.00 | 1 | 1013.2 |
| 20260903101204 | 80 | 35 | 5.0 | 14.0 | 0.00 | 0.00 | 0.00 | 1 | 1013.2 |
| 20260903101105 | 80 | 37 | 5.0 | 11.0 | 0.00 | 0.00 | 0.00 | 1 | 1013.1 |
| 20260903101004 | 80 | 39 | 5.0 | 11.0 | 0.00 | 0.00 | 0.00 | 1 | 1013.1 |
| 20260903100904 | 80 | 44 | 5.0 | 11.0 | 0.00 | 0.00 | 0.00 | 1 | 1013.1 |
| 20260903100804 | 80 | 44 | 5.0 | 11.0 | 0.00 | 0.00 | 0.00 | 1 | 1013.1 |
| 20260903100704 | 80 | 44 | 5.0 | 11.0 | 0.00 | 0.00 | 0.00 | 1 | 1013.1 |
| 20260903100625 | 80 | 43 | 5.0 | 11.0 | 0.00 | 0.00 | 0.00 | 1 | 1013.1 |
| 20260903100504 | 80 | 43 | 5.0 | 11.0 | 0.00 | 0.00 | 0.00 | 1 | 1013.1 |
| 20260903100404 | 80 | 45 | 4.0 | 9.0 | 0.00 | 0.00 | 0.00 | 1 | 1013.1 |
| 20260903100304 | 80 | 47 | 4.0 | 9.0 | 0.00 | 0.00 | 0.00 | 1 | 1013.1 |
| 20260903100204 | 80 | 47 | 5.0 | 9.0 | 0.00 | 0.00 | 0.00 | 1 | 1013.1 |
| 20260903100104 | 80 | 47 | 5.0 | 9.0 | 0.00 | 0.00 | 0.00 | 1 | 1013.1 |
| 20260903100004 | 80 | 47 | 5.0 | 9.0 | 0.00 | 0.00 | 0.00 | 1 | 1013.1 |
| 20260903095925 | 80 | 45 | 5.0 | 9.0 | 0.00 | 0.00 | 0.00 | 1 | 1013.1 |
| 20260903095804 | 80 | 46 | 4.0 | 9.0 | 0.00 | 0.00 | 0.00 | 1 | 1013.1 |
| 20260903095727 | 80 | 47 | 4.0 | 9.0 | 0.00 | 0.00 | 0.00 | 1 | 1013.1 |
| 20260903095604 | 80 | 48 | 4.0 | 9.0 | 0.00 | 0.00 | 0.00 | 1 | 1013.2 |
| 20260903095525 | 80 | 49 | 4.0 | 9.0 | 0.00 | 0.00 | 0.00 | 1 | 1013.2 |
| 20260903095404 | 80 | 49 | 5.0 | 9.0 | 0.00 | 0.00 | 0.00 | 1 | 1013.2 |
| 20260903095306 | 80 | 49 | 5.0 | 9.0 | 0.00 | 0.00 | 0.00 | 1 | 1013.2 |
| 20260903095225 | 80 | 49 | 5.0 | 9.0 | 0.00 | 0.00 | 0.00 | 1 | 1013.2 |
| 20260903095104 | 80 | 48 | 5.0 | 9.0 | 0.00 | 0.00 | 0.00 | 1 | 1013.2 |
| 20260903095004 | 80 | 46 | 5.0 | 9.0 | 0.00 | 0.00 | 0.00 | 1 | 1013.3 |
| 20260903094904 | 80 | 45 | 6.0 | 13.0 | 0.00 | 0.00 | 0.00 | 1 | 1013.2 |
| 20260903094804 | 80 | 44 | 6.0 | 13.0 | 0.00 | 0.00 | 0.00 | 1 | 1013.3 |
| 20260903094704 | 80 | 44 | 6.0 | 13.0 | 0.00 | 0.00 | 0.00 | 1 | 1013.3 |
| 20260903094625 | 80 | 44 | 6.0 | 13.0 | 0.00 | 0.00 | 0.00 | 1 | 1013.3 |
| 20260903094525 | 80 | 44 | 6.0 | 13.0 | 0.00 | 0.00 | 0.00 | 1 | 1013.3 |
| 20260903094404 | 80 | 43 | 6.0 | 13.0 | 0.00 | 0.00 | 0.00 | 1 | 1013.3 |
| 20260903094306 | 80 | 42 | 6.0 | 13.0 | 0.00 | 0.00 | 0.00 | 1 | 1013.3 |
| 20260903094204 | 80 | 43 | 6.0 | 13.0 | 0.00 | 0.00 | 0.00 | 1 | 1013.3 |
| 20260903094104 | 80 | 42 | 6.0 | 13.0 | 0.00 | 0.00 | 0.00 | 1 | 1013.3 |
| 20260903094004 | 80 | 41 | 6.0 | 13.0 | 0.00 | 0.00 | 0.00 | 1 | 1013.3 |
| 20260903093904 | 80 | 42 | 6.0 | 10.0 | 0.00 | 0.00 | 0.00 | 1 | 1013.3 |
| 20260903093804 | 80 | 42 | 6.0 | 11.0 | 0.00 | 0.00 | 0.00 | 1 | 1013.3 |
| 20260903093704 | 80 | 42 | 6.0 | 11.0 | 0.00 | 0.00 | 0.00 | 1 | 1013.3 |
| 20260903093604 | 80 | 42 | 6.0 | 11.0 | 0.00 | 0.00 | 0.00 | 1 | 1013.3 |
| 20260903093504 | 80 | 41 | 6.0 | 12.0 | 0.00 | 0.00 | 0.00 | 1 | 1013.3 |
| 20260903093404 | 80 | 41 | 6.0 | 12.0 | 0.00 | 0.00 | 0.00 | 1 | 1013.4 |
| 20260903093304 | 80 | 41 | 6.0 | 12.0 | 0.00 | 0.00 | 0.00 | 1 | 1013.3 |
| 20260903093204 | 80 | 42 | 6.0 | 12.0 | 0.00 | 0.00 | 0.00 | 1 | 1013.4 |
| 20260903093104 | 80 | 44 | 6.0 | 12.0 | 0.00 | 0.00 | 0.00 | 1 | 1013.4 |
| 20260903093004 | 80 | 45 | 6.0 | 12.0 | 0.00 | 0.00 | 0.00 | 1 | 1013.4 |
| 20260903092904 | 80 | 45 | 5.0 | 12.0 | 0.00 | 0.00 | 0.00 | 1 | 1013.4 |
| 20260903092804 | 80 | 46 | 5.0 | 12.0 | 0.00 | 0.00 | 0.00 | 1 | 1013.4 |
| 20260903092725 | 80 | 46 | 5.0 | 12.0 | 0.00 | 0.00 | 0.00 | 1 | 1013.4 |
| 20260903092604 | 80 | 46 | 5.0 | 12.0 | 0.00 | 0.00 | 0.00 | 1 | 1013.4 |
| 20260903092504 | 80 | 47 | 5.0 | 11.0 | 0.00 | 0.00 | 0.00 | 1 | 1013.4 |
| 20260903092404 | 80 | 46 | 5.0 | 10.0 | 0.00 | 0.00 | 0.00 | 1 | 1013.4 |
| 20260903092325 | 80 | 47 | 5.0 | 10.0 | 0.00 | 0.00 | 0.00 | 1 | 1013.4 |
| 20260903092204 | 81 | 47 | 5.0 | 10.0 | 0.00 | 0.00 | 0.00 | 1 | 1013.4 |
| 20260903092104 | 81 | 47 | 5.0 | 10.0 | 0.00 | 0.00 | 0.00 | 1 | 1013.4 |
| 20260903092004 | 81 | 47 | 5.0 | 10.0 | 0.00 | 0.00 | 0.00 | 1 | 1013.3 |
| 20260903091904 | 81 | 47 | 4.0 | 10.0 | 0.00 | 0.00 | 0.00 | 1 | 1013.4 |
| 20260903091825 | 81 | 46 | 5.0 | 10.0 | 0.00 | 0.00 | 0.00 | 1 | 1013.4 |
| 20260903091704 | 81 | 43 | 5.0 | 12.0 | 0.00 | 0.00 | 0.00 | 1 | 1013.4 |
| 20260903091604 | 81 | 42 | 5.0 | 12.0 | 0.00 | 0.00 | 0.00 | 1 | 1013.4 |
| 20260903091504 | 81 | 42 | 5.0 | 12.0 | 0.00 | 0.00 | 0.00 | 1 | 1013.4 |
| 20260903091404 | 81 | 43 | 5.0 | 12.0 | 0.00 | 0.00 | 0.00 | 1 | 1013.5 |
| 20260903091304 | 81 | 42 | 6.0 | 12.0 | 0.00 | 0.00 | 0.00 | 1 | 1013.4 |
| 20260903091204 | 81 | 41 | 6.0 | 12.0 | 0.00 | 0.00 | 0.00 | 1 | 1013.5 |
| 20260903091104 | 81 | 40 | 6.0 | 15.0 | 0.00 | 0.00 | 0.00 | 1 | 1013.5 |
| 20260903091004 | 81 | 40 | 7.0 | 15.0 | 0.00 | 0.00 | 0.00 | 1 | 1013.5 |
| 20260903090904 | 81 | 41 | 7.0 | 15.0 | 0.00 | 0.00 | 0.00 | 1 | 1013.5 |
| 20260903090804 | 81 | 44 | 7.0 | 15.0 | 0.00 | 0.00 | 0.00 | 1 | 1013.5 |
| 20260903090706 | 81 | 45 | 7.0 | 15.0 | 0.00 | 0.00 | 0.00 | 1 | 1013.5 |
| 20260903090604 | 81 | 45 | 7.0 | 15.0 | 0.00 | 0.00 | 0.00 | 1 | 1013.5 |
| 20260903090504 | 81 | 44 | 7.0 | 15.0 | 0.00 | 0.00 | 0.00 | 1 | 1013.5 |
| 20260903090404 | 81 | 43 | 7.0 | 15.0 | 0.00 | 0.00 | 0.00 | 1 | 1013.5 |
| 20260903090304 | 81 | 43 | 7.0 | 15.0 | 0.00 | 0.00 | 0.00 | 1 | 1013.4 |
| 20260903090204 | 81 | 43 | 7.0 | 15.0 | 0.00 | 0.00 | 0.00 | 1 | 1013.4 |
| 20260903090104 | 81 | 45 | 6.0 | 14.0 | 0.00 | 0.00 | 0.00 | 1 | 1013.4 |
| 20260903090004 | 81 | 46 | 6.0 | 14.0 | 0.00 | 0.00 | 0.00 | 1 | 1013.4 |
| 20260903085904 | 81 | 44 | 7.0 | 14.0 | 0.00 | 0.00 | 0.00 | 1 | 1013.5 |
| 20260903085804 | 81 | 43 | 7.0 | 14.0 | 0.00 | 0.00 | 0.00 | 1 | 1013.4 |
| 20260903085704 | 81 | 43 | 6.0 | 14.0 | 0.00 | 0.00 | 0.00 | 1 | 1013.5 |
| 20260903085604 | 81 | 43 | 6.0 | 14.0 | 0.00 | 0.00 | 0.00 | 1 | 1013.5 |
| 20260903085504 | 81 | 45 | 6.0 | 14.0 | 0.00 | 0.00 | 0.00 | 1 | 1013.4 |
| 20260903085404 | 81 | 46 | 6.0 | 14.0 | 0.00 | 0.00 | 0.00 | 1 | 1013.4 |
| 20260903085306 | 81 | 46 | 5.0 | 10.0 | 0.00 | 0.00 | 0.00 | 1 | 1013.4 |
| 20260903085204 | 81 | 46 | 5.0 | 10.0 | 0.00 | 0.00 | 0.00 | 1 | 1013.4 |
| 20260903085104 | 81 | 45 | 6.0 | 14.0 | 0.00 | 0.00 | 0.00 | 1 | 1013.5 |
| 20260903085004 | 81 | 44 | 5.0 | 14.0 | 0.00 | 0.00 | 0.00 | 1 | 1013.4 |
| 20260903084904 | 81 | 46 | 5.0 | 14.0 | 0.00 | 0.00 | 0.00 | 1 | 1013.5 |
| 20260903084825 | 81 | 45 | 5.0 | 14.0 | 0.00 | 0.00 | 0.00 | 1 | 1013.4 |
| 20260903084725 | 81 | 44 | 6.0 | 14.0 | 0.00 | 0.00 | 0.00 | 1 | 1013.5 |
| 20260903084604 | 81 | 40 | 6.0 | 14.0 | 0.00 | 0.00 | 0.00 | 1 | 1013.5 |
| 20260903084504 | 81 | 40 | 6.0 | 14.0 | 0.00 | 0.00 | 0.00 | 1 | 1013.5 |
| 20260903084404 | 81 | 38 | 6.0 | 14.0 | 0.00 | 0.00 | 0.00 | 1 | 1013.5 |
| 20260903084304 | 81 | 36 | 6.0 | 14.0 | 0.00 | 0.00 | 0.00 | 1 | 1013.5 |
| 20260903084227 | 81 | 36 | 6.0 | 14.0 | 0.00 | 0.00 | 0.00 | 1 | 1013.5 |
| 20260903084106 | 81 | 36 | 6.0 | 12.0 | 0.00 | 0.00 | 0.00 | 1 | 1013.5 |
| 20260903084004 | 81 | 38 | 6.0 | 12.0 | 0.00 | 0.00 | 0.00 | 1 | 1013.5 |
| 20260903083925 | 81 | 36 | 6.0 | 13.0 | 0.00 | 0.00 | 0.00 | 1 | 1013.5 |
| 20260903083804 | 81 | 35 | 6.0 | 13.0 | 0.00 | 0.00 | 0.00 | 1 | 1013.5 |
| 20260903083704 | 81 | 35 | 6.0 | 13.0 | 0.00 | 0.00 | 0.00 | 1 | 1013.4 |
| 20260903083604 | 81 | 37 | 6.0 | 13.0 | 0.00 | 0.00 | 0.00 | 1 | 1013.4 |
| 20260903083504 | 81 | 38 | 6.0 | 13.0 | 0.00 | 0.00 | 0.00 | 1 | 1013.4 |
| 20260903083404 | 81 | 39 | 6.0 | 13.0 | 0.00 | 0.00 | 0.00 | 1 | 1013.4 |
| 20260903083304 | 81 | 38 | 6.0 | 13.0 | 0.00 | 0.00 | 0.00 | 1 | 1013.4 |
| 20260903083204 | 81 | 39 | 6.0 | 13.0 | 0.00 | 0.00 | 0.00 | 1 | 1013.4 |
| 20260903083104 | 81 | 38 | 6.0 | 13.0 | 0.00 | 0.00 | 0.00 | 1 | 1013.4 |
| 20260903083025 | 81 | 36 | 6.0 | 13.0 | 0.00 | 0.00 | 0.00 | 1 | 1013.4 |
| 20260903082925 | 81 | 36 | 6.0 | 12.0 | 0.00 | 0.00 | 0.00 | 1 | 1013.4 |
| 20260903082804 | 81 | 36 | 5.0 | 12.0 | 0.00 | 0.00 | 0.00 | 1 | 1013.4 |
| 20260903082704 | 81 | 35 | 5.0 | 11.0 | 0.00 | 0.00 | 0.00 | 1 | 1013.4 |
| 20260903082625 | 81 | 36 | 6.0 | 11.0 | 0.00 | 0.00 | 0.00 | 1 | 1013.4 |
| 20260903082504 | 81 | 36 | 6.0 | 11.0 | 0.00 | 0.00 | 0.00 | 1 | 1013.4 |
| 20260903082425 | 81 | 35 | 6.0 | 15.0 | 0.00 | 0.00 | 0.00 | 1 | 1013.4 |
| 20260903082306 | 81 | 35 | 6.0 | 16.0 | 0.00 | 0.00 | 0.00 | 1 | 1013.4 |
| 20260903082204 | 81 | 34 | 6.0 | 16.0 | 0.00 | 0.00 | 0.00 | 1 | 1013.4 |
| 20260903082125 | 81 | 33 | 6.0 | 16.0 | 0.00 | 0.00 | 0.00 | 1 | 1013.5 |
| 20260903082004 | 81 | 35 | 6.0 | 16.0 | 0.00 | 0.00 | 0.00 | 1 | 1013.4 |
| 20260903081904 | 81 | 34 | 7.0 | 16.0 | 0.00 | 0.00 | 0.00 | 1 | 1013.4 |
| 20260903081804 | 81 | 35 | 7.0 | 16.0 | 0.00 | 0.00 | 0.00 | 1 | 1013.5 |
| 20260903081725 | 81 | 35 | 7.0 | 16.0 | 0.00 | 0.00 | 0.00 | 1 | 1013.4 |
| 20260903081604 | 81 | 35 | 7.0 | 16.0 | 0.00 | 0.00 | 0.00 | 1 | 1013.5 |
| 20260903081504 | 81 | 36 | 7.0 | 16.0 | 0.00 | 0.00 | 0.00 | 1 | 1013.5 |
| 20260903081426 | 81 | 35 | 7.0 | 16.0 | 0.00 | 0.00 | 0.00 | 1 | 1013.4 |
| 20260903081304 | 81 | 37 | 7.0 | 15.0 | 0.00 | 0.00 | 0.00 | 1 | 1013.5 |
| 20260903081227 | 81 | 38 | 7.0 | 15.0 | 0.00 | 0.00 | 0.00 | 1 | 1013.4 |
| 20260903081125 | 81 | 39 | 7.0 | 15.0 | 0.00 | 0.00 | 0.00 | 1 | 1013.4 |
| 20260903081025 | 81 | 37 | 7.0 | 15.0 | 0.00 | 0.00 | 0.00 | 1 | 1013.4 |
| 20260903080904 | 81 | 35 | 7.0 | 15.0 | 0.00 | 0.00 | 0.00 | 1 | 1013.4 |
| 20260903080804 | 81 | 34 | 7.0 | 15.0 | 0.00 | 0.00 | 0.00 | 1 | 1013.4 |
| 20260903080704 | 82 | 34 | 7.0 | 15.0 | 0.00 | 0.00 | 0.00 | 1 | 1013.4 |
| 20260903080604 | 82 | 33 | 7.0 | 16.0 | 0.00 | 0.00 | 0.00 | 1 | 1013.4 |
| 20260903080525 | 82 | 33 | 8.0 | 16.0 | 0.00 | 0.00 | 0.00 | 1 | 1013.4 |
| 20260903080404 | 82 | 32 | 8.0 | 16.0 | 0.00 | 0.00 | 0.00 | 1 | 1013.4 |
| 20260903080304 | 82 | 31 | 8.0 | 16.0 | 0.00 | 0.00 | 0.00 | 1 | 1013.3 |
| 20260903080204 | 82 | 32 | 8.0 | 16.0 | 0.00 | 0.00 | 0.00 | 1 | 1013.4 |
| 20260903080104 | 82 | 32 | 8.0 | 16.0 | 0.00 | 0.00 | 0.00 | 1 | 1013.3 |
| 20260903080025 | 82 | 32 | 8.0 | 16.0 | 0.00 | 0.00 | 0.00 | 1 | 1013.4 |
| 20260903075904 | 82 | 31 | 8.0 | 16.0 | 0.00 | 0.00 | 0.00 | 1 | 1013.4 |
| 20260903075825 | 82 | 31 | 8.0 | 16.0 | 0.00 | 0.00 | 0.00 | 1 | 1013.3 |
| 20260903075704 | 82 | 31 | 8.0 | 16.0 | 0.00 | 0.00 | 0.00 | 1 | 1013.4 |
| 20260903075604 | 82 | 32 | 8.0 | 15.0 | 0.00 | 0.00 | 0.00 | 1 | 1013.3 |
| 20260903075504 | 82 | 32 | 8.0 | 15.0 | 0.00 | 0.00 | 0.00 | 1 | 1013.3 |
| 20260903075404 | 82 | 33 | 8.0 | 15.0 | 0.00 | 0.00 | 0.00 | 1 | 1013.3 |
| 20260903075306 | 82 | 32 | 7.0 | 15.0 | 0.00 | 0.00 | 0.00 | 1 | 1013.3 |
| 20260903075225 | 82 | 31 | 7.0 | 15.0 | 0.00 | 0.00 | 0.00 | 1 | 1013.3 |
| 20260903075104 | 82 | 29 | 7.0 | 15.0 | 0.00 | 0.00 | 0.00 | 1 | 1013.3 |
| 20260903075025 | 82 | 28 | 7.0 | 15.0 | 0.00 | 0.00 | 0.00 | 1 | 1013.3 |
| 20260903074904 | 82 | 33 | 6.0 | 15.0 | 0.00 | 0.00 | 0.00 | 1 | 1013.3 |
| 20260903074825 | 82 | 33 | 6.0 | 15.0 | 0.00 | 0.00 | 0.00 | 1 | 1013.4 |
| 20260903074704 | 82 | 33 | 6.0 | 13.0 | 0.00 | 0.00 | 0.00 | 1 | 1013.4 |
| 20260903074604 | 82 | 33 | 6.0 | 13.0 | 0.00 | 0.00 | 0.00 | 1 | 1013.3 |
| 20260903074504 | 82 | 31 | 6.0 | 13.0 | 0.00 | 0.00 | 0.00 | 1 | 1013.3 |
| 20260903074404 | 82 | 33 | 6.0 | 11.0 | 0.00 | 0.00 | 0.00 | 1 | 1013.4 |
| 20260903074325 | 82 | 33 | 6.0 | 12.0 | 0.00 | 0.00 | 0.00 | 1 | 1013.4 |
| 20260903074204 | 82 | 37 | 6.0 | 12.0 | 0.00 | 0.00 | 0.00 | 1 | 1013.4 |
| 20260903074104 | 82 | 37 | 6.0 | 12.0 | 0.00 | 0.00 | 0.00 | 1 | 1013.4 |
| 20260903074004 | 82 | 37 | 6.0 | 12.0 | 0.00 | 0.00 | 0.00 | 1 | 1013.4 |
| 20260903073904 | 82 | 37 | 6.0 | 12.0 | 0.00 | 0.00 | 0.00 | 1 | 1013.4 |
| 20260903073825 | 82 | 38 | 6.0 | 12.0 | 0.00 | 0.00 | 0.00 | 1 | 1013.4 |
| 20260903073725 | 82 | 36 | 6.0 | 12.0 | 0.00 | 0.00 | 0.00 | 1 | 1013.4 |
| 20260903073604 | 82 | 37 | 6.0 | 12.0 | 0.00 | 0.00 | 0.00 | 1 | 1013.4 |
| 20260903073504 | 82 | 38 | 6.0 | 12.0 | 0.00 | 0.00 | 0.00 | 1 | 1013.5 |
| 20260903073404 | 82 | 37 | 6.0 | 12.0 | 0.00 | 0.00 | 0.00 | 1 | 1013.4 |
| 20260903073304 | 82 | 37 | 6.0 | 12.0 | 0.00 | 0.00 | 0.00 | 1 | 1013.4 |
| 20260903073225 | 82 | 36 | 6.0 | 12.0 | 0.00 | 0.00 | 0.00 | 1 | 1013.4 |
| 20260903073104 | 82 | 35 | 6.0 | 12.0 | 0.00 | 0.00 | 0.00 | 1 | 1013.4 |
| 20260903073004 | 82 | 33 | 6.0 | 12.0 | 0.00 | 0.00 | 0.00 | 1 | 1013.4 |
| 20260903072925 | 82 | 31 | 6.0 | 11.0 | 0.00 | 0.00 | 0.00 | 1 | 1013.5 |
| 20260903072804 | 82 | 30 | 6.0 | 11.0 | 0.00 | 0.00 | 0.00 | 1 | 1013.4 |
| 20260903072704 | 82 | 31 | 6.0 | 11.0 | 0.00 | 0.00 | 0.00 | 1 | 1013.5 |
| 20260903072604 | 82 | 29 | 6.0 | 11.0 | 0.00 | 0.00 | 0.00 | 1 | 1013.5 |
| 20260903072504 | 82 | 31 | 6.0 | 11.0 | 0.00 | 0.00 | 0.00 | 1 | 1013.5 |
| 20260903072425 | 82 | 31 | 6.0 | 11.0 | 0.00 | 0.00 | 0.00 | 1 | 1013.5 |
| 20260903072306 | 82 | 31 | 6.0 | 13.0 | 0.00 | 0.00 | 0.00 | 1 | 1013.5 |
| 20260903072204 | 82 | 33 | 6.0 | 13.0 | 0.00 | 0.00 | 0.00 | 1 | 1013.5 |
| 20260903072104 | 82 | 34 | 5.0 | 13.0 | 0.00 | 0.00 | 0.00 | 1 | 1013.5 |
| 20260903072004 | 82 | 34 | 5.0 | 13.0 | 0.00 | 0.00 | 0.00 | 1 | 1013.5 |
| 20260903071905 | 82 | 33 | 6.0 | 13.0 | 0.00 | 0.00 | 0.00 | 1 | 1013.5 |
| 20260903071804 | 82 | 35 | 5.0 | 13.0 | 0.00 | 0.00 | 0.00 | 1 | 1013.5 |
| 20260903071704 | 82 | 36 | 5.0 | 13.0 | 0.00 | 0.00 | 0.00 | 1 | 1013.5 |
| 20260903071605 | 82 | 34 | 5.0 | 13.0 | 0.00 | 0.00 | 0.00 | 1 | 1013.5 |
| 20260903071504 | 82 | 32 | 5.0 | 13.0 | 0.00 | 0.00 | 0.00 | 1 | 1013.6 |
| 20260903071425 | 82 | 31 | 5.0 | 13.0 | 0.00 | 0.00 | 0.00 | 1 | 1013.5 |
| 20260903071304 | 82 | 27 | 5.0 | 13.0 | 0.00 | 0.00 | 0.00 | 1 | 1013.5 |
| 20260903071204 | 82 | 22 | 5.0 | 12.0 | 0.00 | 0.00 | 0.00 | 1 | 1013.5 |
| 20260903071125 | 82 | 18 | 5.0 | 12.0 | 0.00 | 0.00 | 0.00 | 1 | 1013.6 |
| 20260903071004 | 82 | 12 | 5.0 | 12.0 | 0.00 | 0.00 | 0.00 | 1 | 1013.6 |
| 20260903070904 | 82 | 11 | 4.0 | 12.0 | 0.00 | 0.00 | 0.00 | 1 | 1013.6 |
| 20260903070825 | 82 | 10 | 4.0 | 9.0 | 0.00 | 0.00 | 0.00 | 1 | 1013.6 |
| 20260903070704 | 82 | 9 | 4.0 | 9.0 | 0.00 | 0.00 | 0.00 | 1 | 1013.6 |
| 20260903070604 | 82 | 10 | 4.0 | 9.0 | 0.00 | 0.00 | 0.00 | 1 | 1013.6 |
| 20260903070504 | 82 | 11 | 4.0 | 9.0 | 0.00 | 0.00 | 0.00 | 1 | 1013.6 |
| 20260903070404 | 82 | 11 | 4.0 | 11.0 | 0.00 | 0.00 | 0.00 | 1 | 1013.7 |
| 20260903070304 | 82 | 12 | 4.0 | 11.0 | 0.00 | 0.00 | 0.00 | 1 | 1013.7 |
| 20260903070204 | 82 | 18 | 4.0 | 11.0 | 0.00 | 0.00 | 0.00 | 1 | 1013.7 |
| 20260903070104 | 82 | 23 | 4.0 | 11.0 | 0.00 | 0.00 | 0.00 | 1 | 1013.7 |
| 20260903070004 | 82 | 26 | 5.0 | 11.0 | 0.00 | 0.00 | 0.00 | 1 | 1013.6 |
| 20260903065904 | 82 | 27 | 4.0 | 11.0 | 0.00 | 0.00 | 0.00 | 1 | 1013.7 |
| 20260903065804 | 82 | 28 | 4.0 | 11.0 | 0.00 | 0.00 | 0.00 | 1 | 1013.7 |
| 20260903065704 | 82 | 25 | 4.0 | 11.0 | 0.00 | 0.00 | 0.00 | 1 | 1013.6 |
| 20260903065604 | 82 | 27 | 5.0 | 11.0 | 0.00 | 0.00 | 0.00 | 1 | 1013.7 |
| 20260903065504 | 82 | 29 | 5.0 | 11.0 | 0.00 | 0.00 | 0.00 | 1 | 1013.7 |
| 20260903065404 | 82 | 28 | 4.0 | 9.0 | 0.00 | 0.00 | 0.00 | 1 | 1013.7 |
| 20260903065306 | 82 | 31 | 4.0 | 9.0 | 0.00 | 0.00 | 0.00 | 1 | 1013.6 |
| 20260903065204 | 82 | 31 | 4.0 | 9.0 | 0.00 | 0.00 | 0.00 | 1 | 1013.6 |
| 20260903065104 | 82 | 31 | 4.0 | 9.0 | 0.00 | 0.00 | 0.00 | 1 | 1013.7 |
| 20260903065004 | 82 | 33 | 4.0 | 9.0 | 0.00 | 0.00 | 0.00 | 1 | 1013.6 |
| 20260903064925 | 82 | 32 | 4.0 | 9.0 | 0.00 | 0.00 | 0.00 | 1 | 1013.7 |
| 20260903064804 | 82 | 28 | 4.0 | 9.0 | 0.00 | 0.00 | 0.00 | 1 | 1013.8 |
| 20260903064704 | 82 | 30 | 4.0 | 8.0 | 0.00 | 0.00 | 0.00 | 1 | 1013.7 |
| 20260903064604 | 82 | 31 | 4.0 | 8.0 | 0.00 | 0.00 | 0.00 | 1 | 1013.6 |
| 20260903064504 | 82 | 31 | 4.0 | 8.0 | 0.00 | 0.00 | 0.00 | 1 | 1013.7 |
| 20260903064404 | 82 | 32 | 4.0 | 8.0 | 0.00 | 0.00 | 0.00 | 1 | 1013.7 |
| 20260903064304 | 82 | 27 | 4.0 | 8.0 | 0.00 | 0.00 | 0.00 | 1 | 1013.7 |
| 20260903064225 | 82 | 24 | 4.0 | 8.0 | 0.00 | 0.00 | 0.00 | 1 | 1013.7 |
| 20260903064104 | 82 | 18 | 3.0 | 8.0 | 0.00 | 0.00 | 0.00 | 1 | 1013.7 |
| 20260903064004 | 82 | 13 | 4.0 | 8.0 | 0.00 | 0.00 | 0.00 | 1 | 1013.8 |
| 20260903063905 | 82 | 14 | 4.0 | 8.0 | 0.00 | 0.00 | 0.00 | 1 | 1013.8 |
| 20260903063804 | 82 | 16 | 3.0 | 8.0 | 0.00 | 0.00 | 0.00 | 1 | 1013.8 |
| 20260903063704 | 82 | 14 | 4.0 | 10.0 | 0.00 | 0.00 | 0.00 | 1 | 1013.8 |
| 20260903063604 | 82 | 15 | 4.0 | 10.0 | 0.00 | 0.00 | 0.00 | 1 | 1013.8 |
| 20260903063504 | 82 | 13 | 4.0 | 10.0 | 0.00 | 0.00 | 0.00 | 1 | 1013.8 |
| 20260903063405 | 81 | 14 | 4.0 | 10.0 | 0.00 | 0.00 | 0.00 | 1 | 1013.8 |
| 20260903063304 | 81 | 12 | 4.0 | 10.0 | 0.00 | 0.00 | 0.00 | 1 | 1013.9 |
| 20260903063204 | 81 | 16 | 4.0 | 10.0 | 0.00 | 0.00 | 0.00 | 1 | 1013.8 |
| 20260903063104 | 81 | 23 | 4.0 | 10.0 | 0.00 | 0.00 | 0.00 | 1 | 1013.8 |
| 20260903063004 | 81 | 27 | 4.0 | 10.0 | 0.00 | 0.00 | 0.00 | 1 | 1013.8 |
| 20260903062904 | 81 | 24 | 4.0 | 10.0 | 0.00 | 0.00 | 0.00 | 1 | 1013.8 |
| 20260903062806 | 81 | 19 | 4.0 | 10.0 | 0.00 | 0.00 | 0.00 | 1 | 1013.9 |
| 20260903062704 | 81 | 12 | 4.0 | 8.0 | 0.00 | 0.00 | 0.00 | 1 | 1013.9 |
| 20260903062604 | 81 | 10 | 4.0 | 8.0 | 0.00 | 0.00 | 0.00 | 1 | 1013.8 |
| 20260903062504 | 81 | 6 | 4.0 | 8.0 | 0.00 | 0.00 | 0.00 | 1 | 1013.8 |
| 20260903062404 | 81 | 355 | 3.0 | 8.0 | 0.00 | 0.00 | 0.00 | 1 | 1013.9 |
| 20260903062306 | 81 | 355 | 3.0 | 8.0 | 0.00 | 0.00 | 0.00 | 1 | 1013.9 |
| 20260903062204 | 81 | 348 | 3.0 | 8.0 | 0.00 | 0.00 | 0.00 | 1 | 1013.8 |
| 20260903062105 | 82 | 337 | 3.0 | 8.0 | 0.00 | 0.00 | 0.00 | 1 | 1013.8 |
| 20260903062004 | 82 | 320 | 3.0 | 8.0 | 0.00 | 0.00 | 0.00 | 1 | 1013.8 |
| 20260903061904 | 82 | 318 | 3.0 | 8.0 | 0.00 | 0.00 | 0.00 | 1 | 1013.9 |
| 20260903061805 | 82 | 317 | 3.0 | 8.0 | 0.00 | 0.00 | 0.00 | 1 | 1013.8 |
| 20260903061704 | 82 | 315 | 3.0 | 8.0 | 0.00 | 0.00 | 0.00 | 1 | 1013.9 |
| 20260903061604 | 82 | 307 | 3.0 | 7.0 | 0.00 | 0.00 | 0.00 | 1 | 1013.8 |
| 20260903061505 | 82 | 305 | 3.0 | 7.0 | 0.00 | 0.00 | 0.00 | 1 | 1013.8 |
| 20260903061404 | 82 | 309 | 3.0 | 7.0 | 0.00 | 0.00 | 0.00 | 1 | 1013.8 |
| 20260903061304 | 82 | 313 | 3.0 | 7.0 | 0.00 | 0.00 | 0.00 | 1 | 1013.8 |
| 20260903061204 | 82 | 315 | 3.0 | 7.0 | 0.00 | 0.00 | 0.00 | 1 | 1013.9 |
| 20260903061104 | 82 | 319 | 3.0 | 7.0 | 0.00 | 0.00 | 0.00 | 1 | 1013.9 |
| 20260903061004 | 82 | 327 | 3.0 | 7.0 | 0.00 | 0.00 | 0.00 | 1 | 1013.9 |
| 20260903060904 | 82 | 328 | 3.0 | 7.0 | 0.00 | 0.00 | 0.00 | 1 | 1013.8 |
| 20260903060804 | 82 | 330 | 3.0 | 7.0 | 0.00 | 0.00 | 0.00 | 1 | 1013.8 |
| 20260903060704 | 82 | 330 | 3.0 | 7.0 | 0.00 | 0.00 | 0.00 | 1 | 1013.8 |
| 20260903060604 | 82 | 337 | 3.0 | 7.0 | 0.00 | 0.00 | 0.00 | 1 | 1013.8 |
| 20260903060504 | 82 | 342 | 3.0 | 7.0 | 0.00 | 0.00 | 0.00 | 1 | 1013.9 |
| 20260903060425 | 82 | 343 | 3.0 | 7.0 | 0.00 | 0.00 | 0.00 | 1 | 1013.9 |
| 20260903060325 | 82 | 341 | 3.0 | 7.0 | 0.00 | 0.00 | 0.00 | 1 | 1013.9 |
| 20260903060204 | 82 | 341 | 3.0 | 10.0 | 0.00 | 0.00 | 0.00 | 1 | 1013.9 |
| 20260903060104 | 82 | 341 | 3.0 | 10.0 | 0.00 | 0.00 | 0.00 | 1 | 1013.9 |
| 20260903060004 | 82 | 336 | 3.0 | 10.0 | 0.00 | 0.00 | 0.00 | 1 | 1013.9 |
| 20260903055925 | 82 | 333 | 3.0 | 10.0 | 0.00 | 0.00 | 0.00 | 1 | 1013.9 |
| 20260903055825 | 82 | 332 | 3.0 | 10.0 | 0.00 | 0.00 | 0.00 | 1 | 1013.9 |
| 20260903055704 | 82 | 333 | 3.0 | 10.0 | 0.00 | 0.00 | 0.00 | 1 | 1013.9 |
| 20260903055604 | 82 | 333 | 4.0 | 10.0 | 0.00 | 0.00 | 0.00 | 1 | 1013.9 |
| 20260903055504 | 82 | 333 | 4.0 | 10.0 | 0.00 | 0.00 | 0.00 | 1 | 1013.9 |
| 20260903055404 | 82 | 333 | 4.0 | 10.0 | 0.00 | 0.00 | 0.00 | 1 | 1013.9 |
| 20260903055306 | 82 | 337 | 4.0 | 10.0 | 0.00 | 0.00 | 0.00 | 1 | 1013.9 |
| 20260903055204 | 82 | 342 | 4.0 | 9.0 | 0.00 | 0.00 | 0.00 | 1 | 1013.9 |
| 20260903055104 | 82 | 346 | 4.0 | 9.0 | 0.00 | 0.00 | 0.00 | 1 | 1013.8 |
| 20260903055004 | 82 | 346 | 4.0 | 9.0 | 0.00 | 0.00 | 0.00 | 1 | 1013.8 |
| 20260903054904 | 82 | 344 | 4.0 | 9.0 | 0.00 | 0.00 | 0.00 | 1 | 1013.8 |
| 20260903054804 | 82 | 341 | 4.0 | 9.0 | 0.00 | 0.00 | 0.00 | 1 | 1013.8 |
| 20260903054704 | 82 | 345 | 4.0 | 9.0 | 0.00 | 0.00 | 0.00 | 1 | 1013.8 |
| 20260903054625 | 82 | 348 | 4.0 | 9.0 | 0.00 | 0.00 | 0.00 | 1 | 1013.9 |
| 20260903054525 | 82 | 345 | 4.0 | 9.0 | 0.00 | 0.00 | 0.00 | 1 | 1013.8 |
| 20260903054404 | 82 | 342 | 4.0 | 9.0 | 0.00 | 0.00 | 0.00 | 1 | 1013.8 |
| 20260903054304 | 82 | 339 | 5.0 | 14.0 | 0.00 | 0.00 | 0.00 | 1 | 1013.8 |
| 20260903054204 | 82 | 332 | 5.0 | 14.0 | 0.00 | 0.00 | 0.00 | 1 | 1013.8 |
| 20260903054104 | 82 | 326 | 5.0 | 14.0 | 0.00 | 0.00 | 0.00 | 1 | 1013.8 |
| 20260903054004 | 82 | 333 | 5.0 | 14.0 | 0.00 | 0.00 | 0.00 | 1 | 1013.8 |
| 20260903053904 | 82 | 341 | 5.0 | 14.0 | 0.00 | 0.00 | 0.00 | 1 | 1013.8 |
| 20260903053804 | 82 | 349 | 6.0 | 14.0 | 0.00 | 0.00 | 0.00 | 1 | 1013.7 |
| 20260903053704 | 82 | 347 | 6.0 | 14.0 | 0.00 | 0.00 | 0.00 | 1 | 1013.8 |
| 20260903053604 | 82 | 346 | 6.0 | 14.0 | 0.00 | 0.00 | 0.00 | 1 | 1013.8 |
| 20260903053504 | 82 | 347 | 6.0 | 14.0 | 0.00 | 0.00 | 0.00 | 1 | 1013.8 |
| 20260903053404 | 82 | 353 | 6.0 | 14.0 | 0.00 | 0.00 | 0.00 | 1 | 1013.8 |
| 20260903053304 | 82 | 356 | 5.0 | 13.0 | 0.00 | 0.00 | 0.00 | 1 | 1013.7 |
| 20260903053225 | 82 | 357 | 5.0 | 13.0 | 0.00 | 0.00 | 0.00 | 1 | 1013.7 |
| 20260903053104 | 82 | 359 | 5.0 | 13.0 | 0.00 | 0.00 | 0.00 | 1 | 1013.7 |
| 20260903053004 | 82 | 357 | 4.0 | 13.0 | 0.00 | 0.00 | 0.00 | 1 | 1013.7 |
| 20260903052904 | 82 | 349 | 4.0 | 13.0 | 0.00 | 0.00 | 0.00 | 1 | 1013.7 |
| 20260903052825 | 82 | 345 | 4.0 | 13.0 | 0.00 | 0.00 | 0.00 | 1 | 1013.7 |
| 20260903052725 | 82 | 347 | 4.0 | 13.0 | 0.00 | 0.00 | 0.00 | 1 | 1013.7 |
| 20260903052604 | 82 | 346 | 4.0 | 10.0 | 0.00 | 0.00 | 0.00 | 1 | 1013.7 |
| 20260903052504 | 82 | 342 | 4.0 | 10.0 | 0.00 | 0.00 | 0.00 | 1 | 1013.6 |
| 20260903052404 | 82 | 338 | 4.0 | 10.0 | 0.00 | 0.00 | 0.00 | 1 | 1013.7 |
| 20260903052307 | 82 | 334 | 4.0 | 10.0 | 0.00 | 0.00 | 0.00 | 1 | 1013.7 |
| 20260903052204 | 82 | 331 | 4.0 | 10.0 | 0.00 | 0.00 | 0.00 | 1 | 1013.7 |
| 20260903052104 | 82 | 332 | 4.0 | 10.0 | 0.00 | 0.00 | 0.00 | 1 | 1013.7 |
| 20260903052004 | 82 | 331 | 4.0 | 10.0 | 0.00 | 0.00 | 0.00 | 1 | 1013.7 |
| 20260903051925 | 82 | 332 | 4.0 | 10.0 | 0.00 | 0.00 | 0.00 | 1 | 1013.7 |
| 20260903051825 | 82 | 336 | 3.0 | 10.0 | 0.00 | 0.00 | 0.00 | 1 | 1013.7 |
| 20260903051704 | 82 | 328 | 3.0 | 7.0 | 0.00 | 0.00 | 0.00 | 1 | 1013.7 |
| 20260903051604 | 82 | 330 | 3.0 | 7.0 | 0.00 | 0.00 | 0.00 | 1 | 1013.6 |
| 20260903051525 | 82 | 329 | 3.0 | 7.0 | 0.00 | 0.00 | 0.00 | 1 | 1013.8 |
| 20260903051425 | 82 | 322 | 3.0 | 7.0 | 0.00 | 0.00 | 0.00 | 1 | 1013.7 |
| 20260903051304 | 82 | 318 | 4.0 | 7.0 | 0.00 | 0.00 | 0.00 | 1 | 1013.8 |
| 20260903051204 | 82 | 320 | 3.0 | 7.0 | 0.00 | 0.00 | 0.00 | 1 | 1013.8 |
| 20260903051104 | 82 | 318 | 3.0 | 7.0 | 0.00 | 0.00 | 0.00 | 1 | 1013.8 |
| 20260903051025 | 82 | 317 | 3.0 | 7.0 | 0.00 | 0.00 | 0.00 | 1 | 1013.8 |
| 20260903050904 | 82 | 315 | 3.0 | 7.0 | 0.00 | 0.00 | 0.00 | 1 | 1013.8 |
| 20260903050804 | 82 | 314 | 3.0 | 7.0 | 0.00 | 0.00 | 0.00 | 1 | 1013.7 |
| 20260903050704 | 82 | 313 | 3.0 | 7.0 | 0.00 | 0.00 | 0.00 | 1 | 1013.8 |
| 20260903050604 | 82 | 310 | 3.0 | 7.0 | 0.00 | 0.00 | 0.00 | 1 | 1013.8 |
| 20260903050504 | 82 | 313 | 3.0 | 7.0 | 0.00 | 0.00 | 0.00 | 1 | 1013.8 |
| 20260903050425 | 82 | 315 | 3.0 | 8.0 | 0.00 | 0.00 | 0.00 | 1 | 1013.8 |
| 20260903050304 | 82 | 319 | 3.0 | 8.0 | 0.00 | 0.00 | 0.00 | 1 | 1013.8 |
| 20260903050204 | 82 | 321 | 3.0 | 8.0 | 0.00 | 0.00 | 0.00 | 1 | 1013.7 |
| 20260903050104 | 82 | 319 | 4.0 | 8.0 | 0.00 | 0.00 | 0.00 | 1 | 1013.7 |
| 20260903050004 | 82 | 320 | 4.0 | 8.0 | 0.00 | 0.00 | 0.00 | 1 | 1013.7 |
| 20260903045904 | 82 | 325 | 4.0 | 8.0 | 0.00 | 0.00 | 0.00 | 1 | 1013.7 |
| 20260903045825 | 82 | 329 | 4.0 | 8.0 | 0.00 | 0.00 | 0.00 | 1 | 1013.7 |
| 20260903045704 | 82 | 334 | 4.0 | 8.0 | 0.00 | 0.00 | 0.00 | 1 | 1013.6 |
| 20260903045604 | 82 | 332 | 4.0 | 8.0 | 0.00 | 0.00 | 0.00 | 1 | 1013.7 |
| 20260903045504 | 82 | 329 | 4.0 | 8.0 | 0.00 | 0.00 | 0.00 | 1 | 1013.6 |
| 20260903045404 | 82 | 327 | 4.0 | 8.0 | 0.00 | 0.00 | 0.00 | 1 | 1013.7 |
| 20260903045306 | 82 | 332 | 4.0 | 9.0 | 0.00 | 0.00 | 0.00 | 1 | 1013.8 |
| 20260903045204 | 82 | 331 | 4.0 | 9.0 | 0.00 | 0.00 | 0.00 | 1 | 1013.7 |
| 20260903045125 | 81 | 334 | 4.0 | 9.0 | 0.00 | 0.00 | 0.00 | 1 | 1013.7 |
| 20260903045004 | 81 | 340 | 4.0 | 11.0 | 0.00 | 0.00 | 0.00 | 1 | 1013.7 |
| 20260903044904 | 81 | 336 | 4.0 | 11.0 | 0.00 | 0.00 | 0.00 | 1 | 1013.6 |
| 20260903044804 | 81 | 332 | 4.0 | 11.0 | 0.00 | 0.00 | 0.00 | 1 | 1013.7 |
| 20260903044704 | 81 | 329 | 4.0 | 11.0 | 0.00 | 0.00 | 0.00 | 1 | 1013.7 |
| 20260903044604 | 81 | 329 | 4.0 | 11.0 | 0.00 | 0.00 | 0.00 | 1 | 1013.6 |
| 20260903044504 | 81 | 330 | 4.0 | 11.0 | 0.00 | 0.00 | 0.00 | 1 | 1013.6 |
| 20260903044404 | 81 | 329 | 4.0 | 11.0 | 0.00 | 0.00 | 0.00 | 1 | 1013.6 |
| 20260903044304 | 81 | 322 | 3.0 | 11.0 | 0.00 | 0.00 | 0.00 | 1 | 1013.6 |
| 20260903044204 | 81 | 316 | 3.0 | 11.0 | 0.00 | 0.00 | 0.00 | 1 | 1013.6 |
| 20260903044104 | 81 | 300 | 3.0 | 10.0 | 0.00 | 0.00 | 0.00 | 1 | 1013.6 |
| 20260903044025 | 81 | 294 | 3.0 | 8.0 | 0.00 | 0.00 | 0.00 | 1 | 1013.6 |
| 20260903043925 | 81 | 284 | 3.0 | 8.0 | 0.00 | 0.00 | 0.00 | 1 | 1013.6 |
| 20260903043804 | 81 | 275 | 3.0 | 8.0 | 0.00 | 0.00 | 0.00 | 1 | 1013.6 |
| 20260903043704 | 81 | 269 | 3.0 | 8.0 | 0.00 | 0.00 | 0.00 | 1 | 1013.6 |
| 20260903043604 | 81 | 261 | 2.0 | 6.0 | 0.00 | 0.00 | 0.00 | 1 | 1013.6 |
| 20260903043504 | 81 | 260 | 2.0 | 6.0 | 0.00 | 0.00 | 0.00 | 1 | 1013.6 |
| 20260903043404 | 81 | 258 | 2.0 | 6.0 | 0.00 | 0.00 | 0.00 | 1 | 1013.6 |
| 20260903043304 | 81 | 255 | 2.0 | 6.0 | 0.00 | 0.00 | 0.00 | 1 | 1013.6 |
| 20260903043204 | 81 | 253 | 2.0 | 6.0 | 0.00 | 0.00 | 0.00 | 1 | 1013.5 |
| 20260903043104 | 81 | 249 | 2.0 | 6.0 | 0.00 | 0.00 | 0.00 | 1 | 1013.5 |
| 20260903043004 | 81 | 248 | 2.0 | 4.0 | 0.00 | 0.00 | 0.00 | 1 | 1013.5 |
| 20260903042904 | 81 | 248 | 2.0 | 4.0 | 0.00 | 0.00 | 0.00 | 1 | 1013.6 |
| 20260903042804 | 81 | 248 | 2.0 | 4.0 | 0.00 | 0.00 | 0.00 | 1 | 1013.5 |
| 20260903042704 | 81 | 248 | 2.0 | 4.0 | 0.00 | 0.00 | 0.00 | 1 | 1013.5 |
| 20260903042625 | 81 | 248 | 2.0 | 4.0 | 0.00 | 0.00 | 0.00 | 1 | 1013.5 |
| 20260903042504 | 81 | 248 | 2.0 | 4.0 | 0.00 | 0.00 | 0.00 | 1 | 1013.5 |
| 20260903042404 | 81 | 248 | 2.0 | 4.0 | 0.00 | 0.00 | 0.00 | 1 | 1013.5 |
| 20260903042306 | 81 | 248 | 2.0 | 4.0 | 0.00 | 0.00 | 0.00 | 1 | 1013.5 |
| 20260903042204 | 81 | 248 | 2.0 | 4.0 | 0.00 | 0.00 | 0.00 | 1 | 1013.6 |
| 20260903042104 | 81 | 248 | 2.0 | 4.0 | 0.00 | 0.00 | 0.00 | 1 | 1013.6 |
| 20260903042025 | 81 | 248 | 2.0 | 4.0 | 0.00 | 0.00 | 0.00 | 1 | 1013.6 |
| 20260903041904 | 81 | 248 | 1.0 | 3.0 | 0.00 | 0.00 | 0.00 | 1 | 1013.6 |
| 20260903041804 | 81 | 248 | 1.0 | 3.0 | 0.00 | 0.00 | 0.00 | 1 | 1013.7 |
| 20260903041725 | 81 | 248 | 1.0 | 3.0 | 0.00 | 0.00 | 0.00 | 1 | 1013.6 |
| 20260903041604 | 81 | 248 | 1.0 | 3.0 | 0.00 | 0.00 | 0.00 | 1 | 1013.7 |
| 20260903041504 | 81 | 248 | 1.0 | 3.0 | 0.00 | 0.00 | 0.00 | 1 | 1013.7 |
| 20260903041404 | 81 | 248 | 1.0 | 3.0 | 0.00 | 0.00 | 0.00 | 1 | 1013.7 |
| 20260903041304 | 81 | 248 | 1.0 | 3.0 | 0.00 | 0.00 | 0.00 | 1 | 1013.7 |
| 20260903041204 | 81 | 248 | 2.0 | 5.0 | 0.00 | 0.00 | 0.00 | 1 | 1013.7 |
| 20260903041104 | 81 | 248 | 2.0 | 5.0 | 0.00 | 0.00 | 0.00 | 1 | 1013.7 |
| 20260903041025 | 81 | 248 | 2.0 | 5.0 | 0.00 | 0.00 | 0.00 | 1 | 1013.6 |
| 20260903040925 | 81 | 248 | 2.0 | 5.0 | 0.00 | 0.00 | 0.00 | 1 | 1013.6 |
| 20260903040804 | 81 | 248 | 2.0 | 5.0 | 0.00 | 0.00 | 0.00 | 1 | 1013.7 |
| 20260903040704 | 81 | 248 | 2.0 | 5.0 | 0.00 | 0.00 | 0.00 | 1 | 1013.6 |
| 20260903040604 | 81 | 248 | 2.0 | 5.0 | 0.00 | 0.00 | 0.00 | 1 | 1013.6 |
| 20260903040504 | 81 | 248 | 2.0 | 5.0 | 0.00 | 0.00 | 0.00 | 1 | 1013.5 |
| 20260903040404 | 81 | 248 | 2.0 | 5.0 | 0.00 | 0.00 | 0.00 | 1 | 1013.6 |
| 20260903040304 | 81 | 248 | 2.0 | 5.0 | 0.00 | 0.00 | 0.00 | 1 | 1013.6 |
| 20260903040204 | 81 | 248 | 2.0 | 5.0 | 0.00 | 0.00 | 0.00 | 1 | 1013.6 |
| 20260903040104 | 81 | 248 | 2.0 | 4.0 | 0.00 | 0.00 | 0.00 | 1 | 1013.6 |
| 20260903040004 | 81 | 248 | 2.0 | 5.0 | 0.00 | 0.00 | 0.00 | 1 | 1013.5 |
| 20260903035904 | 81 | 247 | 2.0 | 5.0 | 0.00 | 0.00 | 0.00 | 1 | 1013.6 |
| 20260903035825 | 81 | 246 | 2.0 | 7.0 | 0.00 | 0.00 | 0.00 | 1 | 1013.6 |
| 20260903035725 | 81 | 247 | 2.0 | 7.0 | 0.00 | 0.00 | 0.00 | 1 | 1013.6 |
| 20260903035604 | 81 | 248 | 2.0 | 7.0 | 0.00 | 0.00 | 0.00 | 1 | 1013.6 |
| 20260903035504 | 81 | 249 | 3.0 | 7.0 | 0.00 | 0.00 | 0.00 | 1 | 1013.6 |
| 20260903035404 | 81 | 251 | 3.0 | 7.0 | 0.00 | 0.00 | 0.00 | 1 | 1013.5 |
| 20260903035306 | 81 | 252 | 3.0 | 7.0 | 0.00 | 0.00 | 0.00 | 1 | 1013.6 |
| 20260903035204 | 81 | 253 | 3.0 | 7.0 | 0.00 | 0.00 | 0.00 | 1 | 1013.6 |
| 20260903035125 | 81 | 254 | 3.0 | 7.0 | 0.00 | 0.00 | 0.00 | 1 | 1013.6 |
| 20260903035004 | 81 | 255 | 3.0 | 7.0 | 0.00 | 0.00 | 0.00 | 1 | 1013.6 |
| 20260903034904 | 81 | 255 | 3.0 | 7.0 | 0.00 | 0.00 | 0.00 | 1 | 1013.6 |
| 20260903034804 | 81 | 257 | 3.0 | 6.0 | 0.00 | 0.00 | 0.00 | 1 | 1013.6 |
| 20260903034725 | 81 | 256 | 3.0 | 6.0 | 0.00 | 0.00 | 0.00 | 1 | 1013.6 |
| 20260903034625 | 81 | 256 | 3.0 | 6.0 | 0.00 | 0.00 | 0.00 | 1 | 1013.6 |
| 20260903034504 | 81 | 255 | 3.0 | 6.0 | 0.00 | 0.00 | 0.00 | 1 | 1013.6 |
| 20260903034404 | 82 | 254 | 3.0 | 6.0 | 0.00 | 0.00 | 0.00 | 1 | 1013.7 |
| 20260903034304 | 82 | 256 | 2.0 | 6.0 | 0.00 | 0.00 | 0.00 | 1 | 1013.7 |
| 20260903034225 | 82 | 258 | 2.0 | 6.0 | 0.00 | 0.00 | 0.00 | 1 | 1013.7 |
| 20260903034104 | 82 | 262 | 2.0 | 6.0 | 0.00 | 0.00 | 0.00 | 1 | 1013.7 |
| 20260903034004 | 82 | 267 | 3.0 | 6.0 | 0.00 | 0.00 | 0.00 | 1 | 1013.7 |
| 20260903033925 | 82 | 266 | 3.0 | 10.0 | 0.00 | 0.00 | 0.00 | 1 | 1013.7 |
| 20260903033804 | 82 | 266 | 3.0 | 10.0 | 0.00 | 0.00 | 0.00 | 1 | 1013.6 |
| 20260903033704 | 82 | 267 | 3.0 | 10.0 | 0.00 | 0.00 | 0.00 | 1 | 1013.7 |
| 20260903033604 | 82 | 270 | 3.0 | 10.0 | 0.00 | 0.00 | 0.00 | 1 | 1013.6 |
| 20260903033504 | 82 | 270 | 4.0 | 10.0 | 0.00 | 0.00 | 0.00 | 1 | 1013.7 |
| 20260903033404 | 82 | 272 | 4.0 | 10.0 | 0.00 | 0.00 | 0.00 | 1 | 1013.7 |
| 20260903033304 | 82 | 273 | 4.0 | 10.0 | 0.00 | 0.00 | 0.00 | 1 | 1013.7 |
| 20260903033204 | 82 | 270 | 4.0 | 10.0 | 0.00 | 0.00 | 0.00 | 1 | 1013.7 |
| 20260903033104 | 82 | 267 | 5.0 | 10.0 | 0.00 | 0.00 | 0.00 | 1 | 1013.7 |
| 20260903033004 | 82 | 265 | 4.0 | 10.0 | 0.00 | 0.00 | 0.00 | 1 | 1013.8 |
| 20260903032904 | 82 | 266 | 4.0 | 11.0 | 0.00 | 0.00 | 0.00 | 1 | 1013.8 |
| 20260903032804 | 82 | 267 | 4.0 | 11.0 | 0.00 | 0.00 | 0.00 | 1 | 1013.8 |
| 20260903032725 | 82 | 267 | 4.0 | 11.0 | 0.00 | 0.00 | 0.00 | 1 | 1013.8 |
| 20260903032604 | 82 | 263 | 5.0 | 11.0 | 0.00 | 0.00 | 0.00 | 1 | 1013.8 |
| 20260903032504 | 83 | 263 | 5.0 | 11.0 | 0.00 | 0.00 | 0.00 | 1 | 1013.8 |
| 20260903032404 | 83 | 262 | 5.0 | 11.0 | 0.00 | 0.00 | 0.00 | 1 | 1013.9 |
| 20260903032325 | 83 | 260 | 5.0 | 11.0 | 0.00 | 0.00 | 0.00 | 1 | 1013.9 |
| 20260903032204 | 83 | 258 | 5.0 | 11.0 | 0.00 | 0.00 | 0.00 | 1 | 1013.8 |
| 20260903032104 | 83 | 261 | 5.0 | 11.0 | 0.00 | 0.00 | 0.00 | 1 | 1013.9 |
| 20260903032004 | 83 | 263 | 5.0 | 11.0 | 0.00 | 0.00 | 0.00 | 1 | 1013.8 |
| 20260903031904 | 83 | 264 | 6.0 | 14.0 | 0.00 | 0.00 | 0.00 | 1 | 1013.8 |
| 20260903031804 | 83 | 263 | 6.0 | 14.0 | 0.00 | 0.00 | 0.00 | 1 | 1013.9 |
| 20260903031704 | 83 | 265 | 6.0 | 14.0 | 0.00 | 0.00 | 0.00 | 1 | 1013.9 |
| 20260903031604 | 84 | 265 | 6.0 | 14.0 | 0.00 | 0.00 | 0.00 | 1 | 1013.9 |
| 20260903031504 | 84 | 266 | 5.0 | 14.0 | 0.00 | 0.00 | 0.00 | 1 | 1013.9 |
| 20260903031404 | 84 | 267 | 6.0 | 14.0 | 0.00 | 0.00 | 0.00 | 1 | 1013.9 |
| 20260903031304 | 84 | 267 | 6.0 | 14.0 | 0.00 | 0.00 | 0.00 | 1 | 1013.8 |
| 20260903031225 | 84 | 268 | 6.0 | 14.0 | 0.00 | 0.00 | 0.00 | 1 | 1013.8 |
| 20260903031125 | 84 | 266 | 5.0 | 14.0 | 0.00 | 0.00 | 0.00 | 22 | 1013.8 |
| 20260903031004 | 84 | 262 | 5.0 | 14.0 | 0.00 | 0.00 | 0.00 | 22 | 1013.7 |
| 20260903030904 | 85 | 258 | 5.0 | 14.0 | 0.00 | 0.00 | 0.00 | 22 | 1013.6 |
| 20260903030804 | 85 | 259 | 4.0 | 12.0 | 0.00 | 0.00 | 0.00 | 26 | 1013.6 |
| 20260903030704 | 85 | 260 | 4.0 | 12.0 | 0.00 | 0.00 | 0.00 | 30 | 1013.6 |
| 20260903030604 | 85 | 261 | 4.0 | 12.0 | 0.00 | 0.00 | 0.00 | 31 | 1013.5 |
| 20260903030504 | 85 | 262 | 4.0 | 12.0 | 0.00 | 0.00 | 0.00 | 34 | 1013.5 |
| 20260903030425 | 85 | 260 | 4.0 | 12.0 | 0.00 | 0.00 | 0.00 | 34 | 1013.6 |
| 20260903030325 | 85 | 259 | 4.0 | 12.0 | 0.00 | 0.00 | 0.00 | 35 | 1013.5 |
| 20260903030225 | 86 | 258 | 4.0 | 12.0 | 0.00 | 0.00 | 0.00 | 36 | 1013.4 |
| 20260903030104 | 86 | 259 | 4.0 | 12.0 | 0.00 | 0.00 | 0.00 | 37 | 1013.4 |
| 20260903030004 | 86 | 260 | 4.0 | 12.0 | 0.00 | 0.00 | 0.00 | 37 | 1013.3 |
| 20260903025904 | 86 | 261 | 3.0 | 7.0 | 0.00 | 0.00 | 0.00 | 38 | 1013.3 |
| 20260903025804 | 86 | 259 | 3.0 | 7.0 | 0.00 | 0.00 | 0.00 | 38 | 1013.3 |
| 20260903025704 | 86 | 255 | 3.0 | 6.0 | 0.00 | 0.00 | 0.00 | 38 | 1013.2 |
| 20260903025604 | 86 | 252 | 3.0 | 6.0 | 0.00 | 0.00 | 0.00 | 39 | 1013.2 |
| 20260903025525 | 86 | 250 | 3.0 | 6.0 | 0.00 | 0.00 | 0.00 | 39 | 1013.1 |
| 20260903025404 | 86 | 248 | 2.0 | 6.0 | 0.00 | 0.00 | 0.00 | 39 | 1013.0 |
| 20260903025325 | 86 | 248 | 2.0 | 6.0 | 0.00 | 0.00 | 0.00 | 39 | 1013.1 |
| 20260903025204 | 86 | 247 | 2.0 | 5.0 | 0.00 | 0.00 | 0.00 | 40 | 1013.0 |
| 20260903025104 | 86 | 247 | 2.0 | 5.0 | 0.00 | 0.00 | 0.00 | 40 | 1013.0 |
| 20260903025004 | 86 | 247 | 2.0 | 4.0 | 0.00 | 0.00 | 0.00 | 40 | 1013.0 |
| 20260903024925 | 86 | 248 | 2.0 | 6.0 | 0.00 | 0.00 | 0.00 | 40 | 1012.9 |
| 20260903024804 | 86 | 249 | 2.0 | 6.0 | 0.00 | 0.00 | 0.00 | 40 | 1012.8 |
| 20260903024704 | 86 | 250 | 2.0 | 6.0 | 0.00 | 0.00 | 0.00 | 41 | 1012.8 |
| 20260903024604 | 86 | 251 | 2.0 | 6.0 | 0.00 | 0.00 | 0.00 | 41 | 1012.7 |
| 20260903024525 | 86 | 251 | 2.0 | 6.0 | 0.00 | 0.00 | 0.00 | 41 | 1012.7 |
| 20260903024404 | 86 | 251 | 2.0 | 6.0 | 0.00 | 0.00 | 0.00 | 41 | 1012.8 |
| 20260903024304 | 86 | 252 | 3.0 | 6.0 | 0.00 | 0.00 | 0.00 | 41 | 1012.8 |
| 20260903024204 | 86 | 257 | 3.0 | 6.0 | 0.00 | 0.00 | 0.00 | 41 | 1012.8 |
| 20260903024104 | 87 | 257 | 3.0 | 6.0 | 0.00 | 0.00 | 0.00 | 41 | 1012.8 |
| 20260903024004 | 87 | 257 | 3.0 | 6.0 | 0.00 | 0.00 | 0.00 | 41 | 1012.7 |
| 20260903023925 | 87 | 257 | 3.0 | 11.0 | 0.00 | 0.00 | 0.00 | 42 | 1012.7 |
| 20260903023804 | 87 | 257 | 3.0 | 11.0 | 0.00 | 0.00 | 0.00 | 42 | 1012.7 |
| 20260903023704 | 87 | 257 | 3.0 | 11.0 | 0.00 | 0.00 | 0.00 | 42 | 1012.7 |
| 20260903023606 | 87 | 257 | 3.0 | 11.0 | 0.00 | 0.00 | 0.00 | 42 | 1012.6 |
| 20260903023504 | 87 | 256 | 4.0 | 11.0 | 0.00 | 0.00 | 0.00 | 42 | 1012.5 |
| 20260903023404 | 87 | 256 | 4.0 | 11.0 | 0.00 | 0.00 | 0.00 | 42 | 1012.5 |
| 20260903023304 | 87 | 257 | 4.0 | 11.0 | 0.00 | 0.00 | 0.00 | 42 | 1012.5 |
| 20260903023225 | 87 | 258 | 4.0 | 11.0 | 0.00 | 0.00 | 0.00 | 42 | 1012.6 |
| 20260903023104 | 87 | 260 | 4.0 | 11.0 | 0.00 | 0.00 | 0.00 | 42 | 1012.6 |
| 20260903023004 | 87 | 262 | 3.0 | 11.0 | 0.00 | 0.00 | 0.00 | 42 | 1012.7 |
| 20260903022904 | 87 | 271 | 3.0 | 10.0 | 0.00 | 0.00 | 0.00 | 42 | 1012.8 |
| 20260903022804 | 87 | 273 | 3.0 | 7.0 | 0.00 | 0.00 | 0.00 | 42 | 1012.8 |
| 20260903022704 | 87 | 270 | 3.0 | 7.0 | 0.00 | 0.00 | 0.00 | 42 | 1012.6 |
| 20260903022604 | 88 | 266 | 3.0 | 8.0 | 0.00 | 0.00 | 0.00 | 42 | 1012.5 |
| 20260903022504 | 88 | 259 | 3.0 | 8.0 | 0.00 | 0.00 | 0.00 | 42 | 1012.5 |
| 20260903022404 | 88 | 256 | 3.0 | 8.0 | 0.00 | 0.00 | 0.00 | 42 | 1012.4 |
| 20260903022325 | 88 | 254 | 3.0 | 8.0 | 0.00 | 0.00 | 0.00 | 42 | 1012.3 |
| 20260903022225 | 87 | 248 | 3.0 | 8.0 | 0.00 | 0.00 | 0.00 | 42 | 1012.3 |
| 20260903022104 | 87 | 241 | 3.0 | 8.0 | 0.00 | 0.00 | 0.00 | 42 | 1012.2 |
| 20260903022004 | 87 | 239 | 2.0 | 8.0 | 0.00 | 0.00 | 0.00 | 42 | 1012.2 |
| 20260903021925 | 87 | 233 | 2.0 | 8.0 | 0.00 | 0.00 | 0.00 | 43 | 1012.3 |
| 20260903021825 | 87 | 226 | 2.0 | 8.0 | 0.00 | 0.00 | 0.00 | 43 | 1012.3 |
| 20260903021725 | 87 | 225 | 1.0 | 8.0 | 0.00 | 0.00 | 0.00 | 43 | 1012.3 |
| 20260903021625 | 87 | 223 | 1.0 | 6.0 | 0.00 | 0.00 | 0.00 | 42 | 1012.3 |
| 20260903021504 | 87 | 239 | 0.0 | 5.0 | 0.00 | 0.00 | 0.00 | 43 | 1012.4 |
| 20260903021404 | 87 | 241 | 0.0 | 3.0 | 0.00 | 0.00 | 0.00 | 43 | 1012.2 |
| 20260903021304 | 87 | 242 | 0.0 | 1.0 | 0.00 | 0.00 | 0.00 | 43 | 1012.1 |
| 20260903021204 | 87 | 242 | 0.0 | 1.0 | 0.00 | 0.00 | 0.00 | 43 | 1012.0 |
| 20260903021104 | 88 | 242 | 0.0 | 1.0 | 0.00 | 0.00 | 0.00 | 43 | 1011.9 |
| 20260903021025 | 88 | 242 | 0.0 | 1.0 | 0.00 | 0.00 | 0.00 | 43 | 1011.9 |
| 20260903020904 | 88 | 242 | 0.0 | 1.0 | 0.00 | 0.00 | 0.00 | 43 | 1011.8 |
| 20260903020804 | 88 | 242 | 0.0 | 1.0 | 0.00 | 0.00 | 0.00 | 43 | 1011.7 |
| 20260903020704 | 88 | 242 | 0.0 | 1.0 | 0.00 | 0.00 | 0.00 | 43 | 1011.8 |
| 20260903020604 | 88 | 242 | 0.0 | 1.0 | 0.00 | 0.00 | 0.00 | 43 | 1011.8 |
| 20260903020504 | 88 | 242 | 0.0 | 1.0 | 0.00 | 0.00 | 0.00 | 43 | 1011.7 |
| 20260903020404 | 88 | 242 | 0.0 | 1.0 | 0.00 | 0.00 | 0.00 | 43 | 1011.7 |
| 20260903020325 | 88 | 242 | 0.0 | 1.0 | 0.00 | 0.00 | 0.00 | 43 | 1011.7 |
| 20260903020204 | 88 | 242 | 0.0 | 1.0 | 0.00 | 0.00 | 0.00 | 43 | 1011.7 |
| 20260903020104 | 88 | 242 | 0.0 | 1.0 | 0.00 | 0.00 | 0.00 | 43 | 1011.6 |
| 20260903020004 | 88 | 242 | 0.0 | 1.0 | 0.00 | 0.00 | 0.00 | 43 | 1011.7 |
| 20260903015904 | 88 | 242 | 0.0 | 1.0 | 0.00 | 0.00 | 0.00 | 43 | 1011.6 |
| 20260903015804 | 88 | 242 | 0.0 | 1.0 | 0.00 | 0.00 | 0.00 | 43 | 1011.6 |
| 20260903015704 | 88 | 242 | 0.0 | 1.0 | 0.00 | 0.00 | 0.00 | 43 | 1011.6 |
| 20260903015604 | 88 | 242 | 0.0 | 1.0 | 0.00 | 0.00 | 0.00 | 43 | 1011.6 |
| 20260903015504 | 88 | 242 | 0.0 | 1.0 | 0.00 | 0.00 | 0.00 | 43 | 1011.5 |
| 20260903015404 | 88 | 242 | 0.0 | 1.0 | 0.00 | 0.00 | 0.00 | 43 | 1011.5 |
| 20260903015325 | 88 | 242 | 0.0 | 1.0 | 0.00 | 0.00 | 0.00 | 43 | 1011.5 |
| 20260903015204 | 88 | 242 | 0.0 | 1.0 | 0.00 | 0.00 | 0.00 | 43 | 1011.5 |
| 20260903015104 | 88 | 242 | 0.0 | 1.0 | 0.00 | 0.00 | 0.00 | 43 | 1011.4 |
| 20260903015025 | 88 | 242 | 0.0 | 1.0 | 0.00 | 0.00 | 0.00 | 43 | 1011.5 |
| 20260903014904 | 88 | 242 | 0.0 | 1.0 | 0.00 | 0.00 | 0.00 | 43 | 1011.5 |
| 20260903014804 | 88 | 242 | 0.0 | 1.0 | 0.00 | 0.00 | 0.00 | 43 | 1011.5 |
| 20260903014704 | 88 | 242 | 0.0 | 1.0 | 0.00 | 0.00 | 0.00 | 43 | 1011.4 |
| 20260903014604 | 88 | 242 | 0.0 | 2.0 | 0.00 | 0.00 | 0.00 | 43 | 1011.4 |
| 20260903014504 | 88 | 242 | 0.0 | 3.0 | 0.00 | 0.00 | 0.00 | 43 | 1011.4 |
| 20260903014404 | 88 | 242 | 1.0 | 3.0 | 0.00 | 0.00 | 0.00 | 43 | 1011.4 |
| 20260903014304 | 88 | 242 | 1.0 | 3.0 | 0.00 | 0.00 | 0.00 | 43 | 1011.5 |
| 20260903014204 | 88 | 242 | 1.0 | 3.0 | 0.00 | 0.00 | 0.00 | 43 | 1011.4 |
| 20260903014104 | 88 | 242 | 1.0 | 3.0 | 0.00 | 0.00 | 0.00 | 43 | 1011.4 |
| 20260903014004 | 88 | 242 | 1.0 | 3.0 | 0.00 | 0.00 | 0.00 | 43 | 1011.4 |
| 20260903013904 | 88 | 242 | 1.0 | 3.0 | 0.00 | 0.00 | 0.00 | 43 | 1011.4 |
| 20260903013804 | 88 | 242 | 1.0 | 4.0 | 0.00 | 0.00 | 0.00 | 43 | 1011.4 |
| 20260903013704 | 88 | 242 | 1.0 | 4.0 | 0.00 | 0.00 | 0.00 | 43 | 1011.3 |
| 20260903013604 | 88 | 243 | 1.0 | 4.0 | 0.00 | 0.00 | 0.00 | 44 | 1011.3 |
| 20260903013504 | 88 | 243 | 1.0 | 4.0 | 0.00 | 0.00 | 0.00 | 44 | 1011.3 |
| 20260903013404 | 88 | 243 | 1.0 | 4.0 | 0.00 | 0.00 | 0.00 | 44 | 1011.3 |
| 20260903013304 | 88 | 243 | 1.0 | 4.0 | 0.00 | 0.00 | 0.00 | 44 | 1011.3 |
| 20260903013204 | 88 | 243 | 2.0 | 4.0 | 0.00 | 0.00 | 0.00 | 44 | 1011.3 |
| 20260903013104 | 88 | 243 | 2.0 | 4.0 | 0.00 | 0.00 | 0.00 | 44 | 1011.4 |
| 20260903013004 | 88 | 243 | 2.0 | 4.0 | 0.00 | 0.00 | 0.00 | 44 | 1011.3 |
| 20260903012904 | 88 | 244 | 2.0 | 4.0 | 0.00 | 0.00 | 0.00 | 44 | 1011.4 |
| 20260903012825 | 88 | 244 | 2.0 | 4.0 | 0.00 | 0.00 | 0.00 | 44 | 1011.4 |
| 20260903012704 | 88 | 244 | 2.0 | 4.0 | 0.00 | 0.00 | 0.00 | 44 | 1011.4 |
| 20260903012604 | 88 | 244 | 2.0 | 4.0 | 0.00 | 0.00 | 0.00 | 44 | 1011.4 |
| 20260903012525 | 88 | 244 | 2.0 | 4.0 | 0.00 | 0.00 | 0.00 | 44 | 1011.4 |
| 20260903012404 | 88 | 244 | 2.0 | 5.0 | 0.00 | 0.00 | 0.00 | 44 | 1011.4 |
| 20260903012306 | 88 | 245 | 2.0 | 5.0 | 0.00 | 0.00 | 0.00 | 44 | 1011.4 |
| 20260903012204 | 89 | 245 | 2.0 | 5.0 | 0.00 | 0.00 | 0.00 | 44 | 1011.4 |
| 20260903012104 | 89 | 245 | 2.0 | 6.0 | 0.00 | 0.00 | 0.00 | 44 | 1011.4 |
| 20260903012025 | 89 | 245 | 2.0 | 6.0 | 0.00 | 0.00 | 0.00 | 44 | 1011.4 |
| 20260903011904 | 89 | 245 | 2.0 | 6.0 | 0.00 | 0.00 | 0.00 | 44 | 1011.5 |
| 20260903011804 | 89 | 245 | 2.0 | 6.0 | 0.00 | 0.00 | 0.00 | 44 | 1011.5 |
| 20260903011704 | 89 | 245 | 2.0 | 6.0 | 0.00 | 0.00 | 0.00 | 44 | 1011.4 |
| 20260903011604 | 89 | 245 | 2.0 | 6.0 | 0.00 | 0.00 | 0.00 | 44 | 1011.5 |
| 20260903011525 | 89 | 245 | 2.0 | 6.0 | 0.00 | 0.00 | 0.00 | 44 | 1011.4 |
| 20260903011404 | 89 | 245 | 2.0 | 6.0 | 0.00 | 0.00 | 0.00 | 44 | 1011.4 |
| 20260903011325 | 89 | 245 | 3.0 | 6.0 | 0.00 | 0.00 | 0.00 | 44 | 1011.4 |
| 20260903011204 | 89 | 245 | 2.0 | 6.0 | 0.00 | 0.00 | 0.00 | 44 | 1011.5 |
| 20260903011104 | 89 | 245 | 2.0 | 5.0 | 0.00 | 0.00 | 0.00 | 44 | 1011.5 |
| 20260903011004 | 89 | 246 | 2.0 | 5.0 | 0.00 | 0.00 | 0.00 | 44 | 1011.5 |
| 20260903010904 | 89 | 246 | 2.0 | 5.0 | 0.00 | 0.00 | 0.00 | 44 | 1011.5 |
| 20260903010804 | 89 | 246 | 2.0 | 5.0 | 0.00 | 0.00 | 0.00 | 44 | 1011.5 |
| 20260903010704 | 89 | 247 | 2.0 | 5.0 | 0.00 | 0.00 | 0.00 | 44 | 1011.5 |
| 20260903010625 | 89 | 247 | 2.0 | 5.0 | 0.00 | 0.00 | 0.00 | 44 | 1011.5 |
| 20260903010504 | 89 | 248 | 2.0 | 5.0 | 0.00 | 0.00 | 0.00 | 44 | 1011.4 |
| 20260903010404 | 90 | 248 | 2.0 | 5.0 | 0.00 | 0.00 | 0.00 | 44 | 1011.5 |
| 20260903010304 | 90 | 249 | 2.0 | 5.0 | 0.00 | 0.00 | 0.00 | 44 | 1011.5 |
| 20260903010225 | 90 | 249 | 2.0 | 4.0 | 0.00 | 0.00 | 0.00 | 44 | 1011.5 |
| 20260903010104 | 90 | 250 | 2.0 | 6.0 | 0.00 | 0.00 | 0.00 | 43 | 1011.5 |
| 20260903010004 | 90 | 250 | 2.0 | 6.0 | 0.00 | 0.00 | 0.00 | 43 | 1011.5 |
| 20260903005904 | 90 | 251 | 3.0 | 6.0 | 0.00 | 0.00 | 0.00 | 43 | 1011.5 |
| 20260903005804 | 90 | 251 | 2.0 | 6.0 | 0.00 | 0.00 | 0.00 | 43 | 1011.6 |
| 20260903005704 | 90 | 252 | 2.0 | 6.0 | 0.00 | 0.00 | 0.00 | 43 | 1011.6 |
| 20260903005604 | 90 | 252 | 2.0 | 6.0 | 0.00 | 0.00 | 0.00 | 43 | 1011.6 |
| 20260903005504 | 90 | 252 | 2.0 | 6.0 | 0.00 | 0.00 | 0.00 | 43 | 1011.6 |
| 20260903005404 | 90 | 252 | 3.0 | 6.0 | 0.00 | 0.00 | 0.00 | 43 | 1011.6 |
| 20260903005306 | 90 | 252 | 3.0 | 7.0 | 0.00 | 0.00 | 0.00 | 43 | 1011.5 |
| 20260903005225 | 90 | 252 | 3.0 | 7.0 | 0.00 | 0.00 | 0.00 | 43 | 1011.6 |
| 20260903005104 | 90 | 252 | 3.0 | 7.0 | 0.00 | 0.00 | 0.00 | 43 | 1011.5 |
| 20260903005004 | 90 | 252 | 3.0 | 7.0 | 0.00 | 0.00 | 0.00 | 43 | 1011.5 |
| 20260903004925 | 90 | 251 | 3.0 | 7.0 | 0.00 | 0.00 | 0.00 | 43 | 1011.6 |
| 20260903004804 | 90 | 253 | 3.0 | 7.0 | 0.00 | 0.00 | 0.00 | 43 | 1011.5 |
| 20260903004704 | 90 | 252 | 3.0 | 7.0 | 0.00 | 0.00 | 0.00 | 43 | 1011.6 |
| 20260903004625 | 91 | 251 | 3.0 | 7.0 | 0.00 | 0.00 | 0.00 | 43 | 1011.6 |
| 20260903004525 | 91 | 250 | 3.0 | 7.0 | 0.00 | 0.00 | 0.00 | 43 | 1011.6 |
| 20260903004404 | 91 | 252 | 3.0 | 7.0 | 0.00 | 0.00 | 0.00 | 43 | 1011.6 |
| 20260903004304 | 91 | 254 | 3.0 | 6.0 | 0.00 | 0.00 | 0.00 | 42 | 1011.6 |
| 20260903004204 | 91 | 255 | 3.0 | 6.0 | 0.00 | 0.00 | 0.00 | 42 | 1011.6 |
| 20260903004104 | 91 | 259 | 3.0 | 7.0 | 0.00 | 0.00 | 0.00 | 42 | 1011.6 |
| 20260903004004 | 91 | 261 | 3.0 | 7.0 | 0.00 | 0.00 | 0.00 | 42 | 1011.6 |
| 20260903003904 | 91 | 262 | 3.0 | 7.0 | 0.00 | 0.00 | 0.00 | 42 | 1011.6 |
| 20260903003804 | 91 | 269 | 3.0 | 7.0 | 0.00 | 0.00 | 0.00 | 42 | 1011.6 |
| 20260903003704 | 91 | 276 | 3.0 | 7.0 | 0.00 | 0.00 | 0.00 | 42 | 1011.5 |
| 20260903003604 | 91 | 285 | 3.0 | 7.0 | 0.00 | 0.00 | 0.00 | 42 | 1011.5 |
| 20260903003504 | 91 | 292 | 3.0 | 7.0 | 0.00 | 0.00 | 0.00 | 42 | 1011.6 |
| 20260903003404 | 91 | 300 | 3.0 | 7.0 | 0.00 | 0.00 | 0.00 | 42 | 1011.5 |
| 20260903003304 | 91 | 305 | 3.0 | 7.0 | 0.00 | 0.00 | 0.00 | 42 | 1011.6 |
| 20260903003204 | 91 | 307 | 3.0 | 7.0 | 0.00 | 0.00 | 0.00 | 42 | 1011.5 |
| 20260903003104 | 91 | 309 | 3.0 | 7.0 | 0.00 | 0.00 | 0.00 | 42 | 1011.5 |
| 20260903003004 | 91 | 321 | 3.0 | 7.0 | 0.00 | 0.00 | 0.00 | 42 | 1011.5 |
| 20260903002904 | 91 | 332 | 3.0 | 7.0 | 0.00 | 0.00 | 0.00 | 42 | 1011.5 |
| 20260903002804 | 91 | 342 | 3.0 | 7.0 | 0.00 | 0.00 | 0.00 | 42 | 1011.5 |
| 20260903002704 | 91 | 348 | 3.0 | 7.0 | 0.00 | 0.00 | 0.00 | 42 | 1011.5 |
| 20260903002604 | 91 | 358 | 3.0 | 6.0 | 0.00 | 0.00 | 0.00 | 42 | 1011.5 |
| 20260903002504 | 91 | 9 | 3.0 | 8.0 | 0.00 | 0.00 | 0.00 | 42 | 1011.6 |
| 20260903002404 | 91 | 19 | 3.0 | 10.0 | 0.00 | 0.00 | 0.00 | 42 | 1011.5 |
| 20260903002306 | 91 | 25 | 4.0 | 10.0 | 0.00 | 0.00 | 0.00 | 42 | 1011.6 |
| 20260903002225 | 91 | 29 | 4.0 | 10.0 | 0.00 | 0.00 | 0.00 | 42 | 1011.5 |
| 20260903002125 | 91 | 34 | 3.0 | 10.0 | 0.00 | 0.00 | 0.00 | 42 | 1011.6 |
| 20260903002004 | 91 | 40 | 3.0 | 10.0 | 0.00 | 0.00 | 0.00 | 42 | 1011.6 |
| 20260903001904 | 91 | 43 | 3.0 | 10.0 | 0.00 | 0.00 | 0.00 | 42 | 1011.6 |
| 20260903001804 | 91 | 47 | 3.0 | 10.0 | 0.00 | 0.00 | 0.00 | 42 | 1011.6 |
| 20260903001725 | 91 | 48 | 3.0 | 10.0 | 0.00 | 0.00 | 0.00 | 42 | 1011.6 |
| 20260903001604 | 91 | 49 | 3.0 | 10.0 | 0.00 | 0.00 | 0.00 | 42 | 1011.6 |
| 20260903001504 | 91 | 53 | 3.0 | 10.0 | 0.00 | 0.00 | 0.00 | 42 | 1011.6 |
| 20260903001404 | 91 | 57 | 3.0 | 5.0 | 0.00 | 0.00 | 0.00 | 42 | 1011.6 |
| 20260903001304 | 91 | 58 | 3.0 | 5.0 | 0.00 | 0.00 | 0.00 | 42 | 1011.7 |
| 20260903001204 | 91 | 59 | 3.0 | 5.0 | 0.00 | 0.00 | 0.00 | 42 | 1011.6 |
| 20260903001104 | 91 | 58 | 3.0 | 5.0 | 0.00 | 0.00 | 0.00 | 43 | 1011.6 |
| 20260903001004 | 90 | 58 | 3.0 | 5.0 | 0.00 | 0.00 | 0.00 | 43 | 1011.6 |
| 20260903000904 | 90 | 57 | 3.0 | 5.0 | 0.00 | 0.00 | 0.00 | 43 | 1011.7 |
| 20260903000804 | 90 | 53 | 3.0 | 6.0 | 0.00 | 0.00 | 0.00 | 44 | 1011.6 |
| 20260903000704 | 90 | 51 | 3.0 | 7.0 | 0.00 | 0.00 | 0.00 | 44 | 1011.7 |
| 20260903000604 | 90 | 49 | 3.0 | 7.0 | 0.00 | 0.00 | 0.00 | 45 | 1011.7 |
| 20260903000525 | 91 | 48 | 4.0 | 7.0 | 0.00 | 0.00 | 0.00 | 45 | 1011.7 |
| 20260903000404 | 91 | 46 | 4.0 | 8.0 | 0.00 | 0.00 | 0.00 | 45 | 1011.7 |
| 20260903000304 | 90 | 46 | 4.0 | 8.0 | 0.00 | 0.00 | 0.00 | 45 | 1011.7 |
| 20260903000204 | 90 | 46 | 5.0 | 11.0 | 0.00 | 0.00 | 0.00 | 46 | 1011.7 |
| 20260903000104 | 90 | 48 | 5.0 | 11.0 | 0.00 | 0.00 | 0.00 | 46 | 1011.7 |
| 20260903000004 | 90 | 49 | 5.0 | 11.0 | 0.00 | 0.00 | 0.00 | 46 | 1011.7 |
| 20260902235904 | 90 | 50 | 5.0 | 11.0 | 0.00 | 0.00 | 0.00 | 46 | 1011.7 |
| 20260902235804 | 90 | 53 | 6.0 | 11.0 | 0.00 | 0.00 | 0.00 | 46 | 1011.7 |
| 20260902235704 | 90 | 55 | 6.0 | 11.0 | 0.00 | 0.00 | 0.00 | 47 | 1011.6 |
| 20260902235604 | 90 | 55 | 6.0 | 11.0 | 0.00 | 0.00 | 0.00 | 47 | 1011.7 |
| 20260902235504 | 90 | 56 | 6.0 | 11.0 | 0.00 | 0.00 | 0.00 | 47 | 1011.7 |
| 20260902235404 | 90 | 57 | 6.0 | 11.0 | 0.00 | 0.00 | 0.00 | 47 | 1011.7 |
| 20260902235305 | 90 | 59 | 6.0 | 11.0 | 0.00 | 0.00 | 0.00 | 47 | 1011.8 |
| 20260902235225 | 90 | 59 | 5.0 | 11.0 | 0.00 | 0.00 | 0.00 | 47 | 1011.8 |
| 20260902235125 | 90 | 59 | 5.0 | 10.0 | 0.00 | 0.00 | 0.00 | 47 | 1011.8 |
| 20260902235004 | 90 | 61 | 5.0 | 10.0 | 0.00 | 0.00 | 0.00 | 48 | 1011.8 |
| 20260902234904 | 90 | 63 | 5.0 | 13.0 | 0.00 | 0.00 | 0.00 | 48 | 1011.8 |
| 20260902234804 | 90 | 63 | 5.0 | 13.0 | 0.00 | 0.00 | 0.00 | 48 | 1011.7 |
| 20260902234704 | 90 | 66 | 5.0 | 13.0 | 0.00 | 0.00 | 0.00 | 48 | 1011.7 |
| 20260902234604 | 90 | 70 | 5.0 | 13.0 | 0.00 | 0.00 | 0.00 | 48 | 1011.8 |
| 20260902234504 | 90 | 73 | 5.0 | 13.0 | 0.00 | 0.00 | 0.00 | 48 | 1011.8 |
| 20260902234425 | 91 | 75 | 5.0 | 13.0 | 0.00 | 0.00 | 0.00 | 48 | 1011.8 |
| 20260902234304 | 91 | 76 | 5.0 | 13.0 | 0.00 | 0.00 | 0.00 | 48 | 1011.8 |
| 20260902234225 | 91 | 77 | 6.0 | 13.0 | 0.00 | 0.00 | 0.00 | 48 | 1011.8 |
| 20260902234104 | 91 | 76 | 6.0 | 13.0 | 0.00 | 0.00 | 0.00 | 47 | 1011.9 |
| 20260902234004 | 91 | 73 | 6.0 | 13.0 | 0.00 | 0.00 | 0.00 | 48 | 1012.0 |
| 20260902233904 | 91 | 71 | 6.0 | 12.0 | 0.00 | 0.00 | 0.00 | 48 | 1011.9 |
| 20260902233825 | 92 | 71 | 5.0 | 12.0 | 0.00 | 0.00 | 0.00 | 48 | 1011.9 |
| 20260902233704 | 92 | 70 | 5.0 | 11.0 | 0.00 | 0.00 | 0.00 | 46 | 1011.9 |
| 20260902233604 | 93 | 69 | 4.0 | 11.0 | 0.00 | 0.00 | 0.00 | 46 | 1011.9 |
| 20260902233525 | 93 | 68 | 4.0 | 10.0 | 0.00 | 0.00 | 0.00 | 46 | 1012.0 |
| 20260902233404 | 93 | 76 | 4.0 | 10.0 | 0.00 | 0.00 | 0.00 | 45 | 1012.0 |
| 20260902233304 | 94 | 77 | 4.0 | 10.0 | 0.00 | 0.00 | 0.00 | 45 | 1012.0 |
| 20260902233204 | 94 | 77 | 3.0 | 10.0 | 0.00 | 0.00 | 0.00 | 45 | 1012.0 |
| 20260902233104 | 94 | 80 | 2.0 | 10.0 | 0.00 | 0.00 | 0.00 | 45 | 1012.0 |
| 20260902233004 | 94 | 100 | 2.0 | 7.0 | 0.00 | 0.00 | 0.00 | 44 | 1012.0 |
| 20260902232904 | 94 | 130 | 1.0 | 6.0 | 0.00 | 0.00 | 0.00 | 44 | 1012.0 |
| 20260902232804 | 94 | 158 | 1.0 | 6.0 | 0.00 | 0.00 | 0.00 | 43 | 1012.1 |
| 20260902232704 | 95 | 179 | 2.0 | 6.0 | 0.00 | 0.00 | 0.00 | 43 | 1012.0 |
| 20260902232604 | 95 | 181 | 2.0 | 8.0 | 0.00 | 0.00 | 0.00 | 43 | 1012.0 |
| 20260902232504 | 95 | 186 | 2.0 | 8.0 | 0.00 | 0.00 | 0.00 | 43 | 1011.9 |
| 20260902232404 | 95 | 198 | 2.0 | 8.0 | 0.00 | 0.00 | 0.00 | 43 | 1011.9 |
| 20260902232306 | 95 | 201 | 2.0 | 8.0 | 0.00 | 0.00 | 0.00 | 43 | 1011.8 |
| 20260902232204 | 95 | 209 | 2.0 | 8.0 | 0.00 | 0.00 | 0.00 | 43 | 1011.7 |
| 20260902232104 | 95 | 215 | 3.0 | 8.0 | 0.00 | 0.00 | 0.00 | 43 | 1011.7 |
| 20260902232004 | 95 | 223 | 3.0 | 8.0 | 0.00 | 0.00 | 0.00 | 43 | 1011.7 |
| 20260902231904 | 95 | 227 | 3.0 | 8.0 | 0.00 | 0.00 | 0.00 | 43 | 1011.6 |
| 20260902231804 | 95 | 233 | 3.0 | 8.0 | 0.00 | 0.00 | 0.00 | 42 | 1011.6 |
| 20260902231704 | 96 | 238 | 3.0 | 8.0 | 0.00 | 0.00 | 0.00 | 42 | 1011.5 |
| 20260902231604 | 96 | 246 | 3.0 | 8.0 | 0.00 | 0.00 | 0.00 | 42 | 1011.6 |
| 20260902231525 | 96 | 250 | 3.0 | 8.0 | 0.00 | 0.00 | 0.00 | 42 | 1011.5 |
| 20260902231404 | 96 | 257 | 3.0 | 8.0 | 0.00 | 0.00 | 0.00 | 42 | 1011.4 |
| 20260902231304 | 96 | 261 | 3.0 | 8.0 | 0.00 | 0.00 | 0.00 | 41 | 1011.4 |
| 20260902231204 | 97 | 264 | 3.0 | 8.0 | 0.00 | 0.00 | 0.00 | 41 | 1011.3 |
| 20260902231125 | 97 | 264 | 2.0 | 8.0 | 0.00 | 0.00 | 0.00 | 41 | 1011.3 |
| 20260902231025 | 97 | 265 | 2.0 | 8.0 | 0.00 | 0.00 | 0.00 | 40 | 1011.3 |
| 20260902230904 | 98 | 293 | 2.0 | 8.0 | 0.00 | 0.00 | 0.00 | 39 | 1011.3 |
| 20260902230804 | 98 | 352 | 2.0 | 8.0 | 0.00 | 0.00 | 0.00 | 39 | 1011.3 |
| 20260902230704 | 99 | 34 | 1.0 | 8.0 | 0.00 | 0.00 | 0.00 | 38 | 1011.2 |
| 20260902230625 | 99 | 50 | 1.0 | 3.0 | 0.00 | 0.00 | 0.00 | 38 | 1011.2 |
| 20260902230504 | 99 | 50 | 1.0 | 4.0 | 0.00 | 0.00 | 0.00 | 38 | 1011.2 |
| 20260902230404 | 99 | 50 | 1.0 | 4.0 | 0.00 | 0.00 | 0.00 | 38 | 1011.1 |
| 20260902230306 | 99 | 51 | 1.0 | 4.0 | 0.00 | 0.00 | 0.00 | 38 | 1011.1 |
| 20260902230204 | 99 | 52 | 2.0 | 4.0 | 0.00 | 0.00 | 0.00 | 38 | 1011.1 |
| 20260902230104 | 99 | 53 | 2.0 | 5.0 | 0.00 | 0.00 | 0.00 | 38 | 1011.1 |
| 20260902230004 | 99 | 54 | 2.0 | 5.0 | 0.00 | 0.00 | 0.00 | 38 | 1011.0 |
| 20260902225904 | 99 | 54 | 3.0 | 6.0 | 0.00 | 0.00 | 0.00 | 38 | 1011.0 |
| 20260902225804 | 99 | 53 | 3.0 | 7.0 | 0.00 | 0.00 | 0.00 | 38 | 1011.1 |
| 20260902225704 | 99 | 53 | 3.0 | 7.0 | 0.00 | 0.00 | 0.00 | 38 | 1011.1 |
| 20260902225604 | 99 | 54 | 3.0 | 7.0 | 0.00 | 0.00 | 0.00 | 38 | 1011.0 |
| 20260902225504 | 99 | 54 | 3.0 | 7.0 | 0.00 | 0.00 | 0.00 | 38 | 1011.1 |
| 20260902225404 | 99 | 55 | 3.0 | 7.0 | 0.00 | 0.00 | 0.00 | 38 | 1011.0 |
| 20260902225306 | 99 | 55 | 3.0 | 7.0 | 0.00 | 0.00 | 0.00 | 38 | 1011.1 |
| 20260902225204 | 99 | 54 | 4.0 | 7.0 | 0.00 | 0.00 | 0.00 | 38 | 1011.1 |
| 20260902225104 | 99 | 55 | 3.0 | 7.0 | 0.00 | 0.00 | 0.00 | 38 | 1011.0 |
| 20260902225004 | 99 | 55 | 3.0 | 7.0 | 0.00 | 0.00 | 0.00 | 38 | 1011.0 |
| 20260902224904 | 99 | 56 | 3.0 | 7.0 | 0.00 | 0.00 | 0.00 | 37 | 1011.0 |
| 20260902224804 | 99 | 59 | 3.0 | 6.0 | 0.00 | 0.00 | 0.00 | 38 | 1011.0 |
| 20260902224704 | 99 | 60 | 3.0 | 6.0 | 0.00 | 0.00 | 0.00 | 37 | 1011.1 |
| 20260902224604 | 99 | 60 | 3.0 | 6.0 | 0.00 | 0.00 | 0.00 | 37 | 1011.0 |
| 20260902224504 | 99 | 61 | 3.0 | 6.0 | 0.00 | 0.00 | 0.00 | 37 | 1011.1 |
| 20260902224404 | 99 | 61 | 3.0 | 6.0 | 0.00 | 0.00 | 0.00 | 37 | 1011.0 |
| 20260902224304 | 100 | 64 | 3.0 | 6.0 | 0.00 | 0.00 | 0.00 | 37 | 1011.1 |
| 20260902224204 | 100 | 67 | 3.0 | 6.0 | 0.00 | 0.00 | 0.00 | 37 | 1011.0 |
| 20260902224125 | 100 | 68 | 3.0 | 6.0 | 0.00 | 0.00 | 0.00 | 37 | 1011.0 |
| 20260902224004 | 100 | 69 | 3.0 | 6.0 | 0.00 | 0.00 | 0.00 | 37 | 1011.0 |
| 20260902223904 | 100 | 69 | 2.0 | 6.0 | 0.00 | 0.00 | 0.00 | 36 | 1011.0 |
| 20260902223825 | 100 | 70 | 2.0 | 6.0 | 0.00 | 0.00 | 0.00 | 37 | 1011.0 |
| 20260902223704 | 100 | 74 | 2.0 | 6.0 | 0.00 | 0.00 | 0.00 | 36 | 1011.0 |
| 20260902223604 | 100 | 76 | 2.0 | 6.0 | 0.00 | 0.00 | 0.00 | 36 | 1011.0 |
| 20260902223504 | 101 | 80 | 2.0 | 6.0 | 0.00 | 0.00 | 0.00 | 36 | 1011.0 |
| 20260902223404 | 101 | 87 | 1.0 | 6.0 | 0.00 | 0.00 | 0.00 | 36 | 1011.0 |
| 20260902223325 | 101 | 91 | 1.0 | 4.0 | 0.00 | 0.00 | 0.00 | 36 | 1011.0 |
| 20260902223204 | 101 | 94 | 1.0 | 3.0 | 0.00 | 0.00 | 0.00 | 36 | 1011.0 |
| 20260902223104 | 101 | 97 | 1.0 | 3.0 | 0.00 | 0.00 | 0.00 | 36 | 1010.9 |
| 20260902223004 | 101 | 99 | 1.0 | 3.0 | 0.00 | 0.00 | 0.00 | 36 | 1011.0 |
| 20260902222904 | 101 | 101 | 1.0 | 3.0 | 0.00 | 0.00 | 0.00 | 35 | 1010.9 |
| 20260902222804 | 101 | 109 | 1.0 | 3.0 | 0.00 | 0.00 | 0.00 | 35 | 1010.9 |
| 20260902222725 | 101 | 114 | 1.0 | 3.0 | 0.00 | 0.00 | 0.00 | 35 | 1010.9 |
| 20260902222606 | 101 | 124 | 1.0 | 3.0 | 0.00 | 0.00 | 0.00 | 36 | 1011.0 |
| 20260902222504 | 101 | 133 | 1.0 | 3.0 | 0.00 | 0.00 | 0.00 | 36 | 1011.0 |
| 20260902222404 | 101 | 138 | 1.0 | 3.0 | 0.00 | 0.00 | 0.00 | 36 | 1011.0 |
| 20260902222306 | 100 | 146 | 1.0 | 4.0 | 0.00 | 0.00 | 0.00 | 36 | 1011.0 |
| 20260902222204 | 100 | 147 | 2.0 | 4.0 | 0.00 | 0.00 | 0.00 | 37 | 1011.0 |
| 20260902222104 | 100 | 149 | 2.0 | 7.0 | 0.00 | 0.00 | 0.00 | 37 | 1011.0 |
| 20260902222004 | 100 | 146 | 2.0 | 7.0 | 0.00 | 0.00 | 0.00 | 37 | 1011.1 |
| 20260902221904 | 99 | 142 | 2.0 | 7.0 | 0.00 | 0.00 | 0.00 | 37 | 1011.1 |
| 20260902221804 | 99 | 138 | 2.0 | 7.0 | 0.00 | 0.00 | 0.00 | 37 | 1011.1 |
| 20260902221704 | 99 | 131 | 2.0 | 7.0 | 0.00 | 0.00 | 0.00 | 37 | 1011.0 |
| 20260902221604 | 99 | 124 | 2.0 | 7.0 | 0.00 | 0.00 | 0.00 | 37 | 1011.0 |
| 20260902221504 | 99 | 115 | 3.0 | 7.0 | 0.00 | 0.00 | 0.00 | 37 | 1011.0 |
| 20260902221404 | 99 | 110 | 2.0 | 7.0 | 0.00 | 0.00 | 0.00 | 37 | 1011.0 |
| 20260902221304 | 99 | 104 | 2.0 | 7.0 | 0.00 | 0.00 | 0.00 | 37 | 1011.1 |
| 20260902221204 | 99 | 101 | 2.0 | 7.0 | 0.00 | 0.00 | 0.00 | 37 | 1011.1 |
| 20260902221104 | 100 | 86 | 2.0 | 6.0 | 0.00 | 0.00 | 0.00 | 37 | 1011.1 |
| 20260902221004 | 99 | 80 | 2.0 | 5.0 | 0.00 | 0.00 | 0.00 | 37 | 1011.1 |
| 20260902220904 | 99 | 76 | 2.0 | 5.0 | 0.00 | 0.00 | 0.00 | 37 | 1011.1 |
| 20260902220804 | 100 | 70 | 2.0 | 6.0 | 0.00 | 0.00 | 0.00 | 37 | 1011.1 |
| 20260902220704 | 100 | 64 | 2.0 | 6.0 | 0.00 | 0.00 | 0.00 | 37 | 1011.1 |
| 20260902220604 | 100 | 61 | 2.0 | 6.0 | 0.00 | 0.00 | 0.00 | 37 | 1011.0 |
| 20260902220504 | 100 | 61 | 2.0 | 6.0 | 0.00 | 0.00 | 0.00 | 37 | 1011.1 |
| 20260902220404 | 100 | 61 | 2.0 | 6.0 | 0.00 | 0.00 | 0.00 | 37 | 1011.1 |
| 20260902220325 | 100 | 61 | 2.0 | 6.0 | 0.00 | 0.00 | 0.00 | 37 | 1011.0 |
| 20260902220204 | 100 | 61 | 2.0 | 6.0 | 0.00 | 0.00 | 0.00 | 37 | 1011.1 |
| 20260902220104 | 100 | 60 | 2.0 | 6.0 | 0.00 | 0.00 | 0.00 | 37 | 1011.1 |
| 20260902220004 | 100 | 60 | 2.0 | 6.0 | 0.00 | 0.00 | 0.00 | 36 | 1011.1 |
| 20260902215904 | 100 | 60 | 1.0 | 6.0 | 0.00 | 0.00 | 0.00 | 37 | 1011.1 |
| 20260902215804 | 100 | 59 | 1.0 | 5.0 | 0.00 | 0.00 | 0.00 | 36 | 1011.1 |
| 20260902215704 | 100 | 58 | 1.0 | 5.0 | 0.00 | 0.00 | 0.00 | 36 | 1011.2 |
| 20260902215604 | 100 | 58 | 0.0 | 5.0 | 0.00 | 0.00 | 0.00 | 35 | 1011.2 |
| 20260902215504 | 100 | 57 | 0.0 | 2.0 | 0.00 | 0.00 | 0.00 | 36 | 1011.1 |
| 20260902215404 | 100 | 57 | 0.0 | 2.0 | 0.00 | 0.00 | 0.00 | 36 | 1011.2 |
| 20260902215306 | 100 | 57 | 0.0 | 2.0 | 0.00 | 0.00 | 0.00 | 36 | 1011.1 |
| 20260902215204 | 100 | 57 | 0.0 | 2.0 | 0.00 | 0.00 | 0.00 | 36 | 1011.2 |
| 20260902215104 | 100 | 57 | 1.0 | 2.0 | 0.00 | 0.00 | 0.00 | 36 | 1011.1 |
| 20260902215004 | 100 | 57 | 1.0 | 3.0 | 0.00 | 0.00 | 0.00 | 36 | 1011.2 |
| 20260902214904 | 100 | 57 | 1.0 | 3.0 | 0.00 | 0.00 | 0.00 | 36 | 1011.2 |
| 20260902214804 | 100 | 57 | 1.0 | 3.0 | 0.00 | 0.00 | 0.00 | 36 | 1011.2 |
| 20260902214704 | 100 | 57 | 1.0 | 3.0 | 0.00 | 0.00 | 0.00 | 36 | 1011.2 |
| 20260902214625 | 100 | 59 | 1.0 | 3.0 | 0.00 | 0.00 | 0.00 | 36 | 1011.2 |
| 20260902214504 | 100 | 64 | 2.0 | 5.0 | 0.00 | 0.00 | 0.00 | 36 | 1011.2 |
| 20260902214404 | 100 | 65 | 2.0 | 6.0 | 0.00 | 0.00 | 0.00 | 37 | 1011.3 |
| 20260902214304 | 100 | 67 | 2.0 | 6.0 | 0.00 | 0.00 | 0.00 | 36 | 1011.3 |
| 20260902214204 | 99 | 69 | 2.0 | 6.0 | 0.00 | 0.00 | 0.00 | 37 | 1011.3 |
| 20260902214104 | 99 | 71 | 2.0 | 6.0 | 0.00 | 0.00 | 0.00 | 37 | 1011.3 |
| 20260902214004 | 99 | 79 | 2.0 | 6.0 | 0.00 | 0.00 | 0.00 | 37 | 1011.3 |
| 20260902213904 | 99 | 80 | 2.0 | 6.0 | 0.00 | 0.00 | 0.00 | 37 | 1011.3 |
| 20260902213825 | 99 | 80 | 2.0 | 6.0 | 0.00 | 0.00 | 0.00 | 37 | 1011.3 |
| 20260902213704 | 99 | 80 | 3.0 | 6.0 | 0.00 | 0.00 | 0.00 | 37 | 1011.3 |
| 20260902213604 | 99 | 77 | 3.0 | 8.0 | 0.00 | 0.00 | 0.00 | 37 | 1011.3 |
| 20260902213504 | 99 | 74 | 3.0 | 8.0 | 0.00 | 0.00 | 0.00 | 37 | 1011.3 |
| 20260902213404 | 99 | 72 | 3.0 | 8.0 | 0.00 | 0.00 | 0.00 | 37 | 1011.3 |
| 20260902213304 | 99 | 71 | 3.0 | 8.0 | 0.00 | 0.00 | 0.00 | 37 | 1011.3 |
| 20260902213225 | 99 | 69 | 3.0 | 8.0 | 0.00 | 0.00 | 0.00 | 37 | 1011.3 |
| 20260902213104 | 99 | 68 | 3.0 | 8.0 | 0.00 | 0.00 | 0.00 | 37 | 1011.3 |
| 20260902213025 | 99 | 66 | 3.0 | 8.0 | 0.00 | 0.00 | 0.00 | 37 | 1011.3 |
| 20260902212925 | 100 | 62 | 3.0 | 8.0 | 0.00 | 0.00 | 0.00 | 37 | 1011.3 |
| 20260902212825 | 100 | 62 | 3.0 | 8.0 | 0.00 | 0.00 | 0.00 | 37 | 1011.4 |
| 20260902212704 | 100 | 61 | 2.0 | 8.0 | 0.00 | 0.00 | 0.00 | 36 | 1011.4 |
| 20260902212604 | 100 | 61 | 2.0 | 6.0 | 0.00 | 0.00 | 0.00 | 36 | 1011.4 |
| 20260902212504 | 100 | 64 | 2.0 | 6.0 | 0.00 | 0.00 | 0.00 | 37 | 1011.4 |
| 20260902212425 | 100 | 65 | 2.0 | 6.0 | 0.00 | 0.00 | 0.00 | 37 | 1011.4 |
| 20260902212306 | 100 | 66 | 1.0 | 4.0 | 0.00 | 0.00 | 0.00 | 36 | 1011.4 |
| 20260902212225 | 100 | 66 | 1.0 | 4.0 | 0.00 | 0.00 | 0.00 | 36 | 1011.4 |
| 20260902212104 | 100 | 67 | 1.0 | 4.0 | 0.00 | 0.00 | 0.00 | 37 | 1011.3 |
| 20260902212004 | 100 | 67 | 1.0 | 4.0 | 0.00 | 0.00 | 0.00 | 37 | 1011.4 |
| 20260902211904 | 100 | 67 | 1.0 | 4.0 | 0.00 | 0.00 | 0.00 | 36 | 1011.4 |
| 20260902211825 | 100 | 67 | 1.0 | 4.0 | 0.00 | 0.00 | 0.00 | 36 | 1011.3 |
| 20260902211704 | 100 | 67 | 1.0 | 4.0 | 0.00 | 0.00 | 0.00 | 36 | 1011.4 |
| 20260902211604 | 100 | 67 | 1.0 | 3.0 | 0.00 | 0.00 | 0.00 | 36 | 1011.4 |
| 20260902211504 | 100 | 67 | 1.0 | 2.0 | 0.00 | 0.00 | 0.00 | 37 | 1011.4 |
| 20260902211404 | 99 | 67 | 0.0 | 2.0 | 0.00 | 0.00 | 0.00 | 37 | 1011.4 |
| 20260902211304 | 99 | 68 | 0.0 | 2.0 | 0.00 | 0.00 | 0.00 | 37 | 1011.4 |
| 20260902211204 | 99 | 68 | 0.0 | 1.0 | 0.00 | 0.00 | 0.00 | 36 | 1011.4 |
| 20260902211104 | 99 | 68 | 0.0 | 3.0 | 0.00 | 0.00 | 0.00 | 37 | 1011.5 |
| 20260902211025 | 99 | 68 | 1.0 | 3.0 | 0.00 | 0.00 | 0.00 | 37 | 1011.4 |
| 20260902210925 | 99 | 67 | 1.0 | 3.0 | 0.00 | 0.00 | 0.00 | 37 | 1011.4 |
| 20260902210804 | 99 | 67 | 1.0 | 3.0 | 0.00 | 0.00 | 0.00 | 37 | 1011.4 |
| 20260902210704 | 99 | 67 | 1.0 | 3.0 | 0.00 | 0.00 | 0.00 | 37 | 1011.4 |
| 20260902210604 | 100 | 67 | 1.0 | 3.0 | 0.00 | 0.00 | 0.00 | 37 | 1011.4 |
| 20260902210504 | 100 | 67 | 1.0 | 3.0 | 0.00 | 0.00 | 0.00 | 37 | 1011.4 |
| 20260902210404 | 100 | 67 | 1.0 | 3.0 | 0.00 | 0.00 | 0.00 | 36 | 1011.4 |
| 20260902210304 | 100 | 67 | 1.0 | 3.0 | 0.00 | 0.00 | 0.00 | 36 | 1011.4 |
| 20260902210204 | 100 | 67 | 1.0 | 3.0 | 0.00 | 0.00 | 0.00 | 36 | 1011.5 |
| 20260902210104 | 100 | 66 | 1.0 | 2.0 | 0.00 | 0.00 | 0.00 | 36 | 1011.5 |
| 20260902210004 | 100 | 66 | 1.0 | 2.0 | 0.00 | 0.00 | 0.00 | 36 | 1011.6 |
| 20260902205904 | 100 | 66 | 1.0 | 3.0 | 0.00 | 0.00 | 0.00 | 36 | 1011.6 |
| 20260902205804 | 100 | 66 | 1.0 | 3.0 | 0.00 | 0.00 | 0.00 | 36 | 1011.6 |
| 20260902205704 | 100 | 66 | 1.0 | 3.0 | 0.00 | 0.00 | 0.00 | 36 | 1011.6 |
| 20260902205625 | 100 | 66 | 1.0 | 3.0 | 0.00 | 0.00 | 0.00 | 36 | 1011.7 |
| 20260902205504 | 100 | 66 | 1.0 | 3.0 | 0.00 | 0.00 | 0.00 | 36 | 1011.6 |
| 20260902205404 | 100 | 66 | 1.0 | 3.0 | 0.00 | 0.00 | 0.00 | 37 | 1011.7 |
| 20260902205306 | 100 | 66 | 1.0 | 3.0 | 0.00 | 0.00 | 0.00 | 36 | 1011.6 |
| 20260902205204 | 100 | 66 | 1.0 | 3.0 | 0.00 | 0.00 | 0.00 | 36 | 1011.7 |
| 20260902205104 | 100 | 66 | 1.0 | 3.0 | 0.00 | 0.00 | 0.00 | 36 | 1011.7 |
| 20260902205004 | 100 | 66 | 1.0 | 3.0 | 0.00 | 0.00 | 0.00 | 36 | 1011.8 |
| 20260902204904 | 100 | 66 | 1.0 | 3.0 | 0.00 | 0.00 | 0.00 | 36 | 1011.8 |
| 20260902204804 | 100 | 66 | 1.0 | 3.0 | 0.00 | 0.00 | 0.00 | 36 | 1011.8 |
| 20260902204704 | 100 | 66 | 1.0 | 3.0 | 0.00 | 0.00 | 0.00 | 36 | 1011.8 |
| 20260902204604 | 100 | 66 | 1.0 | 3.0 | 0.00 | 0.00 | 0.00 | 36 | 1011.8 |
| 20260902204504 | 100 | 66 | 1.0 | 3.0 | 0.00 | 0.00 | 0.00 | 35 | 1011.9 |
| 20260902204404 | 100 | 66 | 1.0 | 6.0 | 0.00 | 0.00 | 0.00 | 35 | 1011.8 |
| 20260902204304 | 101 | 59 | 2.0 | 7.0 | 0.00 | 0.00 | 0.00 | 35 | 1011.8 |
| 20260902204204 | 101 | 55 | 2.0 | 7.0 | 0.00 | 0.00 | 0.00 | 36 | 1011.8 |
| 20260902204104 | 101 | 50 | 2.0 | 7.0 | 0.00 | 0.00 | 0.00 | 35 | 1011.8 |
| 20260902204004 | 101 | 52 | 2.0 | 7.0 | 0.00 | 0.00 | 0.00 | 35 | 1011.9 |
| 20260902203904 | 101 | 53 | 2.0 | 7.0 | 0.00 | 0.00 | 0.00 | 35 | 1011.9 |
| 20260902203804 | 101 | 56 | 2.0 | 7.0 | 0.00 | 0.00 | 0.00 | 35 | 1011.9 |
| 20260902203725 | 101 | 59 | 3.0 | 7.0 | 0.00 | 0.00 | 0.00 | 35 | 1011.9 |
| 20260902203604 | 101 | 62 | 3.0 | 7.0 | 0.00 | 0.00 | 0.00 | 35 | 1012.0 |
| 20260902203504 | 101 | 66 | 3.0 | 7.0 | 0.00 | 0.00 | 0.00 | 35 | 1012.0 |
| 20260902203425 | 102 | 68 | 3.0 | 7.0 | 0.00 | 0.00 | 0.00 | 34 | 1012.0 |
| 20260902203304 | 102 | 77 | 2.0 | 7.0 | 0.00 | 0.00 | 0.00 | 35 | 1012.0 |
| 20260902203204 | 102 | 87 | 2.0 | 6.0 | 0.00 | 0.00 | 0.00 | 35 | 1011.9 |
| 20260902203104 | 102 | 100 | 2.0 | 5.0 | 0.00 | 0.00 | 0.00 | 35 | 1012.0 |
| 20260902203004 | 102 | 109 | 1.0 | 4.0 | 0.00 | 0.00 | 0.00 | 35 | 1012.0 |
| 20260902202904 | 102 | 112 | 1.0 | 4.0 | 0.00 | 0.00 | 0.00 | 34 | 1012.0 |
| 20260902202804 | 102 | 116 | 1.0 | 4.0 | 0.00 | 0.00 | 0.00 | 34 | 1012.0 |
| 20260902202704 | 102 | 121 | 1.0 | 4.0 | 0.00 | 0.00 | 0.00 | 34 | 1012.0 |
| 20260902202604 | 102 | 123 | 1.0 | 4.0 | 0.00 | 0.00 | 0.00 | 34 | 1012.1 |
| 20260902202504 | 102 | 131 | 1.0 | 3.0 | 0.00 | 0.00 | 0.00 | 35 | 1012.1 |
| 20260902202404 | 102 | 137 | 1.0 | 3.0 | 0.00 | 0.00 | 0.00 | 35 | 1012.1 |
| 20260902202325 | 102 | 140 | 1.0 | 3.0 | 0.00 | 0.00 | 0.00 | 35 | 1012.1 |
| 20260902202204 | 102 | 146 | 1.0 | 4.0 | 0.00 | 0.00 | 0.00 | 35 | 1012.1 |
| 20260902202104 | 102 | 149 | 1.0 | 4.0 | 0.00 | 0.00 | 0.00 | 35 | 1012.2 |
| 20260902202004 | 101 | 151 | 1.0 | 4.0 | 0.00 | 0.00 | 0.00 | 35 | 1012.2 |
| 20260902201925 | 101 | 152 | 1.0 | 4.0 | 0.00 | 0.00 | 0.00 | 35 | 1012.2 |
| 20260902201804 | 101 | 152 | 2.0 | 4.0 | 0.00 | 0.00 | 0.00 | 36 | 1012.2 |
| 20260902201704 | 101 | 145 | 2.0 | 4.0 | 0.00 | 0.00 | 0.00 | 36 | 1012.2 |
| 20260902201604 | 100 | 138 | 2.0 | 4.0 | 0.00 | 0.00 | 0.00 | 36 | 1012.2 |
| 20260902201504 | 100 | 133 | 2.0 | 4.0 | 0.00 | 0.00 | 0.00 | 37 | 1012.2 |
| 20260902201404 | 100 | 121 | 2.0 | 5.0 | 0.00 | 0.00 | 0.00 | 37 | 1012.2 |
| 20260902201304 | 100 | 110 | 2.0 | 5.0 | 0.00 | 0.00 | 0.00 | 37 | 1012.3 |
| 20260902201225 | 100 | 101 | 3.0 | 5.0 | 0.00 | 0.00 | 0.00 | 37 | 1012.3 |
| 20260902201125 | 99 | 90 | 3.0 | 6.0 | 0.00 | 0.00 | 0.00 | 37 | 1012.3 |
| 20260902201004 | 99 | 70 | 3.0 | 6.0 | 0.00 | 0.00 | 0.00 | 37 | 1012.3 |
| 20260902200904 | 99 | 64 | 3.0 | 6.0 | 0.00 | 0.00 | 0.00 | 37 | 1012.4 |
| 20260902200804 | 99 | 57 | 3.0 | 6.0 | 0.00 | 0.00 | 0.00 | 37 | 1012.4 |
| 20260902200704 | 99 | 49 | 2.0 | 6.0 | 0.00 | 0.00 | 0.00 | 37 | 1012.4 |
| 20260902200625 | 99 | 47 | 2.0 | 6.0 | 0.00 | 0.00 | 0.00 | 37 | 1012.4 |
| 20260902200504 | 99 | 47 | 3.0 | 6.0 | 0.00 | 0.00 | 0.00 | 36 | 1012.5 |
| 20260902200425 | 100 | 46 | 3.0 | 6.0 | 0.00 | 0.00 | 0.00 | 36 | 1012.5 |
| 20260902200304 | 100 | 43 | 3.0 | 6.0 | 0.00 | 0.00 | 0.00 | 36 | 1012.5 |
| 20260902200204 | 100 | 42 | 2.0 | 6.0 | 0.00 | 0.00 | 0.00 | 36 | 1012.4 |
| 20260902200104 | 100 | 51 | 2.0 | 6.0 | 0.00 | 0.00 | 0.00 | 37 | 1012.5 |
| 20260902200004 | 100 | 58 | 2.0 | 5.0 | 0.00 | 0.00 | 0.00 | 37 | 1012.5 |
| 20260902195904 | 99 | 56 | 2.0 | 5.0 | 0.00 | 0.00 | 0.00 | 37 | 1012.5 |
| 20260902195804 | 99 | 55 | 3.0 | 6.0 | 0.00 | 0.00 | 0.00 | 37 | 1012.5 |
| 20260902195704 | 99 | 55 | 3.0 | 6.0 | 0.00 | 0.00 | 0.00 | 37 | 1012.6 |
| 20260902195604 | 99 | 56 | 3.0 | 6.0 | 0.00 | 0.00 | 0.00 | 37 | 1012.6 |
| 20260902195504 | 99 | 58 | 3.0 | 6.0 | 0.00 | 0.00 | 0.00 | 37 | 1012.6 |
| 20260902195404 | 99 | 60 | 3.0 | 6.0 | 0.00 | 0.00 | 0.00 | 37 | 1012.6 |
| 20260902195306 | 99 | 62 | 3.0 | 6.0 | 0.00 | 0.00 | 0.00 | 37 | 1012.6 |
| 20260902195204 | 100 | 63 | 3.0 | 9.0 | 0.00 | 0.00 | 0.00 | 37 | 1012.7 |
| 20260902195104 | 100 | 60 | 3.0 | 9.0 | 0.00 | 0.00 | 0.00 | 36 | 1012.7 |
| 20260902195004 | 100 | 58 | 4.0 | 9.0 | 0.00 | 0.00 | 0.00 | 37 | 1012.7 |
| 20260902194904 | 100 | 55 | 4.0 | 9.0 | 0.00 | 0.00 | 0.00 | 36 | 1012.7 |
| 20260902194804 | 100 | 53 | 4.0 | 9.0 | 0.00 | 0.00 | 0.00 | 37 | 1012.7 |
| 20260902194704 | 100 | 49 | 4.0 | 9.0 | 0.00 | 0.00 | 0.00 | 37 | 1012.7 |
| 20260902194604 | 100 | 41 | 4.0 | 9.0 | 0.00 | 0.00 | 0.00 | 37 | 1012.8 |
| 20260902194504 | 100 | 35 | 4.0 | 9.0 | 0.00 | 0.00 | 0.00 | 36 | 1012.8 |
| 20260902194404 | 100 | 29 | 4.0 | 9.0 | 0.00 | 0.00 | 0.00 | 37 | 1012.9 |
| 20260902194306 | 100 | 25 | 4.0 | 9.0 | 0.00 | 0.00 | 0.00 | 36 | 1012.9 |
| 20260902194225 | 101 | 16 | 4.0 | 9.0 | 0.00 | 0.00 | 0.00 | 36 | 1012.8 |
| 20260902194104 | 101 | 360 | 3.0 | 7.0 | 0.00 | 0.00 | 0.00 | 36 | 1012.9 |
| 20260902194004 | 101 | 1 | 3.0 | 7.0 | 0.00 | 0.00 | 0.00 | 36 | 1012.9 |
| 20260902193904 | 101 | 2 | 3.0 | 7.0 | 0.00 | 0.00 | 0.00 | 36 | 1012.9 |
| 20260902193825 | 100 | 6 | 3.0 | 7.0 | 0.00 | 0.00 | 0.00 | 36 | 1012.9 |
| 20260902193704 | 100 | 10 | 3.0 | 7.0 | 0.00 | 0.00 | 0.00 | 36 | 1013.0 |
| 20260902193604 | 100 | 32 | 3.0 | 7.0 | 0.00 | 0.00 | 0.00 | 37 | 1013.0 |
| 20260902193504 | 100 | 45 | 3.0 | 7.0 | 0.00 | 0.00 | 0.00 | 37 | 1013.0 |
| 20260902193425 | 100 | 52 | 3.0 | 6.0 | 0.00 | 0.00 | 0.00 | 36 | 1013.0 |
| 20260902193304 | 100 | 62 | 3.0 | 6.0 | 0.00 | 0.00 | 0.00 | 37 | 1013.0 |
| 20260902193204 | 100 | 65 | 3.0 | 6.0 | 0.00 | 0.00 | 0.00 | 36 | 1013.0 |
| 20260902193125 | 100 | 67 | 3.0 | 6.0 | 0.00 | 0.00 | 0.00 | 37 | 1013.1 |
| 20260902193004 | 100 | 69 | 3.0 | 6.0 | 0.00 | 0.00 | 0.00 | 36 | 1013.1 |
| 20260902192904 | 100 | 69 | 3.0 | 6.0 | 0.00 | 0.00 | 0.00 | 36 | 1013.1 |
| 20260902192825 | 100 | 69 | 3.0 | 6.0 | 0.00 | 0.00 | 0.00 | 36 | 1013.1 |
| 20260902192704 | 100 | 70 | 3.0 | 6.0 | 0.00 | 0.00 | 0.00 | 36 | 1013.2 |
| 20260902192604 | 101 | 70 | 3.0 | 6.0 | 0.00 | 0.00 | 0.00 | 36 | 1013.2 |
| 20260902192504 | 101 | 73 | 2.0 | 6.0 | 0.00 | 0.00 | 0.00 | 35 | 1013.2 |
| 20260902192404 | 101 | 74 | 2.0 | 6.0 | 0.00 | 0.00 | 0.00 | 36 | 1013.2 |
| 20260902192306 | 102 | 70 | 2.0 | 6.0 | 0.00 | 0.00 | 0.00 | 35 | 1013.2 |
| 20260902192204 | 102 | 70 | 2.0 | 6.0 | 0.00 | 0.00 | 0.00 | 35 | 1013.3 |
| 20260902192104 | 101 | 70 | 2.0 | 6.0 | 0.00 | 0.00 | 0.00 | 35 | 1013.2 |
| 20260902192004 | 101 | 71 | 2.0 | 7.0 | 0.00 | 0.00 | 0.00 | 35 | 1013.3 |
| 20260902191904 | 101 | 71 | 2.0 | 7.0 | 0.00 | 0.00 | 0.00 | 36 | 1013.2 |
| 20260902191825 | 101 | 70 | 2.0 | 7.0 | 0.00 | 0.00 | 0.00 | 36 | 1013.3 |
| 20260902191704 | 100 | 67 | 2.0 | 7.0 | 0.00 | 0.00 | 0.00 | 36 | 1013.3 |
| 20260902191604 | 100 | 63 | 2.0 | 7.0 | 0.00 | 0.00 | 0.00 | 37 | 1013.2 |
| 20260902191504 | 99 | 32 | 2.0 | 7.0 | 0.00 | 0.00 | 0.00 | 36 | 1013.3 |
| 20260902191425 | 99 | 298 | 3.0 | 7.0 | 0.00 | 0.00 | 0.00 | 36 | 1013.3 |
| 20260902191304 | 99 | 270 | 3.0 | 7.0 | 0.00 | 0.00 | 0.00 | 38 | 1013.4 |
| 20260902191204 | 99 | 263 | 3.0 | 8.0 | 0.00 | 0.00 | 0.00 | 37 | 1013.4 |
| 20260902191104 | 99 | 272 | 3.0 | 10.0 | 0.00 | 0.00 | 0.00 | 37 | 1013.4 |
| 20260902191004 | 98 | 295 | 4.0 | 10.0 | 0.00 | 0.00 | 0.00 | 37 | 1013.4 |
| 20260902190904 | 98 | 311 | 4.0 | 10.0 | 0.00 | 0.00 | 0.00 | 37 | 1013.4 |
| 20260902190804 | 98 | 343 | 5.0 | 10.0 | 0.00 | 0.00 | 0.00 | 37 | 1013.4 |
| 20260902190704 | 98 | 7 | 5.0 | 10.0 | 0.00 | 0.00 | 0.00 | 37 | 1013.4 |
| 20260902190604 | 98 | 16 | 5.0 | 10.0 | 0.00 | 0.00 | 0.00 | 37 | 1013.4 |
| 20260902190504 | 98 | 27 | 5.0 | 10.0 | 0.00 | 0.00 | 0.00 | 37 | 1013.5 |
| 20260902190404 | 98 | 38 | 5.0 | 10.0 | 0.00 | 0.00 | 0.00 | 37 | 1013.5 |
| 20260902190304 | 98 | 43 | 5.0 | 10.0 | 0.00 | 0.00 | 0.00 | 37 | 1013.5 |
| 20260902190204 | 99 | 49 | 4.0 | 10.0 | 0.00 | 0.00 | 0.00 | 37 | 1013.6 |
| 20260902190104 | 99 | 52 | 4.0 | 9.0 | 0.00 | 0.00 | 0.00 | 37 | 1013.6 |
| 20260902190004 | 99 | 58 | 3.0 | 8.0 | 0.00 | 0.00 | 0.00 | 37 | 1013.6 |
| 20260902185904 | 99 | 57 | 3.0 | 8.0 | 0.00 | 0.00 | 0.00 | 37 | 1013.6 |
| 20260902185804 | 99 | 64 | 3.0 | 8.0 | 0.00 | 0.00 | 0.00 | 36 | 1013.6 |
| 20260902185704 | 99 | 79 | 2.0 | 8.0 | 0.00 | 0.00 | 0.00 | 36 | 1013.6 |
| 20260902185604 | 99 | 128 | 2.0 | 8.0 | 0.00 | 0.00 | 0.00 | 36 | 1013.7 |
| 20260902185506 | 99 | 170 | 2.0 | 6.0 | 0.00 | 0.00 | 0.00 | 36 | 1013.6 |
| 20260902185404 | 99 | 192 | 2.0 | 6.0 | 0.00 | 0.00 | 0.00 | 37 | 1013.6 |
| 20260902185306 | 99 | 199 | 2.0 | 6.0 | 0.00 | 0.00 | 0.00 | 37 | 1013.6 |
| 20260902185205 | 98 | 202 | 2.0 | 6.0 | 0.00 | 0.00 | 0.00 | 37 | 1013.6 |
| 20260902185104 | 98 | 205 | 3.0 | 6.0 | 0.00 | 0.00 | 0.00 | 38 | 1013.6 |
| 20260902185004 | 98 | 209 | 3.0 | 6.0 | 0.00 | 0.00 | 0.00 | 38 | 1013.6 |
| 20260902184904 | 98 | 210 | 3.0 | 6.0 | 0.00 | 0.00 | 0.00 | 37 | 1013.6 |
| 20260902184804 | 97 | 212 | 3.0 | 6.0 | 0.00 | 0.00 | 0.00 | 37 | 1013.7 |
| 20260902184704 | 98 | 214 | 3.0 | 6.0 | 0.00 | 0.00 | 0.00 | 38 | 1013.7 |
| 20260902184625 | 98 | 214 | 3.0 | 6.0 | 0.00 | 0.00 | 0.00 | 38 | 1013.7 |
| 20260902184504 | 97 | 216 | 3.0 | 5.0 | 0.00 | 0.00 | 0.00 | 38 | 1013.7 |
| 20260902184404 | 97 | 211 | 3.0 | 5.0 | 0.00 | 0.00 | 0.00 | 38 | 1013.8 |
| 20260902184304 | 97 | 204 | 3.0 | 5.0 | 0.00 | 0.00 | 0.00 | 37 | 1013.8 |
| 20260902184204 | 97 | 185 | 3.0 | 5.0 | 0.00 | 0.00 | 0.00 | 37 | 1013.8 |
| 20260902184125 | 98 | 139 | 3.0 | 5.0 | 0.00 | 0.00 | 0.00 | 37 | 1013.8 |
| 20260902184004 | 98 | 80 | 3.0 | 10.0 | 0.00 | 0.00 | 0.00 | 37 | 1013.9 |
| 20260902183904 | 98 | 71 | 4.0 | 13.0 | 0.00 | 0.00 | 0.00 | 37 | 1013.9 |
| 20260902183804 | 98 | 72 | 4.0 | 13.0 | 0.00 | 0.00 | 0.00 | 37 | 1013.9 |
| 20260902183704 | 98 | 71 | 4.0 | 13.0 | 0.00 | 0.00 | 0.00 | 37 | 1013.9 |
| 20260902183604 | 98 | 71 | 4.0 | 13.0 | 0.00 | 0.00 | 0.00 | 38 | 1013.9 |
| 20260902183504 | 98 | 68 | 5.0 | 13.0 | 0.00 | 0.00 | 0.00 | 37 | 1014.0 |
| 20260902183425 | 98 | 66 | 5.0 | 13.0 | 0.00 | 0.00 | 0.00 | 37 | 1014.0 |
| 20260902183304 | 97 | 65 | 5.0 | 13.0 | 0.00 | 0.00 | 0.00 | 38 | 1014.0 |
| 20260902183225 | 97 | 64 | 5.0 | 13.0 | 0.00 | 0.00 | 0.00 | 38 | 1014.0 |
| 20260902183104 | 98 | 63 | 4.0 | 13.0 | 0.00 | 0.00 | 0.00 | 37 | 1014.0 |
| 20260902183004 | 98 | 60 | 4.0 | 13.0 | 0.00 | 0.00 | 0.00 | 37 | 1014.0 |
| 20260902182904 | 98 | 54 | 4.0 | 10.0 | 0.00 | 0.00 | 0.00 | 38 | 1014.0 |
| 20260902182825 | 98 | 51 | 4.0 | 9.0 | 0.00 | 0.00 | 0.00 | 38 | 1014.0 |